<?xml version="1.0" encoding="UTF-8" standalone="no" ?>
<gpx xmlns="http://www.topografix.com/GPX/1/1" xmlns:xsi="http://www.w3.org/2001/XMLSchema-instance" xsi:schemaLocation="http://www.topografix.com/GPX/1/1 http://www.topografix.com/GPX/1/1/gpx.xsd" version="1.1" creator="VisuGPX - https://www.visugpx.com">
  <metadata>
    <name>Autour de Roussas</name>
    <desc><![CDATA[Balade autour de Roussas en Drôme Provençale.

Attention: une partie de la randonnée au dessus de la carrière se fait "hors sentier"]]></desc>
  </metadata>
  <trk>
    <name><![CDATA[2017-04-03 15:34:30]]></name>
    <trkseg>
      <trkpt lat="44.43178" lon="4.80258">
        <ele>139.53</ele>
        <time>2017-04-03T07:21:33Z</time>
      </trkpt>
      <trkpt lat="44.43178" lon="4.80257">
        <ele>139.53</ele>
        <time>2017-04-03T07:21:34Z</time>
      </trkpt>
      <trkpt lat="44.43178" lon="4.80256">
        <ele>138.57</ele>
        <time>2017-04-03T07:21:39Z</time>
      </trkpt>
      <trkpt lat="44.43172" lon="4.80259">
        <ele>138.09</ele>
        <time>2017-04-03T07:22:03Z</time>
      </trkpt>
      <trkpt lat="44.43175" lon="4.80262">
        <ele>138.57</ele>
        <time>2017-04-03T07:22:19Z</time>
      </trkpt>
      <trkpt lat="44.43175" lon="4.80262">
        <ele>137.61</ele>
        <time>2017-04-03T07:22:24Z</time>
      </trkpt>
      <trkpt lat="44.43175" lon="4.80261">
        <ele>138.09</ele>
        <time>2017-04-03T07:22:42Z</time>
      </trkpt>
      <trkpt lat="44.43175" lon="4.80261">
        <ele>136.64</ele>
        <time>2017-04-03T07:23:10Z</time>
      </trkpt>
      <trkpt lat="44.43177" lon="4.80264">
        <ele>138.09</ele>
        <time>2017-04-03T07:23:38Z</time>
      </trkpt>
      <trkpt lat="44.43171" lon="4.80276">
        <ele>138.57</ele>
        <time>2017-04-03T07:23:54Z</time>
      </trkpt>
      <trkpt lat="44.4316" lon="4.80273">
        <ele>140.49</ele>
        <time>2017-04-03T07:24:12Z</time>
      </trkpt>
      <trkpt lat="44.43159" lon="4.80273">
        <ele>139.05</ele>
        <time>2017-04-03T07:24:14Z</time>
      </trkpt>
      <trkpt lat="44.43151" lon="4.80272">
        <ele>140.01</ele>
        <time>2017-04-03T07:24:26Z</time>
      </trkpt>
      <trkpt lat="44.43147" lon="4.80276">
        <ele>139.05</ele>
        <time>2017-04-03T07:24:41Z</time>
      </trkpt>
      <trkpt lat="44.43149" lon="4.80265">
        <ele>140.01</ele>
        <time>2017-04-03T07:24:51Z</time>
      </trkpt>
      <trkpt lat="44.43153" lon="4.8025">
        <ele>141.45</ele>
        <time>2017-04-03T07:25:06Z</time>
      </trkpt>
      <trkpt lat="44.43151" lon="4.80243">
        <ele>142.89</ele>
        <time>2017-04-03T07:25:20Z</time>
      </trkpt>
      <trkpt lat="44.43151" lon="4.80243">
        <ele>141.93</ele>
        <time>2017-04-03T07:25:21Z</time>
      </trkpt>
      <trkpt lat="44.43153" lon="4.80243">
        <ele>140.01</ele>
        <time>2017-04-03T07:25:23Z</time>
      </trkpt>
      <trkpt lat="44.43154" lon="4.80243">
        <ele>144.82</ele>
        <time>2017-04-03T07:25:24Z</time>
      </trkpt>
      <trkpt lat="44.43154" lon="4.80243">
        <ele>142.41</ele>
        <time>2017-04-03T07:25:25Z</time>
      </trkpt>
      <trkpt lat="44.43155" lon="4.80241">
        <ele>141.45</ele>
        <time>2017-04-03T07:25:27Z</time>
      </trkpt>
      <trkpt lat="44.43159" lon="4.80229">
        <ele>143.85</ele>
        <time>2017-04-03T07:25:40Z</time>
      </trkpt>
      <trkpt lat="44.43158" lon="4.80216">
        <ele>146.26</ele>
        <time>2017-04-03T07:25:56Z</time>
      </trkpt>
      <trkpt lat="44.43156" lon="4.80215">
        <ele>145.3</ele>
        <time>2017-04-03T07:26:02Z</time>
      </trkpt>
      <trkpt lat="44.43153" lon="4.80216">
        <ele>145.78</ele>
        <time>2017-04-03T07:26:11Z</time>
      </trkpt>
      <trkpt lat="44.43145" lon="4.80218">
        <ele>148.18</ele>
        <time>2017-04-03T07:26:24Z</time>
      </trkpt>
      <trkpt lat="44.43136" lon="4.80217">
        <ele>149.14</ele>
        <time>2017-04-03T07:26:38Z</time>
      </trkpt>
      <trkpt lat="44.43121" lon="4.80214">
        <ele>152.03</ele>
        <time>2017-04-03T07:26:55Z</time>
      </trkpt>
      <trkpt lat="44.43107" lon="4.80207">
        <ele>153.95</ele>
        <time>2017-04-03T07:27:13Z</time>
      </trkpt>
      <trkpt lat="44.43098" lon="4.80196">
        <ele>157.31</ele>
        <time>2017-04-03T07:27:32Z</time>
      </trkpt>
      <trkpt lat="44.43086" lon="4.80191">
        <ele>158.75</ele>
        <time>2017-04-03T07:27:46Z</time>
      </trkpt>
      <trkpt lat="44.43077" lon="4.80188">
        <ele>160.68</ele>
        <time>2017-04-03T07:27:57Z</time>
      </trkpt>
      <trkpt lat="44.43071" lon="4.80182">
        <ele>159.24</ele>
        <time>2017-04-03T07:28:03Z</time>
      </trkpt>
      <trkpt lat="44.43068" lon="4.80179">
        <ele>159.24</ele>
        <time>2017-04-03T07:28:12Z</time>
      </trkpt>
      <trkpt lat="44.43066" lon="4.8018">
        <ele>159.24</ele>
        <time>2017-04-03T07:28:22Z</time>
      </trkpt>
      <trkpt lat="44.43064" lon="4.80176">
        <ele>160.68</ele>
        <time>2017-04-03T07:28:27Z</time>
      </trkpt>
      <trkpt lat="44.43063" lon="4.80175">
        <ele>158.75</ele>
        <time>2017-04-03T07:28:29Z</time>
      </trkpt>
      <trkpt lat="44.43064" lon="4.80173">
        <ele>159.72</ele>
        <time>2017-04-03T07:28:39Z</time>
      </trkpt>
      <trkpt lat="44.43065" lon="4.80174">
        <ele>158.27</ele>
        <time>2017-04-03T07:28:43Z</time>
      </trkpt>
      <trkpt lat="44.43071" lon="4.80179">
        <ele>159.24</ele>
        <time>2017-04-03T07:29:01Z</time>
      </trkpt>
      <trkpt lat="44.43074" lon="4.80183">
        <ele>157.31</ele>
        <time>2017-04-03T07:29:06Z</time>
      </trkpt>
      <trkpt lat="44.43081" lon="4.80181">
        <ele>161.16</ele>
        <time>2017-04-03T07:29:14Z</time>
      </trkpt>
      <trkpt lat="44.43087" lon="4.80169">
        <ele>164.04</ele>
        <time>2017-04-03T07:29:30Z</time>
      </trkpt>
      <trkpt lat="44.43089" lon="4.80166">
        <ele>160.68</ele>
        <time>2017-04-03T07:29:40Z</time>
      </trkpt>
      <trkpt lat="44.43089" lon="4.80167">
        <ele>165</ele>
        <time>2017-04-03T07:29:41Z</time>
      </trkpt>
      <trkpt lat="44.43089" lon="4.80168">
        <ele>165.48</ele>
        <time>2017-04-03T07:29:48Z</time>
      </trkpt>
      <trkpt lat="44.43097" lon="4.80166">
        <ele>165.48</ele>
        <time>2017-04-03T07:30:04Z</time>
      </trkpt>
      <trkpt lat="44.43101" lon="4.80157">
        <ele>163.56</ele>
        <time>2017-04-03T07:30:17Z</time>
      </trkpt>
      <trkpt lat="44.43113" lon="4.80151">
        <ele>166.93</ele>
        <time>2017-04-03T07:30:28Z</time>
      </trkpt>
      <trkpt lat="44.43113" lon="4.8015">
        <ele>166.45</ele>
        <time>2017-04-03T07:30:29Z</time>
      </trkpt>
      <trkpt lat="44.43116" lon="4.80146">
        <ele>164.04</ele>
        <time>2017-04-03T07:30:42Z</time>
      </trkpt>
      <trkpt lat="44.43118" lon="4.80145">
        <ele>163.08</ele>
        <time>2017-04-03T07:30:44Z</time>
      </trkpt>
      <trkpt lat="44.43125" lon="4.80137">
        <ele>165</ele>
        <time>2017-04-03T07:30:55Z</time>
      </trkpt>
      <trkpt lat="44.43131" lon="4.80132">
        <ele>163.08</ele>
        <time>2017-04-03T07:31:03Z</time>
      </trkpt>
      <trkpt lat="44.4314" lon="4.80116">
        <ele>160.2</ele>
        <time>2017-04-03T07:31:22Z</time>
      </trkpt>
      <trkpt lat="44.43141" lon="4.80115">
        <ele>160.68</ele>
        <time>2017-04-03T07:31:23Z</time>
      </trkpt>
      <trkpt lat="44.43143" lon="4.8011">
        <ele>158.75</ele>
        <time>2017-04-03T07:31:30Z</time>
      </trkpt>
      <trkpt lat="44.43151" lon="4.80097">
        <ele>159.72</ele>
        <time>2017-04-03T07:31:42Z</time>
      </trkpt>
      <trkpt lat="44.43156" lon="4.80088">
        <ele>157.79</ele>
        <time>2017-04-03T07:31:50Z</time>
      </trkpt>
      <trkpt lat="44.43164" lon="4.80069">
        <ele>158.75</ele>
        <time>2017-04-03T07:32:07Z</time>
      </trkpt>
      <trkpt lat="44.43174" lon="4.80047">
        <ele>157.31</ele>
        <time>2017-04-03T07:32:25Z</time>
      </trkpt>
      <trkpt lat="44.43192" lon="4.80031">
        <ele>156.83</ele>
        <time>2017-04-03T07:32:47Z</time>
      </trkpt>
      <trkpt lat="44.43206" lon="4.80034">
        <ele>156.83</ele>
        <time>2017-04-03T07:33:02Z</time>
      </trkpt>
      <trkpt lat="44.43228" lon="4.8003">
        <ele>160.2</ele>
        <time>2017-04-03T07:33:23Z</time>
      </trkpt>
      <trkpt lat="44.43252" lon="4.80027">
        <ele>161.64</ele>
        <time>2017-04-03T07:33:48Z</time>
      </trkpt>
      <trkpt lat="44.43265" lon="4.80033">
        <ele>161.16</ele>
        <time>2017-04-03T07:34:05Z</time>
      </trkpt>
      <trkpt lat="44.43268" lon="4.80035">
        <ele>163.56</ele>
        <time>2017-04-03T07:34:08Z</time>
      </trkpt>
      <trkpt lat="44.4327" lon="4.80036">
        <ele>163.56</ele>
        <time>2017-04-03T07:34:10Z</time>
      </trkpt>
      <trkpt lat="44.43284" lon="4.80048">
        <ele>163.08</ele>
        <time>2017-04-03T07:34:26Z</time>
      </trkpt>
      <trkpt lat="44.4328" lon="4.80044">
        <ele>163.08</ele>
        <time>2017-04-03T07:34:43Z</time>
      </trkpt>
      <trkpt lat="44.43265" lon="4.80028">
        <ele>163.56</ele>
        <time>2017-04-03T07:35:03Z</time>
      </trkpt>
      <trkpt lat="44.43243" lon="4.80026">
        <ele>161.16</ele>
        <time>2017-04-03T07:35:26Z</time>
      </trkpt>
      <trkpt lat="44.43224" lon="4.80031">
        <ele>157.79</ele>
        <time>2017-04-03T07:35:46Z</time>
      </trkpt>
      <trkpt lat="44.43206" lon="4.80034">
        <ele>156.83</ele>
        <time>2017-04-03T07:36:05Z</time>
      </trkpt>
      <trkpt lat="44.43202" lon="4.80034">
        <ele>156.35</ele>
        <time>2017-04-03T07:36:09Z</time>
      </trkpt>
      <trkpt lat="44.43194" lon="4.8003">
        <ele>155.39</ele>
        <time>2017-04-03T07:36:16Z</time>
      </trkpt>
      <trkpt lat="44.43176" lon="4.80033">
        <ele>155.39</ele>
        <time>2017-04-03T07:36:33Z</time>
      </trkpt>
      <trkpt lat="44.43177" lon="4.80012">
        <ele>157.31</ele>
        <time>2017-04-03T07:36:51Z</time>
      </trkpt>
      <trkpt lat="44.43181" lon="4.79998">
        <ele>158.27</ele>
        <time>2017-04-03T07:37:02Z</time>
      </trkpt>
      <trkpt lat="44.43185" lon="4.7999">
        <ele>160.2</ele>
        <time>2017-04-03T07:37:08Z</time>
      </trkpt>
      <trkpt lat="44.43192" lon="4.79976">
        <ele>160.2</ele>
        <time>2017-04-03T07:37:19Z</time>
      </trkpt>
      <trkpt lat="44.43201" lon="4.79958">
        <ele>161.16</ele>
        <time>2017-04-03T07:37:34Z</time>
      </trkpt>
      <trkpt lat="44.43205" lon="4.79946">
        <ele>160.2</ele>
        <time>2017-04-03T07:37:43Z</time>
      </trkpt>
      <trkpt lat="44.43206" lon="4.79942">
        <ele>162.12</ele>
        <time>2017-04-03T07:37:46Z</time>
      </trkpt>
      <trkpt lat="44.43213" lon="4.79921">
        <ele>165</ele>
        <time>2017-04-03T07:38:04Z</time>
      </trkpt>
      <trkpt lat="44.43217" lon="4.7991">
        <ele>165.96</ele>
        <time>2017-04-03T07:38:13Z</time>
      </trkpt>
      <trkpt lat="44.43226" lon="4.79887">
        <ele>168.37</ele>
        <time>2017-04-03T07:38:34Z</time>
      </trkpt>
      <trkpt lat="44.43235" lon="4.79867">
        <ele>170.29</ele>
        <time>2017-04-03T07:38:52Z</time>
      </trkpt>
      <trkpt lat="44.4324" lon="4.79852">
        <ele>173.66</ele>
        <time>2017-04-03T07:39:05Z</time>
      </trkpt>
      <trkpt lat="44.43244" lon="4.7983">
        <ele>176.06</ele>
        <time>2017-04-03T07:39:24Z</time>
      </trkpt>
      <trkpt lat="44.43247" lon="4.79809">
        <ele>178.46</ele>
        <time>2017-04-03T07:39:41Z</time>
      </trkpt>
      <trkpt lat="44.43248" lon="4.79785">
        <ele>181.83</ele>
        <time>2017-04-03T07:39:57Z</time>
      </trkpt>
      <trkpt lat="44.43245" lon="4.79755">
        <ele>183.75</ele>
        <time>2017-04-03T07:40:17Z</time>
      </trkpt>
      <trkpt lat="44.43244" lon="4.79756">
        <ele>185.19</ele>
        <time>2017-04-03T07:40:32Z</time>
      </trkpt>
      <trkpt lat="44.43243" lon="4.79756">
        <ele>184.23</ele>
        <time>2017-04-03T07:40:52Z</time>
      </trkpt>
      <trkpt lat="44.43243" lon="4.79754">
        <ele>186.15</ele>
        <time>2017-04-03T07:40:55Z</time>
      </trkpt>
      <trkpt lat="44.43245" lon="4.7975">
        <ele>184.23</ele>
        <time>2017-04-03T07:41:00Z</time>
      </trkpt>
      <trkpt lat="44.43258" lon="4.79748">
        <ele>187.11</ele>
        <time>2017-04-03T07:41:17Z</time>
      </trkpt>
      <trkpt lat="44.43269" lon="4.79746">
        <ele>188.08</ele>
        <time>2017-04-03T07:41:31Z</time>
      </trkpt>
      <trkpt lat="44.43271" lon="4.79744">
        <ele>190</ele>
        <time>2017-04-03T07:41:34Z</time>
      </trkpt>
      <trkpt lat="44.43284" lon="4.7974">
        <ele>190</ele>
        <time>2017-04-03T07:41:49Z</time>
      </trkpt>
      <trkpt lat="44.43287" lon="4.79738">
        <ele>191.44</ele>
        <time>2017-04-03T07:41:52Z</time>
      </trkpt>
      <trkpt lat="44.43301" lon="4.79739">
        <ele>191.92</ele>
        <time>2017-04-03T07:42:06Z</time>
      </trkpt>
      <trkpt lat="44.43308" lon="4.79744">
        <ele>192.88</ele>
        <time>2017-04-03T07:42:16Z</time>
      </trkpt>
      <trkpt lat="44.43309" lon="4.79744">
        <ele>194.32</ele>
        <time>2017-04-03T07:42:22Z</time>
      </trkpt>
      <trkpt lat="44.43307" lon="4.79743">
        <ele>192.88</ele>
        <time>2017-04-03T07:42:32Z</time>
      </trkpt>
      <trkpt lat="44.4331" lon="4.79745">
        <ele>192.4</ele>
        <time>2017-04-03T07:42:55Z</time>
      </trkpt>
      <trkpt lat="44.4331" lon="4.79746">
        <ele>193.36</ele>
        <time>2017-04-03T07:43:16Z</time>
      </trkpt>
      <trkpt lat="44.43309" lon="4.79744">
        <ele>193.36</ele>
        <time>2017-04-03T07:43:49Z</time>
      </trkpt>
      <trkpt lat="44.43312" lon="4.79742">
        <ele>193.84</ele>
        <time>2017-04-03T07:44:05Z</time>
      </trkpt>
      <trkpt lat="44.43311" lon="4.79744">
        <ele>192.4</ele>
        <time>2017-04-03T07:44:23Z</time>
      </trkpt>
      <trkpt lat="44.43311" lon="4.79745">
        <ele>193.36</ele>
        <time>2017-04-03T07:44:33Z</time>
      </trkpt>
      <trkpt lat="44.43312" lon="4.79746">
        <ele>192.4</ele>
        <time>2017-04-03T07:44:41Z</time>
      </trkpt>
      <trkpt lat="44.43312" lon="4.79747">
        <ele>195.77</ele>
        <time>2017-04-03T07:44:47Z</time>
      </trkpt>
      <trkpt lat="44.43311" lon="4.79747">
        <ele>192.88</ele>
        <time>2017-04-03T07:44:48Z</time>
      </trkpt>
      <trkpt lat="44.43312" lon="4.79747">
        <ele>192.4</ele>
        <time>2017-04-03T07:44:57Z</time>
      </trkpt>
      <trkpt lat="44.43312" lon="4.79747">
        <ele>192.4</ele>
        <time>2017-04-03T07:44:59Z</time>
      </trkpt>
      <trkpt lat="44.43312" lon="4.79744">
        <ele>194.8</ele>
        <time>2017-04-03T07:45:01Z</time>
      </trkpt>
      <trkpt lat="44.43311" lon="4.79744">
        <ele>192.88</ele>
        <time>2017-04-03T07:45:23Z</time>
      </trkpt>
      <trkpt lat="44.43311" lon="4.79745">
        <ele>193.84</ele>
        <time>2017-04-03T07:45:35Z</time>
      </trkpt>
      <trkpt lat="44.43314" lon="4.79748">
        <ele>191.92</ele>
        <time>2017-04-03T07:45:42Z</time>
      </trkpt>
      <trkpt lat="44.43327" lon="4.79758">
        <ele>194.32</ele>
        <time>2017-04-03T07:46:00Z</time>
      </trkpt>
      <trkpt lat="44.43342" lon="4.79766">
        <ele>197.69</ele>
        <time>2017-04-03T07:46:18Z</time>
      </trkpt>
      <trkpt lat="44.43343" lon="4.79766">
        <ele>197.69</ele>
        <time>2017-04-03T07:46:19Z</time>
      </trkpt>
      <trkpt lat="44.43357" lon="4.79772">
        <ele>200.57</ele>
        <time>2017-04-03T07:46:39Z</time>
      </trkpt>
      <trkpt lat="44.43367" lon="4.79779">
        <ele>203.46</ele>
        <time>2017-04-03T07:46:56Z</time>
      </trkpt>
      <trkpt lat="44.43371" lon="4.79782">
        <ele>205.38</ele>
        <time>2017-04-03T07:47:02Z</time>
      </trkpt>
      <trkpt lat="44.43383" lon="4.79791">
        <ele>206.82</ele>
        <time>2017-04-03T07:47:19Z</time>
      </trkpt>
      <trkpt lat="44.43388" lon="4.79795">
        <ele>207.3</ele>
        <time>2017-04-03T07:47:25Z</time>
      </trkpt>
      <trkpt lat="44.4339" lon="4.79796">
        <ele>207.78</ele>
        <time>2017-04-03T07:47:39Z</time>
      </trkpt>
      <trkpt lat="44.43391" lon="4.79796">
        <ele>206.34</ele>
        <time>2017-04-03T07:47:43Z</time>
      </trkpt>
      <trkpt lat="44.4339" lon="4.79796">
        <ele>207.78</ele>
        <time>2017-04-03T07:47:46Z</time>
      </trkpt>
      <trkpt lat="44.43395" lon="4.79796">
        <ele>209.22</ele>
        <time>2017-04-03T07:47:57Z</time>
      </trkpt>
      <trkpt lat="44.43396" lon="4.79795">
        <ele>209.22</ele>
        <time>2017-04-03T07:47:58Z</time>
      </trkpt>
      <trkpt lat="44.43401" lon="4.79791">
        <ele>205.86</ele>
        <time>2017-04-03T07:48:05Z</time>
      </trkpt>
      <trkpt lat="44.43409" lon="4.79791">
        <ele>207.3</ele>
        <time>2017-04-03T07:48:15Z</time>
      </trkpt>
      <trkpt lat="44.43423" lon="4.79793">
        <ele>206.34</ele>
        <time>2017-04-03T07:48:32Z</time>
      </trkpt>
      <trkpt lat="44.43433" lon="4.79804">
        <ele>204.9</ele>
        <time>2017-04-03T07:48:49Z</time>
      </trkpt>
      <trkpt lat="44.43437" lon="4.79811">
        <ele>205.86</ele>
        <time>2017-04-03T07:48:56Z</time>
      </trkpt>
      <trkpt lat="44.43442" lon="4.79825">
        <ele>205.86</ele>
        <time>2017-04-03T07:49:09Z</time>
      </trkpt>
      <trkpt lat="44.4345" lon="4.79829">
        <ele>205.38</ele>
        <time>2017-04-03T07:49:19Z</time>
      </trkpt>
      <trkpt lat="44.43453" lon="4.79829">
        <ele>207.3</ele>
        <time>2017-04-03T07:49:22Z</time>
      </trkpt>
      <trkpt lat="44.43457" lon="4.79829">
        <ele>207.3</ele>
        <time>2017-04-03T07:49:26Z</time>
      </trkpt>
      <trkpt lat="44.43462" lon="4.79828">
        <ele>207.3</ele>
        <time>2017-04-03T07:49:31Z</time>
      </trkpt>
      <trkpt lat="44.43482" lon="4.79826">
        <ele>208.74</ele>
        <time>2017-04-03T07:49:51Z</time>
      </trkpt>
      <trkpt lat="44.43495" lon="4.79825">
        <ele>209.7</ele>
        <time>2017-04-03T07:50:02Z</time>
      </trkpt>
      <trkpt lat="44.43509" lon="4.79823">
        <ele>210.19</ele>
        <time>2017-04-03T07:50:18Z</time>
      </trkpt>
      <trkpt lat="44.43523" lon="4.79826">
        <ele>212.11</ele>
        <time>2017-04-03T07:50:36Z</time>
      </trkpt>
      <trkpt lat="44.43525" lon="4.79827">
        <ele>213.07</ele>
        <time>2017-04-03T07:50:39Z</time>
      </trkpt>
      <trkpt lat="44.43532" lon="4.79829">
        <ele>214.51</ele>
        <time>2017-04-03T07:50:48Z</time>
      </trkpt>
      <trkpt lat="44.43539" lon="4.7983">
        <ele>214.99</ele>
        <time>2017-04-03T07:50:56Z</time>
      </trkpt>
      <trkpt lat="44.43545" lon="4.79832">
        <ele>215.95</ele>
        <time>2017-04-03T07:51:04Z</time>
      </trkpt>
      <trkpt lat="44.43557" lon="4.7984">
        <ele>213.55</ele>
        <time>2017-04-03T07:51:17Z</time>
      </trkpt>
      <trkpt lat="44.43559" lon="4.79841">
        <ele>217.4</ele>
        <time>2017-04-03T07:51:18Z</time>
      </trkpt>
      <trkpt lat="44.4356" lon="4.79842">
        <ele>214.03</ele>
        <time>2017-04-03T07:51:20Z</time>
      </trkpt>
      <trkpt lat="44.43561" lon="4.79842">
        <ele>214.03</ele>
        <time>2017-04-03T07:51:21Z</time>
      </trkpt>
      <trkpt lat="44.43565" lon="4.79843">
        <ele>215.95</ele>
        <time>2017-04-03T07:51:25Z</time>
      </trkpt>
      <trkpt lat="44.43579" lon="4.79846">
        <ele>216.43</ele>
        <time>2017-04-03T07:51:40Z</time>
      </trkpt>
      <trkpt lat="44.43595" lon="4.7985">
        <ele>218.84</ele>
        <time>2017-04-03T07:51:57Z</time>
      </trkpt>
      <trkpt lat="44.43596" lon="4.79849">
        <ele>217.4</ele>
        <time>2017-04-03T07:51:59Z</time>
      </trkpt>
      <trkpt lat="44.43599" lon="4.79849">
        <ele>218.84</ele>
        <time>2017-04-03T07:52:03Z</time>
      </trkpt>
      <trkpt lat="44.43608" lon="4.79839">
        <ele>220.28</ele>
        <time>2017-04-03T07:52:17Z</time>
      </trkpt>
      <trkpt lat="44.4362" lon="4.79827">
        <ele>221.24</ele>
        <time>2017-04-03T07:52:34Z</time>
      </trkpt>
      <trkpt lat="44.43628" lon="4.79817">
        <ele>222.68</ele>
        <time>2017-04-03T07:52:46Z</time>
      </trkpt>
      <trkpt lat="44.43639" lon="4.79801">
        <ele>223.64</ele>
        <time>2017-04-03T07:53:01Z</time>
      </trkpt>
      <trkpt lat="44.43654" lon="4.79796">
        <ele>224.61</ele>
        <time>2017-04-03T07:53:20Z</time>
      </trkpt>
      <trkpt lat="44.43667" lon="4.79791">
        <ele>223.16</ele>
        <time>2017-04-03T07:53:36Z</time>
      </trkpt>
      <trkpt lat="44.43672" lon="4.79794">
        <ele>223.16</ele>
        <time>2017-04-03T07:53:44Z</time>
      </trkpt>
      <trkpt lat="44.43674" lon="4.79795">
        <ele>221.24</ele>
        <time>2017-04-03T07:53:49Z</time>
      </trkpt>
      <trkpt lat="44.43675" lon="4.79795">
        <ele>224.61</ele>
        <time>2017-04-03T07:53:50Z</time>
      </trkpt>
      <trkpt lat="44.43676" lon="4.79795">
        <ele>220.76</ele>
        <time>2017-04-03T07:53:53Z</time>
      </trkpt>
      <trkpt lat="44.43678" lon="4.79794">
        <ele>222.68</ele>
        <time>2017-04-03T07:53:56Z</time>
      </trkpt>
      <trkpt lat="44.43679" lon="4.79792">
        <ele>219.32</ele>
        <time>2017-04-03T07:53:59Z</time>
      </trkpt>
      <trkpt lat="44.4368" lon="4.79792">
        <ele>219.32</ele>
        <time>2017-04-03T07:54:00Z</time>
      </trkpt>
      <trkpt lat="44.43682" lon="4.79789">
        <ele>221.72</ele>
        <time>2017-04-03T07:54:03Z</time>
      </trkpt>
      <trkpt lat="44.43682" lon="4.79787">
        <ele>220.28</ele>
        <time>2017-04-03T07:54:05Z</time>
      </trkpt>
      <trkpt lat="44.43684" lon="4.79784">
        <ele>219.32</ele>
        <time>2017-04-03T07:54:10Z</time>
      </trkpt>
      <trkpt lat="44.43691" lon="4.79775">
        <ele>219.32</ele>
        <time>2017-04-03T07:54:22Z</time>
      </trkpt>
      <trkpt lat="44.43692" lon="4.79775">
        <ele>220.28</ele>
        <time>2017-04-03T07:54:31Z</time>
      </trkpt>
      <trkpt lat="44.43692" lon="4.79774">
        <ele>218.84</ele>
        <time>2017-04-03T07:54:46Z</time>
      </trkpt>
      <trkpt lat="44.43694" lon="4.79774">
        <ele>219.8</ele>
        <time>2017-04-03T07:54:56Z</time>
      </trkpt>
      <trkpt lat="44.43704" lon="4.79763">
        <ele>219.8</ele>
        <time>2017-04-03T07:55:09Z</time>
      </trkpt>
      <trkpt lat="44.43716" lon="4.79754">
        <ele>221.24</ele>
        <time>2017-04-03T07:55:25Z</time>
      </trkpt>
      <trkpt lat="44.43722" lon="4.79748">
        <ele>221.24</ele>
        <time>2017-04-03T07:55:34Z</time>
      </trkpt>
      <trkpt lat="44.43731" lon="4.79732">
        <ele>218.36</ele>
        <time>2017-04-03T07:55:51Z</time>
      </trkpt>
      <trkpt lat="44.43738" lon="4.79734">
        <ele>217.4</ele>
        <time>2017-04-03T07:56:01Z</time>
      </trkpt>
      <trkpt lat="44.43738" lon="4.79736">
        <ele>214.03</ele>
        <time>2017-04-03T07:56:03Z</time>
      </trkpt>
      <trkpt lat="44.43739" lon="4.79736">
        <ele>214.03</ele>
        <time>2017-04-03T07:56:04Z</time>
      </trkpt>
      <trkpt lat="44.4374" lon="4.79736">
        <ele>216.43</ele>
        <time>2017-04-03T07:56:06Z</time>
      </trkpt>
      <trkpt lat="44.43743" lon="4.79738">
        <ele>212.59</ele>
        <time>2017-04-03T07:56:12Z</time>
      </trkpt>
      <trkpt lat="44.43749" lon="4.79742">
        <ele>211.63</ele>
        <time>2017-04-03T07:56:24Z</time>
      </trkpt>
      <trkpt lat="44.4375" lon="4.79742">
        <ele>213.07</ele>
        <time>2017-04-03T07:56:26Z</time>
      </trkpt>
      <trkpt lat="44.43754" lon="4.7974">
        <ele>209.7</ele>
        <time>2017-04-03T07:56:32Z</time>
      </trkpt>
      <trkpt lat="44.43763" lon="4.79744">
        <ele>211.15</ele>
        <time>2017-04-03T07:56:44Z</time>
      </trkpt>
      <trkpt lat="44.43774" lon="4.79751">
        <ele>211.15</ele>
        <time>2017-04-03T07:56:59Z</time>
      </trkpt>
      <trkpt lat="44.43784" lon="4.79747">
        <ele>208.74</ele>
        <time>2017-04-03T07:57:14Z</time>
      </trkpt>
      <trkpt lat="44.43791" lon="4.79747">
        <ele>205.86</ele>
        <time>2017-04-03T07:57:25Z</time>
      </trkpt>
      <trkpt lat="44.43802" lon="4.79749">
        <ele>202.49</ele>
        <time>2017-04-03T07:57:42Z</time>
      </trkpt>
      <trkpt lat="44.43814" lon="4.79749">
        <ele>199.61</ele>
        <time>2017-04-03T07:57:57Z</time>
      </trkpt>
      <trkpt lat="44.43826" lon="4.79752">
        <ele>196.73</ele>
        <time>2017-04-03T07:58:10Z</time>
      </trkpt>
      <trkpt lat="44.43837" lon="4.79758">
        <ele>194.8</ele>
        <time>2017-04-03T07:58:25Z</time>
      </trkpt>
      <trkpt lat="44.43846" lon="4.79748">
        <ele>191.44</ele>
        <time>2017-04-03T07:58:40Z</time>
      </trkpt>
      <trkpt lat="44.43853" lon="4.79741">
        <ele>189.52</ele>
        <time>2017-04-03T07:58:56Z</time>
      </trkpt>
      <trkpt lat="44.43858" lon="4.79742">
        <ele>188.56</ele>
        <time>2017-04-03T07:59:04Z</time>
      </trkpt>
      <trkpt lat="44.4386" lon="4.79744">
        <ele>186.63</ele>
        <time>2017-04-03T07:59:06Z</time>
      </trkpt>
      <trkpt lat="44.4386" lon="4.79745">
        <ele>190.48</ele>
        <time>2017-04-03T07:59:08Z</time>
      </trkpt>
      <trkpt lat="44.43872" lon="4.79748">
        <ele>189.04</ele>
        <time>2017-04-03T07:59:21Z</time>
      </trkpt>
      <trkpt lat="44.43885" lon="4.79751">
        <ele>186.15</ele>
        <time>2017-04-03T07:59:36Z</time>
      </trkpt>
      <trkpt lat="44.43896" lon="4.79765">
        <ele>185.19</ele>
        <time>2017-04-03T07:59:52Z</time>
      </trkpt>
      <trkpt lat="44.43903" lon="4.79779">
        <ele>181.83</ele>
        <time>2017-04-03T08:00:05Z</time>
      </trkpt>
      <trkpt lat="44.43909" lon="4.79795">
        <ele>180.38</ele>
        <time>2017-04-03T08:00:20Z</time>
      </trkpt>
      <trkpt lat="44.43913" lon="4.79799">
        <ele>179.9</ele>
        <time>2017-04-03T08:00:25Z</time>
      </trkpt>
      <trkpt lat="44.43919" lon="4.79811">
        <ele>180.38</ele>
        <time>2017-04-03T08:00:35Z</time>
      </trkpt>
      <trkpt lat="44.43922" lon="4.79818">
        <ele>177.02</ele>
        <time>2017-04-03T08:00:41Z</time>
      </trkpt>
      <trkpt lat="44.43923" lon="4.79819">
        <ele>177.02</ele>
        <time>2017-04-03T08:00:42Z</time>
      </trkpt>
      <trkpt lat="44.43926" lon="4.79828">
        <ele>177.98</ele>
        <time>2017-04-03T08:00:49Z</time>
      </trkpt>
      <trkpt lat="44.43931" lon="4.79837">
        <ele>174.62</ele>
        <time>2017-04-03T08:00:57Z</time>
      </trkpt>
      <trkpt lat="44.43934" lon="4.79842">
        <ele>177.98</ele>
        <time>2017-04-03T08:01:01Z</time>
      </trkpt>
      <trkpt lat="44.43935" lon="4.79843">
        <ele>177.98</ele>
        <time>2017-04-03T08:01:02Z</time>
      </trkpt>
      <trkpt lat="44.43939" lon="4.7985">
        <ele>176.54</ele>
        <time>2017-04-03T08:01:08Z</time>
      </trkpt>
      <trkpt lat="44.43939" lon="4.79851">
        <ele>175.58</ele>
        <time>2017-04-03T08:01:09Z</time>
      </trkpt>
      <trkpt lat="44.4394" lon="4.79854">
        <ele>177.98</ele>
        <time>2017-04-03T08:01:11Z</time>
      </trkpt>
      <trkpt lat="44.43942" lon="4.79856">
        <ele>175.58</ele>
        <time>2017-04-03T08:01:14Z</time>
      </trkpt>
      <trkpt lat="44.43942" lon="4.79857">
        <ele>174.62</ele>
        <time>2017-04-03T08:01:15Z</time>
      </trkpt>
      <trkpt lat="44.43944" lon="4.79861">
        <ele>180.38</ele>
        <time>2017-04-03T08:01:18Z</time>
      </trkpt>
      <trkpt lat="44.43945" lon="4.79863">
        <ele>177.02</ele>
        <time>2017-04-03T08:01:19Z</time>
      </trkpt>
      <trkpt lat="44.43946" lon="4.79865">
        <ele>176.54</ele>
        <time>2017-04-03T08:01:21Z</time>
      </trkpt>
      <trkpt lat="44.43947" lon="4.79869">
        <ele>177.5</ele>
        <time>2017-04-03T08:01:24Z</time>
      </trkpt>
      <trkpt lat="44.43954" lon="4.7988">
        <ele>177.98</ele>
        <time>2017-04-03T08:01:34Z</time>
      </trkpt>
      <trkpt lat="44.43966" lon="4.79885">
        <ele>177.02</ele>
        <time>2017-04-03T08:01:46Z</time>
      </trkpt>
      <trkpt lat="44.43986" lon="4.79879">
        <ele>177.02</ele>
        <time>2017-04-03T08:02:06Z</time>
      </trkpt>
      <trkpt lat="44.44007" lon="4.79871">
        <ele>176.06</ele>
        <time>2017-04-03T08:02:27Z</time>
      </trkpt>
      <trkpt lat="44.44022" lon="4.79869">
        <ele>177.5</ele>
        <time>2017-04-03T08:02:43Z</time>
      </trkpt>
      <trkpt lat="44.44029" lon="4.79864">
        <ele>176.06</ele>
        <time>2017-04-03T08:02:49Z</time>
      </trkpt>
      <trkpt lat="44.44048" lon="4.79856">
        <ele>178.46</ele>
        <time>2017-04-03T08:03:09Z</time>
      </trkpt>
      <trkpt lat="44.44054" lon="4.79854">
        <ele>177.02</ele>
        <time>2017-04-03T08:03:14Z</time>
      </trkpt>
      <trkpt lat="44.44056" lon="4.79853">
        <ele>177.02</ele>
        <time>2017-04-03T08:03:16Z</time>
      </trkpt>
      <trkpt lat="44.44059" lon="4.79853">
        <ele>175.58</ele>
        <time>2017-04-03T08:03:20Z</time>
      </trkpt>
      <trkpt lat="44.44067" lon="4.7985">
        <ele>178.46</ele>
        <time>2017-04-03T08:03:27Z</time>
      </trkpt>
      <trkpt lat="44.44072" lon="4.79847">
        <ele>177.02</ele>
        <time>2017-04-03T08:03:33Z</time>
      </trkpt>
      <trkpt lat="44.4408" lon="4.79843">
        <ele>178.46</ele>
        <time>2017-04-03T08:03:41Z</time>
      </trkpt>
      <trkpt lat="44.44094" lon="4.79841">
        <ele>178.94</ele>
        <time>2017-04-03T08:03:57Z</time>
      </trkpt>
      <trkpt lat="44.441" lon="4.79841">
        <ele>181.35</ele>
        <time>2017-04-03T08:04:03Z</time>
      </trkpt>
      <trkpt lat="44.44118" lon="4.79841">
        <ele>182.31</ele>
        <time>2017-04-03T08:04:23Z</time>
      </trkpt>
      <trkpt lat="44.44133" lon="4.7984">
        <ele>184.23</ele>
        <time>2017-04-03T08:04:40Z</time>
      </trkpt>
      <trkpt lat="44.44142" lon="4.79838">
        <ele>185.19</ele>
        <time>2017-04-03T08:04:57Z</time>
      </trkpt>
      <trkpt lat="44.44144" lon="4.79838">
        <ele>186.15</ele>
        <time>2017-04-03T08:05:17Z</time>
      </trkpt>
      <trkpt lat="44.44143" lon="4.79841">
        <ele>184.71</ele>
        <time>2017-04-03T08:05:25Z</time>
      </trkpt>
      <trkpt lat="44.44143" lon="4.79849">
        <ele>185.19</ele>
        <time>2017-04-03T08:05:41Z</time>
      </trkpt>
      <trkpt lat="44.44141" lon="4.79858">
        <ele>185.19</ele>
        <time>2017-04-03T08:05:53Z</time>
      </trkpt>
      <trkpt lat="44.44138" lon="4.79866">
        <ele>185.19</ele>
        <time>2017-04-03T08:06:08Z</time>
      </trkpt>
      <trkpt lat="44.4414" lon="4.79867">
        <ele>186.15</ele>
        <time>2017-04-03T08:06:28Z</time>
      </trkpt>
      <trkpt lat="44.44138" lon="4.79861">
        <ele>185.19</ele>
        <time>2017-04-03T08:06:52Z</time>
      </trkpt>
      <trkpt lat="44.44137" lon="4.79856">
        <ele>184.71</ele>
        <time>2017-04-03T08:07:19Z</time>
      </trkpt>
      <trkpt lat="44.44142" lon="4.79847">
        <ele>184.71</ele>
        <time>2017-04-03T08:07:44Z</time>
      </trkpt>
      <trkpt lat="44.44143" lon="4.79845">
        <ele>184.71</ele>
        <time>2017-04-03T08:08:01Z</time>
      </trkpt>
      <trkpt lat="44.44143" lon="4.79841">
        <ele>186.15</ele>
        <time>2017-04-03T08:08:21Z</time>
      </trkpt>
      <trkpt lat="44.44144" lon="4.79841">
        <ele>186.15</ele>
        <time>2017-04-03T08:08:22Z</time>
      </trkpt>
      <trkpt lat="44.44143" lon="4.79844">
        <ele>184.71</ele>
        <time>2017-04-03T08:08:43Z</time>
      </trkpt>
      <trkpt lat="44.44145" lon="4.79846">
        <ele>184.71</ele>
        <time>2017-04-03T08:09:10Z</time>
      </trkpt>
      <trkpt lat="44.44145" lon="4.79843">
        <ele>185.19</ele>
        <time>2017-04-03T08:09:39Z</time>
      </trkpt>
      <trkpt lat="44.44144" lon="4.79839">
        <ele>184.71</ele>
        <time>2017-04-03T08:10:13Z</time>
      </trkpt>
      <trkpt lat="44.44143" lon="4.79841">
        <ele>183.75</ele>
        <time>2017-04-03T08:10:41Z</time>
      </trkpt>
      <trkpt lat="44.44144" lon="4.79841">
        <ele>185.19</ele>
        <time>2017-04-03T08:11:03Z</time>
      </trkpt>
      <trkpt lat="44.44145" lon="4.79842">
        <ele>184.23</ele>
        <time>2017-04-03T08:11:28Z</time>
      </trkpt>
      <trkpt lat="44.44144" lon="4.79841">
        <ele>185.67</ele>
        <time>2017-04-03T08:11:41Z</time>
      </trkpt>
      <trkpt lat="44.44141" lon="4.79839">
        <ele>184.71</ele>
        <time>2017-04-03T08:12:04Z</time>
      </trkpt>
      <trkpt lat="44.4414" lon="4.79839">
        <ele>184.71</ele>
        <time>2017-04-03T08:12:31Z</time>
      </trkpt>
      <trkpt lat="44.4414" lon="4.7984">
        <ele>184.71</ele>
        <time>2017-04-03T08:13:01Z</time>
      </trkpt>
      <trkpt lat="44.44141" lon="4.79839">
        <ele>184.71</ele>
        <time>2017-04-03T08:13:27Z</time>
      </trkpt>
      <trkpt lat="44.44143" lon="4.79841">
        <ele>184.23</ele>
        <time>2017-04-03T08:13:54Z</time>
      </trkpt>
      <trkpt lat="44.44143" lon="4.79841">
        <ele>184.23</ele>
        <time>2017-04-03T08:14:21Z</time>
      </trkpt>
      <trkpt lat="44.44144" lon="4.79842">
        <ele>183.75</ele>
        <time>2017-04-03T08:14:45Z</time>
      </trkpt>
      <trkpt lat="44.44144" lon="4.79842">
        <ele>184.71</ele>
        <time>2017-04-03T08:15:06Z</time>
      </trkpt>
      <trkpt lat="44.44144" lon="4.79842">
        <ele>183.75</ele>
        <time>2017-04-03T08:15:32Z</time>
      </trkpt>
      <trkpt lat="44.44144" lon="4.79842">
        <ele>185.19</ele>
        <time>2017-04-03T08:15:36Z</time>
      </trkpt>
      <trkpt lat="44.44144" lon="4.79841">
        <ele>185.19</ele>
        <time>2017-04-03T08:16:00Z</time>
      </trkpt>
      <trkpt lat="44.44144" lon="4.79841">
        <ele>185.19</ele>
        <time>2017-04-03T08:16:24Z</time>
      </trkpt>
      <trkpt lat="44.44143" lon="4.79841">
        <ele>183.27</ele>
        <time>2017-04-03T08:16:47Z</time>
      </trkpt>
      <trkpt lat="44.44143" lon="4.79841">
        <ele>184.71</ele>
        <time>2017-04-03T08:16:52Z</time>
      </trkpt>
      <trkpt lat="44.44142" lon="4.79841">
        <ele>184.71</ele>
        <time>2017-04-03T08:17:15Z</time>
      </trkpt>
      <trkpt lat="44.44143" lon="4.7984">
        <ele>184.23</ele>
        <time>2017-04-03T08:17:44Z</time>
      </trkpt>
      <trkpt lat="44.44143" lon="4.79839">
        <ele>184.23</ele>
        <time>2017-04-03T08:18:13Z</time>
      </trkpt>
      <trkpt lat="44.44143" lon="4.7984">
        <ele>184.23</ele>
        <time>2017-04-03T08:18:41Z</time>
      </trkpt>
      <trkpt lat="44.44144" lon="4.7984">
        <ele>183.75</ele>
        <time>2017-04-03T08:19:12Z</time>
      </trkpt>
      <trkpt lat="44.44143" lon="4.79841">
        <ele>183.75</ele>
        <time>2017-04-03T08:19:38Z</time>
      </trkpt>
      <trkpt lat="44.44144" lon="4.79844">
        <ele>183.75</ele>
        <time>2017-04-03T08:19:58Z</time>
      </trkpt>
      <trkpt lat="44.44144" lon="4.79843">
        <ele>183.27</ele>
        <time>2017-04-03T08:20:25Z</time>
      </trkpt>
      <trkpt lat="44.44144" lon="4.79843">
        <ele>184.71</ele>
        <time>2017-04-03T08:20:28Z</time>
      </trkpt>
      <trkpt lat="44.44143" lon="4.79844">
        <ele>184.71</ele>
        <time>2017-04-03T08:20:49Z</time>
      </trkpt>
      <trkpt lat="44.44143" lon="4.79845">
        <ele>183.75</ele>
        <time>2017-04-03T08:21:10Z</time>
      </trkpt>
      <trkpt lat="44.44143" lon="4.79845">
        <ele>186.15</ele>
        <time>2017-04-03T08:21:15Z</time>
      </trkpt>
      <trkpt lat="44.44143" lon="4.79845">
        <ele>184.23</ele>
        <time>2017-04-03T08:21:17Z</time>
      </trkpt>
      <trkpt lat="44.44143" lon="4.79847">
        <ele>184.23</ele>
        <time>2017-04-03T08:21:31Z</time>
      </trkpt>
      <trkpt lat="44.44142" lon="4.79845">
        <ele>185.19</ele>
        <time>2017-04-03T08:21:57Z</time>
      </trkpt>
      <trkpt lat="44.44144" lon="4.79839">
        <ele>185.19</ele>
        <time>2017-04-03T08:22:14Z</time>
      </trkpt>
      <trkpt lat="44.44147" lon="4.79838">
        <ele>185.19</ele>
        <time>2017-04-03T08:22:18Z</time>
      </trkpt>
      <trkpt lat="44.44159" lon="4.7984">
        <ele>187.11</ele>
        <time>2017-04-03T08:22:33Z</time>
      </trkpt>
      <trkpt lat="44.4417" lon="4.79839">
        <ele>188.08</ele>
        <time>2017-04-03T08:22:44Z</time>
      </trkpt>
      <trkpt lat="44.44181" lon="4.79836">
        <ele>190.48</ele>
        <time>2017-04-03T08:23:00Z</time>
      </trkpt>
      <trkpt lat="44.44193" lon="4.79834">
        <ele>192.88</ele>
        <time>2017-04-03T08:23:15Z</time>
      </trkpt>
      <trkpt lat="44.44203" lon="4.79834">
        <ele>195.28</ele>
        <time>2017-04-03T08:23:31Z</time>
      </trkpt>
      <trkpt lat="44.44213" lon="4.79834">
        <ele>197.69</ele>
        <time>2017-04-03T08:23:47Z</time>
      </trkpt>
      <trkpt lat="44.44226" lon="4.79835">
        <ele>201.05</ele>
        <time>2017-04-03T08:24:05Z</time>
      </trkpt>
      <trkpt lat="44.4423" lon="4.79832">
        <ele>202.49</ele>
        <time>2017-04-03T08:24:11Z</time>
      </trkpt>
      <trkpt lat="44.44238" lon="4.79823">
        <ele>203.46</ele>
        <time>2017-04-03T08:24:24Z</time>
      </trkpt>
      <trkpt lat="44.4425" lon="4.7981">
        <ele>204.9</ele>
        <time>2017-04-03T08:24:41Z</time>
      </trkpt>
      <trkpt lat="44.44261" lon="4.798">
        <ele>206.34</ele>
        <time>2017-04-03T08:24:56Z</time>
      </trkpt>
      <trkpt lat="44.44271" lon="4.7979">
        <ele>207.78</ele>
        <time>2017-04-03T08:25:10Z</time>
      </trkpt>
      <trkpt lat="44.4428" lon="4.79779">
        <ele>209.7</ele>
        <time>2017-04-03T08:25:25Z</time>
      </trkpt>
      <trkpt lat="44.4429" lon="4.79767">
        <ele>210.67</ele>
        <time>2017-04-03T08:25:41Z</time>
      </trkpt>
      <trkpt lat="44.44302" lon="4.79755">
        <ele>213.55</ele>
        <time>2017-04-03T08:25:59Z</time>
      </trkpt>
      <trkpt lat="44.44314" lon="4.79744">
        <ele>214.51</ele>
        <time>2017-04-03T08:26:14Z</time>
      </trkpt>
      <trkpt lat="44.44322" lon="4.79739">
        <ele>214.99</ele>
        <time>2017-04-03T08:26:24Z</time>
      </trkpt>
      <trkpt lat="44.44336" lon="4.79731">
        <ele>216.91</ele>
        <time>2017-04-03T08:26:38Z</time>
      </trkpt>
      <trkpt lat="44.4435" lon="4.79716">
        <ele>216.43</ele>
        <time>2017-04-03T08:26:54Z</time>
      </trkpt>
      <trkpt lat="44.44361" lon="4.79701">
        <ele>215.47</ele>
        <time>2017-04-03T08:27:07Z</time>
      </trkpt>
      <trkpt lat="44.44364" lon="4.79696">
        <ele>217.4</ele>
        <time>2017-04-03T08:27:11Z</time>
      </trkpt>
      <trkpt lat="44.44365" lon="4.79693">
        <ele>215.95</ele>
        <time>2017-04-03T08:27:14Z</time>
      </trkpt>
      <trkpt lat="44.44369" lon="4.79663">
        <ele>215.47</ele>
        <time>2017-04-03T08:27:32Z</time>
      </trkpt>
      <trkpt lat="44.4437" lon="4.79633">
        <ele>215.47</ele>
        <time>2017-04-03T08:27:51Z</time>
      </trkpt>
      <trkpt lat="44.44367" lon="4.79615">
        <ele>215.47</ele>
        <time>2017-04-03T08:28:05Z</time>
      </trkpt>
      <trkpt lat="44.44365" lon="4.79587">
        <ele>215.47</ele>
        <time>2017-04-03T08:28:24Z</time>
      </trkpt>
      <trkpt lat="44.44365" lon="4.79584">
        <ele>216.91</ele>
        <time>2017-04-03T08:28:27Z</time>
      </trkpt>
      <trkpt lat="44.44377" lon="4.79561">
        <ele>216.91</ele>
        <time>2017-04-03T08:28:47Z</time>
      </trkpt>
      <trkpt lat="44.44381" lon="4.79558">
        <ele>216.43</ele>
        <time>2017-04-03T08:28:52Z</time>
      </trkpt>
      <trkpt lat="44.44386" lon="4.79553">
        <ele>216.43</ele>
        <time>2017-04-03T08:28:58Z</time>
      </trkpt>
      <trkpt lat="44.44395" lon="4.79527">
        <ele>217.88</ele>
        <time>2017-04-03T08:29:17Z</time>
      </trkpt>
      <trkpt lat="44.44402" lon="4.79504">
        <ele>220.28</ele>
        <time>2017-04-03T08:29:35Z</time>
      </trkpt>
      <trkpt lat="44.44404" lon="4.79497">
        <ele>219.32</ele>
        <time>2017-04-03T08:29:41Z</time>
      </trkpt>
      <trkpt lat="44.4441" lon="4.7948">
        <ele>221.24</ele>
        <time>2017-04-03T08:29:56Z</time>
      </trkpt>
      <trkpt lat="44.4442" lon="4.79455">
        <ele>222.68</ele>
        <time>2017-04-03T08:30:16Z</time>
      </trkpt>
      <trkpt lat="44.44429" lon="4.79435">
        <ele>224.12</ele>
        <time>2017-04-03T08:30:32Z</time>
      </trkpt>
      <trkpt lat="44.44441" lon="4.79413">
        <ele>226.05</ele>
        <time>2017-04-03T08:30:53Z</time>
      </trkpt>
      <trkpt lat="44.44451" lon="4.79406">
        <ele>227.97</ele>
        <time>2017-04-03T08:31:08Z</time>
      </trkpt>
      <trkpt lat="44.44458" lon="4.79401">
        <ele>229.89</ele>
        <time>2017-04-03T08:31:22Z</time>
      </trkpt>
      <trkpt lat="44.4446" lon="4.79393">
        <ele>229.89</ele>
        <time>2017-04-03T08:31:28Z</time>
      </trkpt>
      <trkpt lat="44.44467" lon="4.7937">
        <ele>230.85</ele>
        <time>2017-04-03T08:31:46Z</time>
      </trkpt>
      <trkpt lat="44.44478" lon="4.79348">
        <ele>232.3</ele>
        <time>2017-04-03T08:32:06Z</time>
      </trkpt>
      <trkpt lat="44.44488" lon="4.79327">
        <ele>232.78</ele>
        <time>2017-04-03T08:32:22Z</time>
      </trkpt>
      <trkpt lat="44.44499" lon="4.79308">
        <ele>234.22</ele>
        <time>2017-04-03T08:32:38Z</time>
      </trkpt>
      <trkpt lat="44.44513" lon="4.79287">
        <ele>234.22</ele>
        <time>2017-04-03T08:32:58Z</time>
      </trkpt>
      <trkpt lat="44.44525" lon="4.79263">
        <ele>235.66</ele>
        <time>2017-04-03T08:33:19Z</time>
      </trkpt>
      <trkpt lat="44.44541" lon="4.79244">
        <ele>237.58</ele>
        <time>2017-04-03T08:33:40Z</time>
      </trkpt>
      <trkpt lat="44.44551" lon="4.79241">
        <ele>238.06</ele>
        <time>2017-04-03T08:33:53Z</time>
      </trkpt>
      <trkpt lat="44.44556" lon="4.79241">
        <ele>237.1</ele>
        <time>2017-04-03T08:34:01Z</time>
      </trkpt>
      <trkpt lat="44.44568" lon="4.79235">
        <ele>235.66</ele>
        <time>2017-04-03T08:34:17Z</time>
      </trkpt>
      <trkpt lat="44.44574" lon="4.79232">
        <ele>234.7</ele>
        <time>2017-04-03T08:34:32Z</time>
      </trkpt>
      <trkpt lat="44.44575" lon="4.7923">
        <ele>234.22</ele>
        <time>2017-04-03T08:34:49Z</time>
      </trkpt>
      <trkpt lat="44.44575" lon="4.7923">
        <ele>235.66</ele>
        <time>2017-04-03T08:35:03Z</time>
      </trkpt>
      <trkpt lat="44.44581" lon="4.79227">
        <ele>234.22</ele>
        <time>2017-04-03T08:35:12Z</time>
      </trkpt>
      <trkpt lat="44.44592" lon="4.79223">
        <ele>234.22</ele>
        <time>2017-04-03T08:35:25Z</time>
      </trkpt>
      <trkpt lat="44.44601" lon="4.79219">
        <ele>232.78</ele>
        <time>2017-04-03T08:35:40Z</time>
      </trkpt>
      <trkpt lat="44.44609" lon="4.79213">
        <ele>230.37</ele>
        <time>2017-04-03T08:35:54Z</time>
      </trkpt>
      <trkpt lat="44.4462" lon="4.79208">
        <ele>227.97</ele>
        <time>2017-04-03T08:36:09Z</time>
      </trkpt>
      <trkpt lat="44.44632" lon="4.79207">
        <ele>227.01</ele>
        <time>2017-04-03T08:36:24Z</time>
      </trkpt>
      <trkpt lat="44.4464" lon="4.79197">
        <ele>225.09</ele>
        <time>2017-04-03T08:36:37Z</time>
      </trkpt>
      <trkpt lat="44.44645" lon="4.79185">
        <ele>221.72</ele>
        <time>2017-04-03T08:36:50Z</time>
      </trkpt>
      <trkpt lat="44.4465" lon="4.7917">
        <ele>221.24</ele>
        <time>2017-04-03T08:37:05Z</time>
      </trkpt>
      <trkpt lat="44.44657" lon="4.79151">
        <ele>221.24</ele>
        <time>2017-04-03T08:37:20Z</time>
      </trkpt>
      <trkpt lat="44.44662" lon="4.79123">
        <ele>224.12</ele>
        <time>2017-04-03T08:37:39Z</time>
      </trkpt>
      <trkpt lat="44.44662" lon="4.79117">
        <ele>224.61</ele>
        <time>2017-04-03T08:37:43Z</time>
      </trkpt>
      <trkpt lat="44.4466" lon="4.7909">
        <ele>225.09</ele>
        <time>2017-04-03T08:38:00Z</time>
      </trkpt>
      <trkpt lat="44.44661" lon="4.79084">
        <ele>224.12</ele>
        <time>2017-04-03T08:38:05Z</time>
      </trkpt>
      <trkpt lat="44.44665" lon="4.79063">
        <ele>223.16</ele>
        <time>2017-04-03T08:38:22Z</time>
      </trkpt>
      <trkpt lat="44.44659" lon="4.79058">
        <ele>223.16</ele>
        <time>2017-04-03T08:38:28Z</time>
      </trkpt>
      <trkpt lat="44.44646" lon="4.79057">
        <ele>224.12</ele>
        <time>2017-04-03T08:38:43Z</time>
      </trkpt>
      <trkpt lat="44.44639" lon="4.79051">
        <ele>225.09</ele>
        <time>2017-04-03T08:38:51Z</time>
      </trkpt>
      <trkpt lat="44.44622" lon="4.79029">
        <ele>226.53</ele>
        <time>2017-04-03T08:39:13Z</time>
      </trkpt>
      <trkpt lat="44.4461" lon="4.79008">
        <ele>227.01</ele>
        <time>2017-04-03T08:39:32Z</time>
      </trkpt>
      <trkpt lat="44.44604" lon="4.78997">
        <ele>227.97</ele>
        <time>2017-04-03T08:39:42Z</time>
      </trkpt>
      <trkpt lat="44.44586" lon="4.78981">
        <ele>229.89</ele>
        <time>2017-04-03T08:40:01Z</time>
      </trkpt>
      <trkpt lat="44.44572" lon="4.78963">
        <ele>231.33</ele>
        <time>2017-04-03T08:40:20Z</time>
      </trkpt>
      <trkpt lat="44.44565" lon="4.78946">
        <ele>233.74</ele>
        <time>2017-04-03T08:40:36Z</time>
      </trkpt>
      <trkpt lat="44.44559" lon="4.78925">
        <ele>235.18</ele>
        <time>2017-04-03T08:40:56Z</time>
      </trkpt>
      <trkpt lat="44.44554" lon="4.78903">
        <ele>238.06</ele>
        <time>2017-04-03T08:41:15Z</time>
      </trkpt>
      <trkpt lat="44.44552" lon="4.78887">
        <ele>239.02</ele>
        <time>2017-04-03T08:41:30Z</time>
      </trkpt>
      <trkpt lat="44.4455" lon="4.78864">
        <ele>239.02</ele>
        <time>2017-04-03T08:41:46Z</time>
      </trkpt>
      <trkpt lat="44.44543" lon="4.78843">
        <ele>236.62</ele>
        <time>2017-04-03T08:42:02Z</time>
      </trkpt>
      <trkpt lat="44.44531" lon="4.78824">
        <ele>235.66</ele>
        <time>2017-04-03T08:42:18Z</time>
      </trkpt>
      <trkpt lat="44.44522" lon="4.78803">
        <ele>235.66</ele>
        <time>2017-04-03T08:42:36Z</time>
      </trkpt>
      <trkpt lat="44.44511" lon="4.78785">
        <ele>235.66</ele>
        <time>2017-04-03T08:42:51Z</time>
      </trkpt>
      <trkpt lat="44.44509" lon="4.78783">
        <ele>237.1</ele>
        <time>2017-04-03T08:42:53Z</time>
      </trkpt>
      <trkpt lat="44.44502" lon="4.78777">
        <ele>237.58</ele>
        <time>2017-04-03T08:43:09Z</time>
      </trkpt>
      <trkpt lat="44.445" lon="4.78773">
        <ele>237.1</ele>
        <time>2017-04-03T08:43:39Z</time>
      </trkpt>
      <trkpt lat="44.44499" lon="4.78774">
        <ele>237.1</ele>
        <time>2017-04-03T08:44:01Z</time>
      </trkpt>
      <trkpt lat="44.44497" lon="4.78772">
        <ele>236.14</ele>
        <time>2017-04-03T08:44:19Z</time>
      </trkpt>
      <trkpt lat="44.44484" lon="4.78773">
        <ele>235.66</ele>
        <time>2017-04-03T08:44:38Z</time>
      </trkpt>
      <trkpt lat="44.44471" lon="4.78774">
        <ele>233.74</ele>
        <time>2017-04-03T08:44:54Z</time>
      </trkpt>
      <trkpt lat="44.44457" lon="4.78772">
        <ele>231.81</ele>
        <time>2017-04-03T08:45:09Z</time>
      </trkpt>
      <trkpt lat="44.44446" lon="4.78769">
        <ele>231.81</ele>
        <time>2017-04-03T08:45:23Z</time>
      </trkpt>
      <trkpt lat="44.4443" lon="4.78763">
        <ele>233.26</ele>
        <time>2017-04-03T08:45:37Z</time>
      </trkpt>
      <trkpt lat="44.44429" lon="4.78763">
        <ele>233.26</ele>
        <time>2017-04-03T08:45:38Z</time>
      </trkpt>
      <trkpt lat="44.44419" lon="4.78758">
        <ele>233.26</ele>
        <time>2017-04-03T08:45:48Z</time>
      </trkpt>
      <trkpt lat="44.44397" lon="4.78752">
        <ele>234.22</ele>
        <time>2017-04-03T08:46:07Z</time>
      </trkpt>
      <trkpt lat="44.44379" lon="4.78747">
        <ele>234.7</ele>
        <time>2017-04-03T08:46:25Z</time>
      </trkpt>
      <trkpt lat="44.44363" lon="4.78743">
        <ele>236.14</ele>
        <time>2017-04-03T08:46:41Z</time>
      </trkpt>
      <trkpt lat="44.44349" lon="4.78744">
        <ele>236.62</ele>
        <time>2017-04-03T08:46:54Z</time>
      </trkpt>
      <trkpt lat="44.44332" lon="4.78752">
        <ele>238.06</ele>
        <time>2017-04-03T08:47:11Z</time>
      </trkpt>
      <trkpt lat="44.44317" lon="4.78758">
        <ele>240.95</ele>
        <time>2017-04-03T08:47:26Z</time>
      </trkpt>
      <trkpt lat="44.44315" lon="4.78758">
        <ele>240.95</ele>
        <time>2017-04-03T08:47:28Z</time>
      </trkpt>
      <trkpt lat="44.4431" lon="4.7876">
        <ele>239.99</ele>
        <time>2017-04-03T08:47:34Z</time>
      </trkpt>
      <trkpt lat="44.44303" lon="4.78761">
        <ele>241.91</ele>
        <time>2017-04-03T08:47:41Z</time>
      </trkpt>
      <trkpt lat="44.44283" lon="4.78763">
        <ele>242.39</ele>
        <time>2017-04-03T08:48:01Z</time>
      </trkpt>
      <trkpt lat="44.44273" lon="4.78757">
        <ele>243.83</ele>
        <time>2017-04-03T08:48:10Z</time>
      </trkpt>
      <trkpt lat="44.4426" lon="4.78745">
        <ele>244.31</ele>
        <time>2017-04-03T08:48:26Z</time>
      </trkpt>
      <trkpt lat="44.44259" lon="4.78745">
        <ele>244.31</ele>
        <time>2017-04-03T08:48:27Z</time>
      </trkpt>
      <trkpt lat="44.44249" lon="4.78729">
        <ele>244.31</ele>
        <time>2017-04-03T08:48:44Z</time>
      </trkpt>
      <trkpt lat="44.44244" lon="4.78717">
        <ele>243.35</ele>
        <time>2017-04-03T08:48:53Z</time>
      </trkpt>
      <trkpt lat="44.44238" lon="4.78699">
        <ele>239.51</ele>
        <time>2017-04-03T08:49:09Z</time>
      </trkpt>
      <trkpt lat="44.44237" lon="4.78697">
        <ele>245.27</ele>
        <time>2017-04-03T08:49:11Z</time>
      </trkpt>
      <trkpt lat="44.44237" lon="4.78696">
        <ele>242.39</ele>
        <time>2017-04-03T08:49:12Z</time>
      </trkpt>
      <trkpt lat="44.4423" lon="4.78678">
        <ele>240.47</ele>
        <time>2017-04-03T08:49:30Z</time>
      </trkpt>
      <trkpt lat="44.4423" lon="4.78673">
        <ele>241.43</ele>
        <time>2017-04-03T08:49:37Z</time>
      </trkpt>
      <trkpt lat="44.44229" lon="4.78672">
        <ele>239.99</ele>
        <time>2017-04-03T08:49:48Z</time>
      </trkpt>
      <trkpt lat="44.44231" lon="4.78671">
        <ele>243.83</ele>
        <time>2017-04-03T08:49:50Z</time>
      </trkpt>
      <trkpt lat="44.4423" lon="4.78668">
        <ele>240.47</ele>
        <time>2017-04-03T08:49:56Z</time>
      </trkpt>
      <trkpt lat="44.4423" lon="4.78664">
        <ele>241.43</ele>
        <time>2017-04-03T08:50:21Z</time>
      </trkpt>
      <trkpt lat="44.44236" lon="4.78659">
        <ele>241.43</ele>
        <time>2017-04-03T08:50:30Z</time>
      </trkpt>
      <trkpt lat="44.44246" lon="4.78655">
        <ele>242.87</ele>
        <time>2017-04-03T08:50:42Z</time>
      </trkpt>
      <trkpt lat="44.44261" lon="4.78655">
        <ele>245.75</ele>
        <time>2017-04-03T08:50:59Z</time>
      </trkpt>
      <trkpt lat="44.44275" lon="4.78655">
        <ele>247.2</ele>
        <time>2017-04-03T08:51:17Z</time>
      </trkpt>
      <trkpt lat="44.44274" lon="4.78656">
        <ele>246.23</ele>
        <time>2017-04-03T08:51:34Z</time>
      </trkpt>
      <trkpt lat="44.44276" lon="4.78656">
        <ele>247.68</ele>
        <time>2017-04-03T08:51:36Z</time>
      </trkpt>
      <trkpt lat="44.44285" lon="4.78656">
        <ele>249.12</ele>
        <time>2017-04-03T08:51:46Z</time>
      </trkpt>
      <trkpt lat="44.44287" lon="4.78656">
        <ele>247.68</ele>
        <time>2017-04-03T08:51:48Z</time>
      </trkpt>
      <trkpt lat="44.44291" lon="4.78657">
        <ele>249.12</ele>
        <time>2017-04-03T08:51:51Z</time>
      </trkpt>
      <trkpt lat="44.44302" lon="4.78662">
        <ele>250.56</ele>
        <time>2017-04-03T08:52:00Z</time>
      </trkpt>
      <trkpt lat="44.44318" lon="4.7867">
        <ele>252.48</ele>
        <time>2017-04-03T08:52:17Z</time>
      </trkpt>
      <trkpt lat="44.44327" lon="4.78668">
        <ele>254.89</ele>
        <time>2017-04-03T08:52:36Z</time>
      </trkpt>
      <trkpt lat="44.44338" lon="4.78663">
        <ele>253.44</ele>
        <time>2017-04-03T08:52:52Z</time>
      </trkpt>
      <trkpt lat="44.4434" lon="4.78661">
        <ele>254.89</ele>
        <time>2017-04-03T08:52:55Z</time>
      </trkpt>
      <trkpt lat="44.44342" lon="4.7866">
        <ele>253.44</ele>
        <time>2017-04-03T08:52:58Z</time>
      </trkpt>
      <trkpt lat="44.44345" lon="4.78659">
        <ele>255.37</ele>
        <time>2017-04-03T08:53:01Z</time>
      </trkpt>
      <trkpt lat="44.44354" lon="4.78658">
        <ele>256.33</ele>
        <time>2017-04-03T08:53:12Z</time>
      </trkpt>
      <trkpt lat="44.44367" lon="4.78656">
        <ele>257.29</ele>
        <time>2017-04-03T08:53:28Z</time>
      </trkpt>
      <trkpt lat="44.4437" lon="4.78656">
        <ele>255.85</ele>
        <time>2017-04-03T08:53:31Z</time>
      </trkpt>
      <trkpt lat="44.44372" lon="4.78656">
        <ele>257.77</ele>
        <time>2017-04-03T08:53:33Z</time>
      </trkpt>
      <trkpt lat="44.44383" lon="4.78656">
        <ele>259.69</ele>
        <time>2017-04-03T08:53:49Z</time>
      </trkpt>
      <trkpt lat="44.44388" lon="4.78655">
        <ele>258.25</ele>
        <time>2017-04-03T08:53:54Z</time>
      </trkpt>
      <trkpt lat="44.44392" lon="4.78655">
        <ele>260.17</ele>
        <time>2017-04-03T08:53:58Z</time>
      </trkpt>
      <trkpt lat="44.44408" lon="4.78658">
        <ele>261.14</ele>
        <time>2017-04-03T08:54:14Z</time>
      </trkpt>
      <trkpt lat="44.44413" lon="4.78661">
        <ele>259.69</ele>
        <time>2017-04-03T08:54:20Z</time>
      </trkpt>
      <trkpt lat="44.44417" lon="4.78662">
        <ele>262.58</ele>
        <time>2017-04-03T08:54:23Z</time>
      </trkpt>
      <trkpt lat="44.44418" lon="4.78662">
        <ele>262.58</ele>
        <time>2017-04-03T08:54:24Z</time>
      </trkpt>
      <trkpt lat="44.4442" lon="4.78663">
        <ele>261.14</ele>
        <time>2017-04-03T08:54:26Z</time>
      </trkpt>
      <trkpt lat="44.44424" lon="4.78664">
        <ele>257.77</ele>
        <time>2017-04-03T08:54:29Z</time>
      </trkpt>
      <trkpt lat="44.44431" lon="4.78667">
        <ele>260.65</ele>
        <time>2017-04-03T08:54:36Z</time>
      </trkpt>
      <trkpt lat="44.44445" lon="4.7867">
        <ele>259.69</ele>
        <time>2017-04-03T08:54:50Z</time>
      </trkpt>
      <trkpt lat="44.4446" lon="4.78673">
        <ele>260.65</ele>
        <time>2017-04-03T08:55:03Z</time>
      </trkpt>
      <trkpt lat="44.44466" lon="4.78675">
        <ele>257.77</ele>
        <time>2017-04-03T08:55:08Z</time>
      </trkpt>
      <trkpt lat="44.44468" lon="4.78675">
        <ele>260.65</ele>
        <time>2017-04-03T08:55:10Z</time>
      </trkpt>
      <trkpt lat="44.4447" lon="4.78675">
        <ele>256.81</ele>
        <time>2017-04-03T08:55:12Z</time>
      </trkpt>
      <trkpt lat="44.4447" lon="4.78675">
        <ele>256.81</ele>
        <time>2017-04-03T08:55:13Z</time>
      </trkpt>
      <trkpt lat="44.44474" lon="4.78677">
        <ele>260.65</ele>
        <time>2017-04-03T08:55:16Z</time>
      </trkpt>
      <trkpt lat="44.44479" lon="4.78676">
        <ele>259.21</ele>
        <time>2017-04-03T08:55:22Z</time>
      </trkpt>
      <trkpt lat="44.44482" lon="4.78677">
        <ele>262.58</ele>
        <time>2017-04-03T08:55:25Z</time>
      </trkpt>
      <trkpt lat="44.44485" lon="4.78677">
        <ele>259.21</ele>
        <time>2017-04-03T08:55:29Z</time>
      </trkpt>
      <trkpt lat="44.44486" lon="4.78677">
        <ele>259.69</ele>
        <time>2017-04-03T08:55:30Z</time>
      </trkpt>
      <trkpt lat="44.44488" lon="4.78677">
        <ele>261.62</ele>
        <time>2017-04-03T08:55:32Z</time>
      </trkpt>
      <trkpt lat="44.44492" lon="4.78677">
        <ele>262.1</ele>
        <time>2017-04-03T08:55:36Z</time>
      </trkpt>
      <trkpt lat="44.44514" lon="4.78688">
        <ele>262.58</ele>
        <time>2017-04-03T08:55:58Z</time>
      </trkpt>
      <trkpt lat="44.44533" lon="4.78696">
        <ele>264.98</ele>
        <time>2017-04-03T08:56:19Z</time>
      </trkpt>
      <trkpt lat="44.44541" lon="4.78701">
        <ele>266.42</ele>
        <time>2017-04-03T08:56:27Z</time>
      </trkpt>
      <trkpt lat="44.44557" lon="4.78715">
        <ele>266.42</ele>
        <time>2017-04-03T08:56:44Z</time>
      </trkpt>
      <trkpt lat="44.44564" lon="4.7872">
        <ele>265.94</ele>
        <time>2017-04-03T08:56:51Z</time>
      </trkpt>
      <trkpt lat="44.44566" lon="4.78722">
        <ele>268.35</ele>
        <time>2017-04-03T08:56:58Z</time>
      </trkpt>
      <trkpt lat="44.44568" lon="4.78724">
        <ele>265.94</ele>
        <time>2017-04-03T08:57:01Z</time>
      </trkpt>
      <trkpt lat="44.44576" lon="4.7873">
        <ele>266.42</ele>
        <time>2017-04-03T08:57:09Z</time>
      </trkpt>
      <trkpt lat="44.44585" lon="4.78737">
        <ele>265.46</ele>
        <time>2017-04-03T08:57:19Z</time>
      </trkpt>
      <trkpt lat="44.44602" lon="4.78751">
        <ele>267.38</ele>
        <time>2017-04-03T08:57:39Z</time>
      </trkpt>
      <trkpt lat="44.44615" lon="4.7876">
        <ele>270.27</ele>
        <time>2017-04-03T08:57:53Z</time>
      </trkpt>
      <trkpt lat="44.44617" lon="4.78761">
        <ele>268.83</ele>
        <time>2017-04-03T08:57:55Z</time>
      </trkpt>
      <trkpt lat="44.44623" lon="4.78769">
        <ele>270.75</ele>
        <time>2017-04-03T08:58:05Z</time>
      </trkpt>
      <trkpt lat="44.44624" lon="4.7877">
        <ele>269.79</ele>
        <time>2017-04-03T08:58:07Z</time>
      </trkpt>
      <trkpt lat="44.44627" lon="4.78772">
        <ele>271.71</ele>
        <time>2017-04-03T08:58:11Z</time>
      </trkpt>
      <trkpt lat="44.44632" lon="4.78775">
        <ele>269.79</ele>
        <time>2017-04-03T08:58:17Z</time>
      </trkpt>
      <trkpt lat="44.44634" lon="4.78777">
        <ele>271.71</ele>
        <time>2017-04-03T08:58:20Z</time>
      </trkpt>
      <trkpt lat="44.44641" lon="4.78781">
        <ele>272.67</ele>
        <time>2017-04-03T08:58:28Z</time>
      </trkpt>
      <trkpt lat="44.44642" lon="4.78782">
        <ele>271.23</ele>
        <time>2017-04-03T08:58:29Z</time>
      </trkpt>
      <trkpt lat="44.44645" lon="4.78784">
        <ele>273.15</ele>
        <time>2017-04-03T08:58:32Z</time>
      </trkpt>
      <trkpt lat="44.4465" lon="4.78786">
        <ele>271.71</ele>
        <time>2017-04-03T08:58:36Z</time>
      </trkpt>
      <trkpt lat="44.44652" lon="4.78787">
        <ele>273.63</ele>
        <time>2017-04-03T08:58:38Z</time>
      </trkpt>
      <trkpt lat="44.44656" lon="4.78788">
        <ele>273.15</ele>
        <time>2017-04-03T08:58:43Z</time>
      </trkpt>
      <trkpt lat="44.44659" lon="4.7879">
        <ele>271.71</ele>
        <time>2017-04-03T08:59:04Z</time>
      </trkpt>
      <trkpt lat="44.44659" lon="4.7879">
        <ele>271.71</ele>
        <time>2017-04-03T08:59:05Z</time>
      </trkpt>
      <trkpt lat="44.44669" lon="4.78792">
        <ele>273.15</ele>
        <time>2017-04-03T08:59:15Z</time>
      </trkpt>
      <trkpt lat="44.44673" lon="4.78793">
        <ele>273.15</ele>
        <time>2017-04-03T08:59:20Z</time>
      </trkpt>
      <trkpt lat="44.4469" lon="4.78797">
        <ele>272.19</ele>
        <time>2017-04-03T08:59:36Z</time>
      </trkpt>
      <trkpt lat="44.44691" lon="4.78798">
        <ele>272.19</ele>
        <time>2017-04-03T08:59:37Z</time>
      </trkpt>
      <trkpt lat="44.44698" lon="4.788">
        <ele>273.63</ele>
        <time>2017-04-03T08:59:44Z</time>
      </trkpt>
      <trkpt lat="44.44711" lon="4.78808">
        <ele>273.63</ele>
        <time>2017-04-03T08:59:59Z</time>
      </trkpt>
      <trkpt lat="44.4472" lon="4.78815">
        <ele>272.19</ele>
        <time>2017-04-03T09:00:08Z</time>
      </trkpt>
      <trkpt lat="44.44728" lon="4.78817">
        <ele>269.31</ele>
        <time>2017-04-03T09:00:18Z</time>
      </trkpt>
      <trkpt lat="44.44731" lon="4.78818">
        <ele>271.23</ele>
        <time>2017-04-03T09:00:21Z</time>
      </trkpt>
      <trkpt lat="44.44733" lon="4.78818">
        <ele>270.75</ele>
        <time>2017-04-03T09:00:23Z</time>
      </trkpt>
      <trkpt lat="44.44735" lon="4.78818">
        <ele>269.79</ele>
        <time>2017-04-03T09:00:25Z</time>
      </trkpt>
      <trkpt lat="44.44749" lon="4.78817">
        <ele>269.79</ele>
        <time>2017-04-03T09:00:40Z</time>
      </trkpt>
      <trkpt lat="44.44768" lon="4.78809">
        <ele>266.9</ele>
        <time>2017-04-03T09:00:57Z</time>
      </trkpt>
      <trkpt lat="44.44785" lon="4.788">
        <ele>264.5</ele>
        <time>2017-04-03T09:01:11Z</time>
      </trkpt>
      <trkpt lat="44.44785" lon="4.78799">
        <ele>264.5</ele>
        <time>2017-04-03T09:01:12Z</time>
      </trkpt>
      <trkpt lat="44.4479" lon="4.78795">
        <ele>265.94</ele>
        <time>2017-04-03T09:01:17Z</time>
      </trkpt>
      <trkpt lat="44.44809" lon="4.78783">
        <ele>263.54</ele>
        <time>2017-04-03T09:01:37Z</time>
      </trkpt>
      <trkpt lat="44.44816" lon="4.7878">
        <ele>264.02</ele>
        <time>2017-04-03T09:01:45Z</time>
      </trkpt>
      <trkpt lat="44.44817" lon="4.78779">
        <ele>262.1</ele>
        <time>2017-04-03T09:01:47Z</time>
      </trkpt>
      <trkpt lat="44.44832" lon="4.78769">
        <ele>261.14</ele>
        <time>2017-04-03T09:02:05Z</time>
      </trkpt>
      <trkpt lat="44.44841" lon="4.78764">
        <ele>258.73</ele>
        <time>2017-04-03T09:02:14Z</time>
      </trkpt>
      <trkpt lat="44.44843" lon="4.78763">
        <ele>259.69</ele>
        <time>2017-04-03T09:02:16Z</time>
      </trkpt>
      <trkpt lat="44.4486" lon="4.78753">
        <ele>260.17</ele>
        <time>2017-04-03T09:02:31Z</time>
      </trkpt>
      <trkpt lat="44.44873" lon="4.78746">
        <ele>256.81</ele>
        <time>2017-04-03T09:02:43Z</time>
      </trkpt>
      <trkpt lat="44.44874" lon="4.78745">
        <ele>256.81</ele>
        <time>2017-04-03T09:02:44Z</time>
      </trkpt>
      <trkpt lat="44.44884" lon="4.78734">
        <ele>260.17</ele>
        <time>2017-04-03T09:02:58Z</time>
      </trkpt>
      <trkpt lat="44.44886" lon="4.78733">
        <ele>260.65</ele>
        <time>2017-04-03T09:03:00Z</time>
      </trkpt>
      <trkpt lat="44.44888" lon="4.7873">
        <ele>259.69</ele>
        <time>2017-04-03T09:03:03Z</time>
      </trkpt>
      <trkpt lat="44.44894" lon="4.78721">
        <ele>261.62</ele>
        <time>2017-04-03T09:03:13Z</time>
      </trkpt>
      <trkpt lat="44.449" lon="4.78712">
        <ele>263.06</ele>
        <time>2017-04-03T09:03:23Z</time>
      </trkpt>
      <trkpt lat="44.44902" lon="4.78708">
        <ele>261.62</ele>
        <time>2017-04-03T09:03:27Z</time>
      </trkpt>
      <trkpt lat="44.44909" lon="4.78698">
        <ele>264.98</ele>
        <time>2017-04-03T09:03:39Z</time>
      </trkpt>
      <trkpt lat="44.44918" lon="4.78686">
        <ele>266.9</ele>
        <time>2017-04-03T09:03:54Z</time>
      </trkpt>
      <trkpt lat="44.44926" lon="4.78676">
        <ele>267.86</ele>
        <time>2017-04-03T09:04:05Z</time>
      </trkpt>
      <trkpt lat="44.44939" lon="4.78662">
        <ele>268.83</ele>
        <time>2017-04-03T09:04:20Z</time>
      </trkpt>
      <trkpt lat="44.44953" lon="4.78647">
        <ele>270.75</ele>
        <time>2017-04-03T09:04:38Z</time>
      </trkpt>
      <trkpt lat="44.44964" lon="4.78634">
        <ele>271.71</ele>
        <time>2017-04-03T09:04:54Z</time>
      </trkpt>
      <trkpt lat="44.44972" lon="4.78623">
        <ele>272.67</ele>
        <time>2017-04-03T09:05:07Z</time>
      </trkpt>
      <trkpt lat="44.44981" lon="4.78609">
        <ele>274.59</ele>
        <time>2017-04-03T09:05:22Z</time>
      </trkpt>
      <trkpt lat="44.44988" lon="4.78598">
        <ele>276.04</ele>
        <time>2017-04-03T09:05:33Z</time>
      </trkpt>
      <trkpt lat="44.44999" lon="4.78584">
        <ele>277</ele>
        <time>2017-04-03T09:05:49Z</time>
      </trkpt>
      <trkpt lat="44.45013" lon="4.78572">
        <ele>278.92</ele>
        <time>2017-04-03T09:06:07Z</time>
      </trkpt>
      <trkpt lat="44.45021" lon="4.78562">
        <ele>280.36</ele>
        <time>2017-04-03T09:06:23Z</time>
      </trkpt>
      <trkpt lat="44.45031" lon="4.78549">
        <ele>283.73</ele>
        <time>2017-04-03T09:06:38Z</time>
      </trkpt>
      <trkpt lat="44.45039" lon="4.78538">
        <ele>285.65</ele>
        <time>2017-04-03T09:06:55Z</time>
      </trkpt>
      <trkpt lat="44.45048" lon="4.78528">
        <ele>287.57</ele>
        <time>2017-04-03T09:07:09Z</time>
      </trkpt>
      <trkpt lat="44.45052" lon="4.78524">
        <ele>287.57</ele>
        <time>2017-04-03T09:07:24Z</time>
      </trkpt>
      <trkpt lat="44.45054" lon="4.78523">
        <ele>287.57</ele>
        <time>2017-04-03T09:07:43Z</time>
      </trkpt>
      <trkpt lat="44.45053" lon="4.78523">
        <ele>287.57</ele>
        <time>2017-04-03T09:08:00Z</time>
      </trkpt>
      <trkpt lat="44.45054" lon="4.78524">
        <ele>287.57</ele>
        <time>2017-04-03T09:08:19Z</time>
      </trkpt>
      <trkpt lat="44.45054" lon="4.78524">
        <ele>288.05</ele>
        <time>2017-04-03T09:08:33Z</time>
      </trkpt>
      <trkpt lat="44.45054" lon="4.78524">
        <ele>287.57</ele>
        <time>2017-04-03T09:08:43Z</time>
      </trkpt>
      <trkpt lat="44.45056" lon="4.78522">
        <ele>287.09</ele>
        <time>2017-04-03T09:09:07Z</time>
      </trkpt>
      <trkpt lat="44.45057" lon="4.78519">
        <ele>288.05</ele>
        <time>2017-04-03T09:09:34Z</time>
      </trkpt>
      <trkpt lat="44.45064" lon="4.78516">
        <ele>288.53</ele>
        <time>2017-04-03T09:09:51Z</time>
      </trkpt>
      <trkpt lat="44.45063" lon="4.78519">
        <ele>288.53</ele>
        <time>2017-04-03T09:10:14Z</time>
      </trkpt>
      <trkpt lat="44.45069" lon="4.78514">
        <ele>289.97</ele>
        <time>2017-04-03T09:10:31Z</time>
      </trkpt>
      <trkpt lat="44.4508" lon="4.78506">
        <ele>289.97</ele>
        <time>2017-04-03T09:10:48Z</time>
      </trkpt>
      <trkpt lat="44.45089" lon="4.78496">
        <ele>289.97</ele>
        <time>2017-04-03T09:11:02Z</time>
      </trkpt>
      <trkpt lat="44.451" lon="4.78488">
        <ele>292.38</ele>
        <time>2017-04-03T09:11:16Z</time>
      </trkpt>
      <trkpt lat="44.45112" lon="4.78477">
        <ele>292.86</ele>
        <time>2017-04-03T09:11:32Z</time>
      </trkpt>
      <trkpt lat="44.4512" lon="4.78467">
        <ele>293.82</ele>
        <time>2017-04-03T09:11:47Z</time>
      </trkpt>
      <trkpt lat="44.4513" lon="4.78454">
        <ele>294.3</ele>
        <time>2017-04-03T09:12:02Z</time>
      </trkpt>
      <trkpt lat="44.45143" lon="4.78441">
        <ele>295.26</ele>
        <time>2017-04-03T09:12:18Z</time>
      </trkpt>
      <trkpt lat="44.45154" lon="4.78431">
        <ele>297.18</ele>
        <time>2017-04-03T09:12:32Z</time>
      </trkpt>
      <trkpt lat="44.45168" lon="4.78422">
        <ele>298.63</ele>
        <time>2017-04-03T09:12:48Z</time>
      </trkpt>
      <trkpt lat="44.45179" lon="4.78416">
        <ele>300.07</ele>
        <time>2017-04-03T09:13:02Z</time>
      </trkpt>
      <trkpt lat="44.45193" lon="4.78404">
        <ele>301.51</ele>
        <time>2017-04-03T09:13:18Z</time>
      </trkpt>
      <trkpt lat="44.45199" lon="4.78388">
        <ele>301.99</ele>
        <time>2017-04-03T09:13:34Z</time>
      </trkpt>
      <trkpt lat="44.45198" lon="4.78373">
        <ele>303.43</ele>
        <time>2017-04-03T09:13:49Z</time>
      </trkpt>
      <trkpt lat="44.45192" lon="4.78354">
        <ele>304.39</ele>
        <time>2017-04-03T09:14:03Z</time>
      </trkpt>
      <trkpt lat="44.45186" lon="4.78338">
        <ele>305.36</ele>
        <time>2017-04-03T09:14:15Z</time>
      </trkpt>
      <trkpt lat="44.45183" lon="4.78334">
        <ele>305.36</ele>
        <time>2017-04-03T09:14:19Z</time>
      </trkpt>
      <trkpt lat="44.45171" lon="4.78322">
        <ele>306.32</ele>
        <time>2017-04-03T09:14:35Z</time>
      </trkpt>
      <trkpt lat="44.45164" lon="4.78311">
        <ele>307.28</ele>
        <time>2017-04-03T09:14:47Z</time>
      </trkpt>
      <trkpt lat="44.45153" lon="4.783">
        <ele>308.72</ele>
        <time>2017-04-03T09:15:03Z</time>
      </trkpt>
      <trkpt lat="44.45144" lon="4.78298">
        <ele>310.16</ele>
        <time>2017-04-03T09:15:18Z</time>
      </trkpt>
      <trkpt lat="44.45134" lon="4.78298">
        <ele>311.6</ele>
        <time>2017-04-03T09:15:32Z</time>
      </trkpt>
      <trkpt lat="44.45122" lon="4.78291">
        <ele>314.01</ele>
        <time>2017-04-03T09:15:48Z</time>
      </trkpt>
      <trkpt lat="44.45115" lon="4.78278">
        <ele>314.97</ele>
        <time>2017-04-03T09:16:01Z</time>
      </trkpt>
      <trkpt lat="44.45106" lon="4.78265">
        <ele>315.45</ele>
        <time>2017-04-03T09:16:15Z</time>
      </trkpt>
      <trkpt lat="44.45105" lon="4.78264">
        <ele>315.45</ele>
        <time>2017-04-03T09:16:17Z</time>
      </trkpt>
      <trkpt lat="44.45092" lon="4.78252">
        <ele>317.37</ele>
        <time>2017-04-03T09:16:31Z</time>
      </trkpt>
      <trkpt lat="44.45083" lon="4.78247">
        <ele>317.85</ele>
        <time>2017-04-03T09:16:43Z</time>
      </trkpt>
      <trkpt lat="44.45072" lon="4.78246">
        <ele>319.3</ele>
        <time>2017-04-03T09:16:57Z</time>
      </trkpt>
      <trkpt lat="44.45062" lon="4.78249">
        <ele>319.3</ele>
        <time>2017-04-03T09:17:12Z</time>
      </trkpt>
      <trkpt lat="44.45062" lon="4.78249">
        <ele>319.3</ele>
        <time>2017-04-03T09:17:13Z</time>
      </trkpt>
      <trkpt lat="44.4506" lon="4.7825">
        <ele>318.81</ele>
        <time>2017-04-03T09:17:24Z</time>
      </trkpt>
      <trkpt lat="44.45059" lon="4.78252">
        <ele>320.26</ele>
        <time>2017-04-03T09:17:38Z</time>
      </trkpt>
      <trkpt lat="44.45056" lon="4.78258">
        <ele>321.22</ele>
        <time>2017-04-03T09:17:54Z</time>
      </trkpt>
      <trkpt lat="44.45051" lon="4.7826">
        <ele>321.7</ele>
        <time>2017-04-03T09:18:00Z</time>
      </trkpt>
      <trkpt lat="44.45045" lon="4.78263">
        <ele>322.66</ele>
        <time>2017-04-03T09:18:07Z</time>
      </trkpt>
      <trkpt lat="44.45036" lon="4.78268">
        <ele>324.1</ele>
        <time>2017-04-03T09:18:19Z</time>
      </trkpt>
      <trkpt lat="44.45022" lon="4.78273">
        <ele>325.54</ele>
        <time>2017-04-03T09:18:34Z</time>
      </trkpt>
      <trkpt lat="44.45005" lon="4.78274">
        <ele>327.47</ele>
        <time>2017-04-03T09:18:51Z</time>
      </trkpt>
      <trkpt lat="44.44996" lon="4.78276">
        <ele>327.95</ele>
        <time>2017-04-03T09:19:00Z</time>
      </trkpt>
      <trkpt lat="44.44989" lon="4.78278">
        <ele>328.91</ele>
        <time>2017-04-03T09:19:07Z</time>
      </trkpt>
      <trkpt lat="44.44973" lon="4.78278">
        <ele>330.35</ele>
        <time>2017-04-03T09:19:23Z</time>
      </trkpt>
      <trkpt lat="44.4496" lon="4.78275">
        <ele>331.31</ele>
        <time>2017-04-03T09:19:37Z</time>
      </trkpt>
      <trkpt lat="44.44948" lon="4.78267">
        <ele>333.23</ele>
        <time>2017-04-03T09:19:52Z</time>
      </trkpt>
      <trkpt lat="44.44941" lon="4.78265">
        <ele>333.71</ele>
        <time>2017-04-03T09:20:05Z</time>
      </trkpt>
      <trkpt lat="44.44942" lon="4.78265">
        <ele>332.75</ele>
        <time>2017-04-03T09:20:08Z</time>
      </trkpt>
      <trkpt lat="44.44943" lon="4.78262">
        <ele>333.71</ele>
        <time>2017-04-03T09:20:27Z</time>
      </trkpt>
      <trkpt lat="44.4494" lon="4.78261">
        <ele>332.75</ele>
        <time>2017-04-03T09:20:45Z</time>
      </trkpt>
      <trkpt lat="44.4494" lon="4.78261">
        <ele>332.75</ele>
        <time>2017-04-03T09:20:46Z</time>
      </trkpt>
      <trkpt lat="44.44939" lon="4.78262">
        <ele>334.2</ele>
        <time>2017-04-03T09:21:04Z</time>
      </trkpt>
      <trkpt lat="44.44938" lon="4.78261">
        <ele>334.2</ele>
        <time>2017-04-03T09:21:27Z</time>
      </trkpt>
      <trkpt lat="44.44935" lon="4.78263">
        <ele>334.2</ele>
        <time>2017-04-03T09:21:48Z</time>
      </trkpt>
      <trkpt lat="44.44929" lon="4.78268">
        <ele>334.68</ele>
        <time>2017-04-03T09:22:01Z</time>
      </trkpt>
      <trkpt lat="44.44925" lon="4.78282">
        <ele>334.68</ele>
        <time>2017-04-03T09:22:17Z</time>
      </trkpt>
      <trkpt lat="44.44913" lon="4.78289">
        <ele>336.6</ele>
        <time>2017-04-03T09:22:31Z</time>
      </trkpt>
      <trkpt lat="44.44918" lon="4.78309">
        <ele>338.04</ele>
        <time>2017-04-03T09:22:48Z</time>
      </trkpt>
      <trkpt lat="44.44926" lon="4.78326">
        <ele>339</ele>
        <time>2017-04-03T09:23:02Z</time>
      </trkpt>
      <trkpt lat="44.44935" lon="4.78341">
        <ele>341.41</ele>
        <time>2017-04-03T09:23:17Z</time>
      </trkpt>
      <trkpt lat="44.44943" lon="4.78352">
        <ele>342.85</ele>
        <time>2017-04-03T09:23:31Z</time>
      </trkpt>
      <trkpt lat="44.44952" lon="4.78363">
        <ele>343.33</ele>
        <time>2017-04-03T09:23:46Z</time>
      </trkpt>
      <trkpt lat="44.44962" lon="4.7838">
        <ele>343.81</ele>
        <time>2017-04-03T09:24:02Z</time>
      </trkpt>
      <trkpt lat="44.44971" lon="4.78396">
        <ele>344.77</ele>
        <time>2017-04-03T09:24:19Z</time>
      </trkpt>
      <trkpt lat="44.44967" lon="4.78407">
        <ele>346.69</ele>
        <time>2017-04-03T09:24:31Z</time>
      </trkpt>
      <trkpt lat="44.44955" lon="4.78416">
        <ele>349.1</ele>
        <time>2017-04-03T09:24:48Z</time>
      </trkpt>
      <trkpt lat="44.44944" lon="4.78425">
        <ele>351.5</ele>
        <time>2017-04-03T09:25:03Z</time>
      </trkpt>
      <trkpt lat="44.44931" lon="4.7843">
        <ele>353.42</ele>
        <time>2017-04-03T09:25:17Z</time>
      </trkpt>
      <trkpt lat="44.44923" lon="4.78423">
        <ele>353.9</ele>
        <time>2017-04-03T09:25:33Z</time>
      </trkpt>
      <trkpt lat="44.44915" lon="4.7842">
        <ele>355.34</ele>
        <time>2017-04-03T09:25:49Z</time>
      </trkpt>
      <trkpt lat="44.44903" lon="4.78422">
        <ele>357.27</ele>
        <time>2017-04-03T09:26:05Z</time>
      </trkpt>
      <trkpt lat="44.44895" lon="4.78423">
        <ele>358.71</ele>
        <time>2017-04-03T09:26:19Z</time>
      </trkpt>
      <trkpt lat="44.44888" lon="4.78428">
        <ele>360.15</ele>
        <time>2017-04-03T09:26:31Z</time>
      </trkpt>
      <trkpt lat="44.44882" lon="4.7843">
        <ele>360.63</ele>
        <time>2017-04-03T09:26:37Z</time>
      </trkpt>
      <trkpt lat="44.4487" lon="4.78432">
        <ele>363.52</ele>
        <time>2017-04-03T09:26:50Z</time>
      </trkpt>
      <trkpt lat="44.44862" lon="4.78437">
        <ele>364.48</ele>
        <time>2017-04-03T09:27:00Z</time>
      </trkpt>
      <trkpt lat="44.4485" lon="4.78445">
        <ele>366.4</ele>
        <time>2017-04-03T09:27:15Z</time>
      </trkpt>
      <trkpt lat="44.44839" lon="4.78451">
        <ele>368.32</ele>
        <time>2017-04-03T09:27:29Z</time>
      </trkpt>
      <trkpt lat="44.44829" lon="4.7845">
        <ele>369.28</ele>
        <time>2017-04-03T09:27:42Z</time>
      </trkpt>
      <trkpt lat="44.4482" lon="4.78448">
        <ele>371.21</ele>
        <time>2017-04-03T09:27:57Z</time>
      </trkpt>
      <trkpt lat="44.44815" lon="4.78446">
        <ele>372.17</ele>
        <time>2017-04-03T09:28:17Z</time>
      </trkpt>
      <trkpt lat="44.44816" lon="4.78448">
        <ele>372.17</ele>
        <time>2017-04-03T09:28:27Z</time>
      </trkpt>
      <trkpt lat="44.44814" lon="4.7845">
        <ele>372.17</ele>
        <time>2017-04-03T09:28:32Z</time>
      </trkpt>
      <trkpt lat="44.44814" lon="4.7846">
        <ele>373.13</ele>
        <time>2017-04-03T09:28:45Z</time>
      </trkpt>
      <trkpt lat="44.44817" lon="4.78468">
        <ele>371.69</ele>
        <time>2017-04-03T09:28:57Z</time>
      </trkpt>
      <trkpt lat="44.44818" lon="4.78471">
        <ele>372.65</ele>
        <time>2017-04-03T09:29:02Z</time>
      </trkpt>
      <trkpt lat="44.44816" lon="4.78483">
        <ele>373.13</ele>
        <time>2017-04-03T09:29:14Z</time>
      </trkpt>
      <trkpt lat="44.44816" lon="4.78489">
        <ele>376.49</ele>
        <time>2017-04-03T09:29:22Z</time>
      </trkpt>
      <trkpt lat="44.44816" lon="4.78491">
        <ele>373.13</ele>
        <time>2017-04-03T09:29:24Z</time>
      </trkpt>
      <trkpt lat="44.44813" lon="4.78499">
        <ele>372.17</ele>
        <time>2017-04-03T09:29:37Z</time>
      </trkpt>
      <trkpt lat="44.44806" lon="4.78506">
        <ele>372.17</ele>
        <time>2017-04-03T09:29:50Z</time>
      </trkpt>
      <trkpt lat="44.44804" lon="4.78509">
        <ele>373.13</ele>
        <time>2017-04-03T09:29:59Z</time>
      </trkpt>
      <trkpt lat="44.44802" lon="4.78514">
        <ele>374.09</ele>
        <time>2017-04-03T09:30:23Z</time>
      </trkpt>
      <trkpt lat="44.448" lon="4.78516">
        <ele>372.17</ele>
        <time>2017-04-03T09:30:26Z</time>
      </trkpt>
      <trkpt lat="44.44799" lon="4.78517">
        <ele>373.61</ele>
        <time>2017-04-03T09:30:28Z</time>
      </trkpt>
      <trkpt lat="44.44795" lon="4.78519">
        <ele>372.65</ele>
        <time>2017-04-03T09:30:41Z</time>
      </trkpt>
      <trkpt lat="44.44794" lon="4.78519">
        <ele>374.09</ele>
        <time>2017-04-03T09:30:44Z</time>
      </trkpt>
      <trkpt lat="44.44792" lon="4.78521">
        <ele>373.61</ele>
        <time>2017-04-03T09:30:56Z</time>
      </trkpt>
      <trkpt lat="44.4479" lon="4.78521">
        <ele>375.05</ele>
        <time>2017-04-03T09:31:01Z</time>
      </trkpt>
      <trkpt lat="44.44785" lon="4.78522">
        <ele>376.01</ele>
        <time>2017-04-03T09:31:16Z</time>
      </trkpt>
      <trkpt lat="44.44784" lon="4.78527">
        <ele>377.45</ele>
        <time>2017-04-03T09:31:29Z</time>
      </trkpt>
      <trkpt lat="44.44784" lon="4.78529">
        <ele>375.53</ele>
        <time>2017-04-03T09:31:39Z</time>
      </trkpt>
      <trkpt lat="44.44783" lon="4.78527">
        <ele>375.05</ele>
        <time>2017-04-03T09:31:44Z</time>
      </trkpt>
      <trkpt lat="44.44781" lon="4.78527">
        <ele>377.45</ele>
        <time>2017-04-03T09:31:46Z</time>
      </trkpt>
      <trkpt lat="44.44781" lon="4.78527">
        <ele>376.01</ele>
        <time>2017-04-03T09:31:48Z</time>
      </trkpt>
      <trkpt lat="44.44776" lon="4.78527">
        <ele>375.53</ele>
        <time>2017-04-03T09:32:04Z</time>
      </trkpt>
      <trkpt lat="44.4477" lon="4.78528">
        <ele>375.53</ele>
        <time>2017-04-03T09:32:23Z</time>
      </trkpt>
      <trkpt lat="44.4477" lon="4.78526">
        <ele>376.49</ele>
        <time>2017-04-03T09:32:41Z</time>
      </trkpt>
      <trkpt lat="44.44769" lon="4.78525">
        <ele>374.09</ele>
        <time>2017-04-03T09:32:51Z</time>
      </trkpt>
      <trkpt lat="44.44769" lon="4.78524">
        <ele>377.45</ele>
        <time>2017-04-03T09:32:52Z</time>
      </trkpt>
      <trkpt lat="44.44768" lon="4.78524">
        <ele>377.45</ele>
        <time>2017-04-03T09:32:53Z</time>
      </trkpt>
      <trkpt lat="44.44767" lon="4.78524">
        <ele>376.49</ele>
        <time>2017-04-03T09:32:57Z</time>
      </trkpt>
      <trkpt lat="44.44763" lon="4.78518">
        <ele>376.97</ele>
        <time>2017-04-03T09:33:11Z</time>
      </trkpt>
      <trkpt lat="44.44755" lon="4.7852">
        <ele>376.01</ele>
        <time>2017-04-03T09:33:26Z</time>
      </trkpt>
      <trkpt lat="44.44751" lon="4.78522">
        <ele>377.45</ele>
        <time>2017-04-03T09:33:35Z</time>
      </trkpt>
      <trkpt lat="44.4475" lon="4.78527">
        <ele>375.53</ele>
        <time>2017-04-03T09:33:45Z</time>
      </trkpt>
      <trkpt lat="44.44748" lon="4.78526">
        <ele>375.53</ele>
        <time>2017-04-03T09:33:58Z</time>
      </trkpt>
      <trkpt lat="44.44748" lon="4.78525">
        <ele>376.49</ele>
        <time>2017-04-03T09:34:19Z</time>
      </trkpt>
      <trkpt lat="44.44748" lon="4.78525">
        <ele>375.53</ele>
        <time>2017-04-03T09:34:21Z</time>
      </trkpt>
      <trkpt lat="44.44749" lon="4.7852">
        <ele>377.45</ele>
        <time>2017-04-03T09:34:33Z</time>
      </trkpt>
      <trkpt lat="44.44749" lon="4.7852">
        <ele>376.49</ele>
        <time>2017-04-03T09:34:48Z</time>
      </trkpt>
      <trkpt lat="44.4475" lon="4.78522">
        <ele>378.42</ele>
        <time>2017-04-03T09:34:55Z</time>
      </trkpt>
      <trkpt lat="44.44751" lon="4.78522">
        <ele>376.97</ele>
        <time>2017-04-03T09:34:57Z</time>
      </trkpt>
      <trkpt lat="44.4475" lon="4.78525">
        <ele>377.94</ele>
        <time>2017-04-03T09:35:09Z</time>
      </trkpt>
      <trkpt lat="44.4475" lon="4.78526">
        <ele>376.97</ele>
        <time>2017-04-03T09:35:36Z</time>
      </trkpt>
      <trkpt lat="44.44758" lon="4.78518">
        <ele>375.53</ele>
        <time>2017-04-03T09:35:53Z</time>
      </trkpt>
      <trkpt lat="44.4476" lon="4.78518">
        <ele>377.45</ele>
        <time>2017-04-03T09:35:56Z</time>
      </trkpt>
      <trkpt lat="44.44763" lon="4.78517">
        <ele>376.01</ele>
        <time>2017-04-03T09:36:02Z</time>
      </trkpt>
      <trkpt lat="44.44765" lon="4.78522">
        <ele>377.94</ele>
        <time>2017-04-03T09:36:13Z</time>
      </trkpt>
      <trkpt lat="44.44766" lon="4.78523">
        <ele>376.97</ele>
        <time>2017-04-03T09:36:15Z</time>
      </trkpt>
      <trkpt lat="44.44771" lon="4.78527">
        <ele>376.97</ele>
        <time>2017-04-03T09:36:27Z</time>
      </trkpt>
      <trkpt lat="44.44776" lon="4.78529">
        <ele>376.49</ele>
        <time>2017-04-03T09:36:41Z</time>
      </trkpt>
      <trkpt lat="44.44777" lon="4.78529">
        <ele>377.45</ele>
        <time>2017-04-03T09:36:43Z</time>
      </trkpt>
      <trkpt lat="44.44779" lon="4.78529">
        <ele>375.53</ele>
        <time>2017-04-03T09:36:47Z</time>
      </trkpt>
      <trkpt lat="44.4478" lon="4.78529">
        <ele>377.45</ele>
        <time>2017-04-03T09:36:49Z</time>
      </trkpt>
      <trkpt lat="44.44781" lon="4.78529">
        <ele>376.01</ele>
        <time>2017-04-03T09:36:53Z</time>
      </trkpt>
      <trkpt lat="44.44783" lon="4.78528">
        <ele>376.49</ele>
        <time>2017-04-03T09:36:58Z</time>
      </trkpt>
      <trkpt lat="44.44787" lon="4.78521">
        <ele>376.97</ele>
        <time>2017-04-03T09:37:13Z</time>
      </trkpt>
      <trkpt lat="44.44787" lon="4.78521">
        <ele>375.05</ele>
        <time>2017-04-03T09:37:16Z</time>
      </trkpt>
      <trkpt lat="44.44792" lon="4.78522">
        <ele>371.69</ele>
        <time>2017-04-03T09:37:28Z</time>
      </trkpt>
      <trkpt lat="44.44792" lon="4.78521">
        <ele>371.69</ele>
        <time>2017-04-03T09:37:29Z</time>
      </trkpt>
      <trkpt lat="44.44798" lon="4.78516">
        <ele>373.13</ele>
        <time>2017-04-03T09:37:41Z</time>
      </trkpt>
      <trkpt lat="44.44803" lon="4.78512">
        <ele>373.13</ele>
        <time>2017-04-03T09:37:54Z</time>
      </trkpt>
      <trkpt lat="44.44804" lon="4.78513">
        <ele>371.69</ele>
        <time>2017-04-03T09:38:13Z</time>
      </trkpt>
      <trkpt lat="44.44804" lon="4.78511">
        <ele>373.13</ele>
        <time>2017-04-03T09:38:17Z</time>
      </trkpt>
      <trkpt lat="44.44807" lon="4.78507">
        <ele>372.17</ele>
        <time>2017-04-03T09:38:31Z</time>
      </trkpt>
      <trkpt lat="44.44808" lon="4.78506">
        <ele>372.65</ele>
        <time>2017-04-03T09:38:45Z</time>
      </trkpt>
      <trkpt lat="44.44807" lon="4.78506">
        <ele>372.65</ele>
        <time>2017-04-03T09:38:46Z</time>
      </trkpt>
      <trkpt lat="44.44807" lon="4.78503">
        <ele>371.69</ele>
        <time>2017-04-03T09:38:58Z</time>
      </trkpt>
      <trkpt lat="44.44812" lon="4.78495">
        <ele>371.69</ele>
        <time>2017-04-03T09:39:12Z</time>
      </trkpt>
      <trkpt lat="44.44814" lon="4.78487">
        <ele>373.13</ele>
        <time>2017-04-03T09:39:20Z</time>
      </trkpt>
      <trkpt lat="44.44816" lon="4.7848">
        <ele>371.69</ele>
        <time>2017-04-03T09:39:35Z</time>
      </trkpt>
      <trkpt lat="44.44816" lon="4.78477">
        <ele>371.69</ele>
        <time>2017-04-03T09:39:48Z</time>
      </trkpt>
      <trkpt lat="44.44815" lon="4.78477">
        <ele>371.21</ele>
        <time>2017-04-03T09:40:05Z</time>
      </trkpt>
      <trkpt lat="44.44816" lon="4.78467">
        <ele>371.21</ele>
        <time>2017-04-03T09:40:22Z</time>
      </trkpt>
      <trkpt lat="44.44813" lon="4.78456">
        <ele>372.17</ele>
        <time>2017-04-03T09:40:36Z</time>
      </trkpt>
      <trkpt lat="44.44812" lon="4.78452">
        <ele>371.69</ele>
        <time>2017-04-03T09:40:41Z</time>
      </trkpt>
      <trkpt lat="44.44815" lon="4.78447">
        <ele>370.24</ele>
        <time>2017-04-03T09:40:56Z</time>
      </trkpt>
      <trkpt lat="44.44822" lon="4.78449">
        <ele>368.8</ele>
        <time>2017-04-03T09:41:14Z</time>
      </trkpt>
      <trkpt lat="44.44837" lon="4.78449">
        <ele>367.36</ele>
        <time>2017-04-03T09:41:29Z</time>
      </trkpt>
      <trkpt lat="44.44844" lon="4.78446">
        <ele>366.88</ele>
        <time>2017-04-03T09:41:42Z</time>
      </trkpt>
      <trkpt lat="44.44855" lon="4.7844">
        <ele>364.96</ele>
        <time>2017-04-03T09:41:56Z</time>
      </trkpt>
      <trkpt lat="44.44858" lon="4.78438">
        <ele>363.04</ele>
        <time>2017-04-03T09:42:02Z</time>
      </trkpt>
      <trkpt lat="44.44866" lon="4.78433">
        <ele>361.59</ele>
        <time>2017-04-03T09:42:17Z</time>
      </trkpt>
      <trkpt lat="44.44881" lon="4.78427">
        <ele>359.67</ele>
        <time>2017-04-03T09:42:33Z</time>
      </trkpt>
      <trkpt lat="44.44884" lon="4.78427">
        <ele>360.63</ele>
        <time>2017-04-03T09:42:37Z</time>
      </trkpt>
      <trkpt lat="44.44886" lon="4.78426">
        <ele>359.19</ele>
        <time>2017-04-03T09:42:40Z</time>
      </trkpt>
      <trkpt lat="44.44896" lon="4.78421">
        <ele>357.75</ele>
        <time>2017-04-03T09:42:56Z</time>
      </trkpt>
      <trkpt lat="44.44898" lon="4.78421">
        <ele>356.31</ele>
        <time>2017-04-03T09:42:59Z</time>
      </trkpt>
      <trkpt lat="44.44912" lon="4.78419">
        <ele>354.86</ele>
        <time>2017-04-03T09:43:13Z</time>
      </trkpt>
      <trkpt lat="44.4492" lon="4.78422">
        <ele>352.46</ele>
        <time>2017-04-03T09:43:28Z</time>
      </trkpt>
      <trkpt lat="44.44921" lon="4.78423">
        <ele>352.46</ele>
        <time>2017-04-03T09:43:29Z</time>
      </trkpt>
      <trkpt lat="44.44928" lon="4.78429">
        <ele>352.46</ele>
        <time>2017-04-03T09:43:38Z</time>
      </trkpt>
      <trkpt lat="44.4493" lon="4.78429">
        <ele>350.54</ele>
        <time>2017-04-03T09:43:41Z</time>
      </trkpt>
      <trkpt lat="44.44932" lon="4.7843">
        <ele>351.5</ele>
        <time>2017-04-03T09:43:44Z</time>
      </trkpt>
      <trkpt lat="44.44944" lon="4.78424">
        <ele>349.58</ele>
        <time>2017-04-03T09:43:58Z</time>
      </trkpt>
      <trkpt lat="44.44958" lon="4.78415">
        <ele>347.17</ele>
        <time>2017-04-03T09:44:15Z</time>
      </trkpt>
      <trkpt lat="44.44961" lon="4.78414">
        <ele>346.21</ele>
        <time>2017-04-03T09:44:19Z</time>
      </trkpt>
      <trkpt lat="44.44971" lon="4.78408">
        <ele>344.77</ele>
        <time>2017-04-03T09:44:32Z</time>
      </trkpt>
      <trkpt lat="44.4497" lon="4.78398">
        <ele>343.81</ele>
        <time>2017-04-03T09:44:47Z</time>
      </trkpt>
      <trkpt lat="44.44963" lon="4.78384">
        <ele>342.85</ele>
        <time>2017-04-03T09:45:03Z</time>
      </trkpt>
      <trkpt lat="44.44962" lon="4.78383">
        <ele>342.37</ele>
        <time>2017-04-03T09:45:27Z</time>
      </trkpt>
      <trkpt lat="44.44962" lon="4.78382">
        <ele>343.81</ele>
        <time>2017-04-03T09:45:29Z</time>
      </trkpt>
      <trkpt lat="44.4496" lon="4.78378">
        <ele>343.81</ele>
        <time>2017-04-03T09:45:42Z</time>
      </trkpt>
      <trkpt lat="44.44953" lon="4.78365">
        <ele>342.37</ele>
        <time>2017-04-03T09:45:55Z</time>
      </trkpt>
      <trkpt lat="44.4495" lon="4.78359">
        <ele>341.41</ele>
        <time>2017-04-03T09:46:00Z</time>
      </trkpt>
      <trkpt lat="44.44946" lon="4.78351">
        <ele>341.89</ele>
        <time>2017-04-03T09:46:10Z</time>
      </trkpt>
      <trkpt lat="44.44939" lon="4.78345">
        <ele>341.41</ele>
        <time>2017-04-03T09:46:22Z</time>
      </trkpt>
      <trkpt lat="44.44932" lon="4.78335">
        <ele>339.48</ele>
        <time>2017-04-03T09:46:35Z</time>
      </trkpt>
      <trkpt lat="44.44924" lon="4.7832">
        <ele>336.6</ele>
        <time>2017-04-03T09:46:49Z</time>
      </trkpt>
      <trkpt lat="44.44916" lon="4.78302">
        <ele>336.12</ele>
        <time>2017-04-03T09:47:06Z</time>
      </trkpt>
      <trkpt lat="44.44917" lon="4.78289">
        <ele>334.2</ele>
        <time>2017-04-03T09:47:21Z</time>
      </trkpt>
      <trkpt lat="44.44923" lon="4.78285">
        <ele>333.71</ele>
        <time>2017-04-03T09:47:38Z</time>
      </trkpt>
      <trkpt lat="44.44927" lon="4.78274">
        <ele>333.23</ele>
        <time>2017-04-03T09:47:54Z</time>
      </trkpt>
      <trkpt lat="44.44928" lon="4.78269">
        <ele>333.71</ele>
        <time>2017-04-03T09:48:06Z</time>
      </trkpt>
      <trkpt lat="44.44929" lon="4.78266">
        <ele>332.75</ele>
        <time>2017-04-03T09:48:10Z</time>
      </trkpt>
      <trkpt lat="44.44938" lon="4.78262">
        <ele>332.27</ele>
        <time>2017-04-03T09:48:27Z</time>
      </trkpt>
      <trkpt lat="44.4494" lon="4.7826">
        <ele>331.31</ele>
        <time>2017-04-03T09:48:52Z</time>
      </trkpt>
      <trkpt lat="44.4494" lon="4.7826">
        <ele>333.23</ele>
        <time>2017-04-03T09:48:55Z</time>
      </trkpt>
      <trkpt lat="44.4494" lon="4.78259">
        <ele>331.31</ele>
        <time>2017-04-03T09:48:59Z</time>
      </trkpt>
      <trkpt lat="44.44941" lon="4.78258">
        <ele>332.75</ele>
        <time>2017-04-03T09:49:20Z</time>
      </trkpt>
      <trkpt lat="44.4494" lon="4.78256">
        <ele>333.23</ele>
        <time>2017-04-03T09:49:42Z</time>
      </trkpt>
      <trkpt lat="44.4494" lon="4.78255">
        <ele>331.79</ele>
        <time>2017-04-03T09:50:04Z</time>
      </trkpt>
      <trkpt lat="44.44937" lon="4.78257">
        <ele>331.79</ele>
        <time>2017-04-03T09:50:30Z</time>
      </trkpt>
      <trkpt lat="44.44928" lon="4.78249">
        <ele>333.71</ele>
        <time>2017-04-03T09:50:45Z</time>
      </trkpt>
      <trkpt lat="44.44927" lon="4.78249">
        <ele>334.2</ele>
        <time>2017-04-03T09:50:46Z</time>
      </trkpt>
      <trkpt lat="44.44913" lon="4.78241">
        <ele>335.64</ele>
        <time>2017-04-03T09:51:04Z</time>
      </trkpt>
      <trkpt lat="44.44912" lon="4.7823">
        <ele>337.56</ele>
        <time>2017-04-03T09:51:16Z</time>
      </trkpt>
      <trkpt lat="44.4491" lon="4.78228">
        <ele>337.56</ele>
        <time>2017-04-03T09:51:19Z</time>
      </trkpt>
      <trkpt lat="44.44909" lon="4.78214">
        <ele>338.52</ele>
        <time>2017-04-03T09:51:34Z</time>
      </trkpt>
      <trkpt lat="44.44909" lon="4.78198">
        <ele>340.44</ele>
        <time>2017-04-03T09:51:48Z</time>
      </trkpt>
      <trkpt lat="44.44907" lon="4.78182">
        <ele>342.85</ele>
        <time>2017-04-03T09:52:03Z</time>
      </trkpt>
      <trkpt lat="44.44899" lon="4.78168">
        <ele>344.77</ele>
        <time>2017-04-03T09:52:17Z</time>
      </trkpt>
      <trkpt lat="44.44889" lon="4.78155">
        <ele>345.25</ele>
        <time>2017-04-03T09:52:34Z</time>
      </trkpt>
      <trkpt lat="44.44884" lon="4.78149">
        <ele>346.21</ele>
        <time>2017-04-03T09:52:43Z</time>
      </trkpt>
      <trkpt lat="44.44881" lon="4.78145">
        <ele>348.13</ele>
        <time>2017-04-03T09:52:46Z</time>
      </trkpt>
      <trkpt lat="44.44881" lon="4.7813">
        <ele>348.62</ele>
        <time>2017-04-03T09:53:01Z</time>
      </trkpt>
      <trkpt lat="44.44883" lon="4.78116">
        <ele>350.06</ele>
        <time>2017-04-03T09:53:14Z</time>
      </trkpt>
      <trkpt lat="44.44883" lon="4.78115">
        <ele>350.06</ele>
        <time>2017-04-03T09:53:15Z</time>
      </trkpt>
      <trkpt lat="44.44884" lon="4.7811">
        <ele>349.1</ele>
        <time>2017-04-03T09:53:23Z</time>
      </trkpt>
      <trkpt lat="44.44884" lon="4.78109">
        <ele>351.02</ele>
        <time>2017-04-03T09:53:25Z</time>
      </trkpt>
      <trkpt lat="44.44881" lon="4.78095">
        <ele>351.02</ele>
        <time>2017-04-03T09:53:37Z</time>
      </trkpt>
      <trkpt lat="44.4488" lon="4.7809">
        <ele>351.02</ele>
        <time>2017-04-03T09:53:41Z</time>
      </trkpt>
      <trkpt lat="44.44877" lon="4.78072">
        <ele>351.02</ele>
        <time>2017-04-03T09:53:55Z</time>
      </trkpt>
      <trkpt lat="44.44877" lon="4.78056">
        <ele>351.02</ele>
        <time>2017-04-03T09:54:07Z</time>
      </trkpt>
      <trkpt lat="44.44878" lon="4.78042">
        <ele>351.5</ele>
        <time>2017-04-03T09:54:21Z</time>
      </trkpt>
      <trkpt lat="44.44881" lon="4.78027">
        <ele>351.98</ele>
        <time>2017-04-03T09:54:38Z</time>
      </trkpt>
      <trkpt lat="44.44885" lon="4.78008">
        <ele>351.98</ele>
        <time>2017-04-03T09:54:55Z</time>
      </trkpt>
      <trkpt lat="44.44883" lon="4.78">
        <ele>351.5</ele>
        <time>2017-04-03T09:55:08Z</time>
      </trkpt>
      <trkpt lat="44.4488" lon="4.77999">
        <ele>351.5</ele>
        <time>2017-04-03T09:55:26Z</time>
      </trkpt>
      <trkpt lat="44.4488" lon="4.77995">
        <ele>351.5</ele>
        <time>2017-04-03T09:55:48Z</time>
      </trkpt>
      <trkpt lat="44.44883" lon="4.77976">
        <ele>350.06</ele>
        <time>2017-04-03T09:56:05Z</time>
      </trkpt>
      <trkpt lat="44.44883" lon="4.7797">
        <ele>350.54</ele>
        <time>2017-04-03T09:56:16Z</time>
      </trkpt>
      <trkpt lat="44.44882" lon="4.7797">
        <ele>350.54</ele>
        <time>2017-04-03T09:56:17Z</time>
      </trkpt>
      <trkpt lat="44.4488" lon="4.77964">
        <ele>350.06</ele>
        <time>2017-04-03T09:56:44Z</time>
      </trkpt>
      <trkpt lat="44.44879" lon="4.77962">
        <ele>351.02</ele>
        <time>2017-04-03T09:56:58Z</time>
      </trkpt>
      <trkpt lat="44.4488" lon="4.77961">
        <ele>349.58</ele>
        <time>2017-04-03T09:57:21Z</time>
      </trkpt>
      <trkpt lat="44.4488" lon="4.77955">
        <ele>350.06</ele>
        <time>2017-04-03T09:57:29Z</time>
      </trkpt>
      <trkpt lat="44.44878" lon="4.77935">
        <ele>349.1</ele>
        <time>2017-04-03T09:57:45Z</time>
      </trkpt>
      <trkpt lat="44.44872" lon="4.77918">
        <ele>350.06</ele>
        <time>2017-04-03T09:57:59Z</time>
      </trkpt>
      <trkpt lat="44.44865" lon="4.77911">
        <ele>348.62</ele>
        <time>2017-04-03T09:58:08Z</time>
      </trkpt>
      <trkpt lat="44.4486" lon="4.77904">
        <ele>347.65</ele>
        <time>2017-04-03T09:58:23Z</time>
      </trkpt>
      <trkpt lat="44.44855" lon="4.77898">
        <ele>347.65</ele>
        <time>2017-04-03T09:58:46Z</time>
      </trkpt>
      <trkpt lat="44.44846" lon="4.77887">
        <ele>347.17</ele>
        <time>2017-04-03T09:59:00Z</time>
      </trkpt>
      <trkpt lat="44.44837" lon="4.77873">
        <ele>345.25</ele>
        <time>2017-04-03T09:59:16Z</time>
      </trkpt>
      <trkpt lat="44.44837" lon="4.77874">
        <ele>344.29</ele>
        <time>2017-04-03T09:59:29Z</time>
      </trkpt>
      <trkpt lat="44.44837" lon="4.77873">
        <ele>345.73</ele>
        <time>2017-04-03T09:59:31Z</time>
      </trkpt>
      <trkpt lat="44.44831" lon="4.77868">
        <ele>345.25</ele>
        <time>2017-04-03T09:59:44Z</time>
      </trkpt>
      <trkpt lat="44.44829" lon="4.77864">
        <ele>343.81</ele>
        <time>2017-04-03T09:59:50Z</time>
      </trkpt>
      <trkpt lat="44.44828" lon="4.77859">
        <ele>343.81</ele>
        <time>2017-04-03T10:00:06Z</time>
      </trkpt>
      <trkpt lat="44.44826" lon="4.7786">
        <ele>343.81</ele>
        <time>2017-04-03T10:00:23Z</time>
      </trkpt>
      <trkpt lat="44.44826" lon="4.7786">
        <ele>344.77</ele>
        <time>2017-04-03T10:00:39Z</time>
      </trkpt>
      <trkpt lat="44.44826" lon="4.77859">
        <ele>343.81</ele>
        <time>2017-04-03T10:00:48Z</time>
      </trkpt>
      <trkpt lat="44.44827" lon="4.77858">
        <ele>345.25</ele>
        <time>2017-04-03T10:00:52Z</time>
      </trkpt>
      <trkpt lat="44.44827" lon="4.77858">
        <ele>345.25</ele>
        <time>2017-04-03T10:01:08Z</time>
      </trkpt>
      <trkpt lat="44.44828" lon="4.77859">
        <ele>343.33</ele>
        <time>2017-04-03T10:01:25Z</time>
      </trkpt>
      <trkpt lat="44.44827" lon="4.77858">
        <ele>343.33</ele>
        <time>2017-04-03T10:01:55Z</time>
      </trkpt>
      <trkpt lat="44.44827" lon="4.77858">
        <ele>344.29</ele>
        <time>2017-04-03T10:02:25Z</time>
      </trkpt>
      <trkpt lat="44.44827" lon="4.77858">
        <ele>342.37</ele>
        <time>2017-04-03T10:02:36Z</time>
      </trkpt>
      <trkpt lat="44.44827" lon="4.77859">
        <ele>343.33</ele>
        <time>2017-04-03T10:02:52Z</time>
      </trkpt>
      <trkpt lat="44.44827" lon="4.77858">
        <ele>345.25</ele>
        <time>2017-04-03T10:03:28Z</time>
      </trkpt>
      <trkpt lat="44.44828" lon="4.77858">
        <ele>343.81</ele>
        <time>2017-04-03T10:03:45Z</time>
      </trkpt>
      <trkpt lat="44.44827" lon="4.77859">
        <ele>345.25</ele>
        <time>2017-04-03T10:04:07Z</time>
      </trkpt>
      <trkpt lat="44.44827" lon="4.77859">
        <ele>345.25</ele>
        <time>2017-04-03T10:04:24Z</time>
      </trkpt>
      <trkpt lat="44.44826" lon="4.77858">
        <ele>343.81</ele>
        <time>2017-04-03T10:04:53Z</time>
      </trkpt>
      <trkpt lat="44.44826" lon="4.77858">
        <ele>345.25</ele>
        <time>2017-04-03T10:04:58Z</time>
      </trkpt>
      <trkpt lat="44.44826" lon="4.77859">
        <ele>343.81</ele>
        <time>2017-04-03T10:05:04Z</time>
      </trkpt>
      <trkpt lat="44.44825" lon="4.77859">
        <ele>345.25</ele>
        <time>2017-04-03T10:05:08Z</time>
      </trkpt>
      <trkpt lat="44.44825" lon="4.77861">
        <ele>345.25</ele>
        <time>2017-04-03T10:05:41Z</time>
      </trkpt>
      <trkpt lat="44.44824" lon="4.7786">
        <ele>345.25</ele>
        <time>2017-04-03T10:06:16Z</time>
      </trkpt>
      <trkpt lat="44.44826" lon="4.77865">
        <ele>345.73</ele>
        <time>2017-04-03T10:06:45Z</time>
      </trkpt>
      <trkpt lat="44.44826" lon="4.77866">
        <ele>345.73</ele>
        <time>2017-04-03T10:07:15Z</time>
      </trkpt>
      <trkpt lat="44.44826" lon="4.77861">
        <ele>346.21</ele>
        <time>2017-04-03T10:07:47Z</time>
      </trkpt>
      <trkpt lat="44.44826" lon="4.77861">
        <ele>345.25</ele>
        <time>2017-04-03T10:08:09Z</time>
      </trkpt>
      <trkpt lat="44.44826" lon="4.7786">
        <ele>346.69</ele>
        <time>2017-04-03T10:08:46Z</time>
      </trkpt>
      <trkpt lat="44.44825" lon="4.77859">
        <ele>346.69</ele>
        <time>2017-04-03T10:09:14Z</time>
      </trkpt>
      <trkpt lat="44.44826" lon="4.77858">
        <ele>346.69</ele>
        <time>2017-04-03T10:09:42Z</time>
      </trkpt>
      <trkpt lat="44.44826" lon="4.77858">
        <ele>347.17</ele>
        <time>2017-04-03T10:10:09Z</time>
      </trkpt>
      <trkpt lat="44.44826" lon="4.77858">
        <ele>346.69</ele>
        <time>2017-04-03T10:10:49Z</time>
      </trkpt>
      <trkpt lat="44.44826" lon="4.77859">
        <ele>346.21</ele>
        <time>2017-04-03T10:11:24Z</time>
      </trkpt>
      <trkpt lat="44.44825" lon="4.77859">
        <ele>346.21</ele>
        <time>2017-04-03T10:11:55Z</time>
      </trkpt>
      <trkpt lat="44.44826" lon="4.7786">
        <ele>347.17</ele>
        <time>2017-04-03T10:12:22Z</time>
      </trkpt>
      <trkpt lat="44.44825" lon="4.77861">
        <ele>347.65</ele>
        <time>2017-04-03T10:12:51Z</time>
      </trkpt>
      <trkpt lat="44.44825" lon="4.77862">
        <ele>346.69</ele>
        <time>2017-04-03T10:13:11Z</time>
      </trkpt>
      <trkpt lat="44.44825" lon="4.77862">
        <ele>347.65</ele>
        <time>2017-04-03T10:13:16Z</time>
      </trkpt>
      <trkpt lat="44.44825" lon="4.77862">
        <ele>346.69</ele>
        <time>2017-04-03T10:13:40Z</time>
      </trkpt>
      <trkpt lat="44.44826" lon="4.77862">
        <ele>347.65</ele>
        <time>2017-04-03T10:13:45Z</time>
      </trkpt>
      <trkpt lat="44.44825" lon="4.77861">
        <ele>347.17</ele>
        <time>2017-04-03T10:14:14Z</time>
      </trkpt>
      <trkpt lat="44.44825" lon="4.77861">
        <ele>347.17</ele>
        <time>2017-04-03T10:14:48Z</time>
      </trkpt>
      <trkpt lat="44.44824" lon="4.77861">
        <ele>347.17</ele>
        <time>2017-04-03T10:15:18Z</time>
      </trkpt>
      <trkpt lat="44.44824" lon="4.77861">
        <ele>347.17</ele>
        <time>2017-04-03T10:16:00Z</time>
      </trkpt>
      <trkpt lat="44.44825" lon="4.77859">
        <ele>348.62</ele>
        <time>2017-04-03T10:16:35Z</time>
      </trkpt>
      <trkpt lat="44.44825" lon="4.7786">
        <ele>347.65</ele>
        <time>2017-04-03T10:17:11Z</time>
      </trkpt>
      <trkpt lat="44.44825" lon="4.7786">
        <ele>349.58</ele>
        <time>2017-04-03T10:17:48Z</time>
      </trkpt>
      <trkpt lat="44.44825" lon="4.77858">
        <ele>349.58</ele>
        <time>2017-04-03T10:18:19Z</time>
      </trkpt>
      <trkpt lat="44.44826" lon="4.77858">
        <ele>349.58</ele>
        <time>2017-04-03T10:18:43Z</time>
      </trkpt>
      <trkpt lat="44.44826" lon="4.77857">
        <ele>349.58</ele>
        <time>2017-04-03T10:19:14Z</time>
      </trkpt>
      <trkpt lat="44.44825" lon="4.77858">
        <ele>350.06</ele>
        <time>2017-04-03T10:19:54Z</time>
      </trkpt>
      <trkpt lat="44.44825" lon="4.7786">
        <ele>349.58</ele>
        <time>2017-04-03T10:20:33Z</time>
      </trkpt>
      <trkpt lat="44.44825" lon="4.77861">
        <ele>351.02</ele>
        <time>2017-04-03T10:20:46Z</time>
      </trkpt>
      <trkpt lat="44.44824" lon="4.7786">
        <ele>349.58</ele>
        <time>2017-04-03T10:21:21Z</time>
      </trkpt>
      <trkpt lat="44.44824" lon="4.7786">
        <ele>349.58</ele>
        <time>2017-04-03T10:21:54Z</time>
      </trkpt>
      <trkpt lat="44.44825" lon="4.77859">
        <ele>349.1</ele>
        <time>2017-04-03T10:22:30Z</time>
      </trkpt>
      <trkpt lat="44.44825" lon="4.77859">
        <ele>349.1</ele>
        <time>2017-04-03T10:23:01Z</time>
      </trkpt>
      <trkpt lat="44.44824" lon="4.77858">
        <ele>350.06</ele>
        <time>2017-04-03T10:23:28Z</time>
      </trkpt>
      <trkpt lat="44.44825" lon="4.77858">
        <ele>350.06</ele>
        <time>2017-04-03T10:23:29Z</time>
      </trkpt>
      <trkpt lat="44.44825" lon="4.77858">
        <ele>348.62</ele>
        <time>2017-04-03T10:23:33Z</time>
      </trkpt>
      <trkpt lat="44.44825" lon="4.77858">
        <ele>350.06</ele>
        <time>2017-04-03T10:23:41Z</time>
      </trkpt>
      <trkpt lat="44.44825" lon="4.77857">
        <ele>350.06</ele>
        <time>2017-04-03T10:24:07Z</time>
      </trkpt>
      <trkpt lat="44.44825" lon="4.77859">
        <ele>350.06</ele>
        <time>2017-04-03T10:24:33Z</time>
      </trkpt>
      <trkpt lat="44.44826" lon="4.77858">
        <ele>350.54</ele>
        <time>2017-04-03T10:24:52Z</time>
      </trkpt>
      <trkpt lat="44.44826" lon="4.77858">
        <ele>349.1</ele>
        <time>2017-04-03T10:25:06Z</time>
      </trkpt>
      <trkpt lat="44.44826" lon="4.77858">
        <ele>350.54</ele>
        <time>2017-04-03T10:25:08Z</time>
      </trkpt>
      <trkpt lat="44.44826" lon="4.77859">
        <ele>350.54</ele>
        <time>2017-04-03T10:25:40Z</time>
      </trkpt>
      <trkpt lat="44.44826" lon="4.77857">
        <ele>351.02</ele>
        <time>2017-04-03T10:26:24Z</time>
      </trkpt>
      <trkpt lat="44.44826" lon="4.7786">
        <ele>350.06</ele>
        <time>2017-04-03T10:26:56Z</time>
      </trkpt>
      <trkpt lat="44.44826" lon="4.7786">
        <ele>351.02</ele>
        <time>2017-04-03T10:26:59Z</time>
      </trkpt>
      <trkpt lat="44.44826" lon="4.7786">
        <ele>351.5</ele>
        <time>2017-04-03T10:27:36Z</time>
      </trkpt>
      <trkpt lat="44.44826" lon="4.77859">
        <ele>350.54</ele>
        <time>2017-04-03T10:28:14Z</time>
      </trkpt>
      <trkpt lat="44.44826" lon="4.7786">
        <ele>350.54</ele>
        <time>2017-04-03T10:28:52Z</time>
      </trkpt>
      <trkpt lat="44.44826" lon="4.7786">
        <ele>351.98</ele>
        <time>2017-04-03T10:28:55Z</time>
      </trkpt>
      <trkpt lat="44.44826" lon="4.77861">
        <ele>351.98</ele>
        <time>2017-04-03T10:29:23Z</time>
      </trkpt>
      <trkpt lat="44.44827" lon="4.7786">
        <ele>350.54</ele>
        <time>2017-04-03T10:29:36Z</time>
      </trkpt>
      <trkpt lat="44.44826" lon="4.77858">
        <ele>350.54</ele>
        <time>2017-04-03T10:30:10Z</time>
      </trkpt>
      <trkpt lat="44.44826" lon="4.77858">
        <ele>351.98</ele>
        <time>2017-04-03T10:30:13Z</time>
      </trkpt>
      <trkpt lat="44.44825" lon="4.77859">
        <ele>351.02</ele>
        <time>2017-04-03T10:30:54Z</time>
      </trkpt>
      <trkpt lat="44.44826" lon="4.7786">
        <ele>352.46</ele>
        <time>2017-04-03T10:31:29Z</time>
      </trkpt>
      <trkpt lat="44.44826" lon="4.7786">
        <ele>351.02</ele>
        <time>2017-04-03T10:31:52Z</time>
      </trkpt>
      <trkpt lat="44.44826" lon="4.77858">
        <ele>352.46</ele>
        <time>2017-04-03T10:32:18Z</time>
      </trkpt>
      <trkpt lat="44.44827" lon="4.77856">
        <ele>351.02</ele>
        <time>2017-04-03T10:32:48Z</time>
      </trkpt>
      <trkpt lat="44.44826" lon="4.77856">
        <ele>352.46</ele>
        <time>2017-04-03T10:33:14Z</time>
      </trkpt>
      <trkpt lat="44.44826" lon="4.77856">
        <ele>352.46</ele>
        <time>2017-04-03T10:33:22Z</time>
      </trkpt>
      <trkpt lat="44.44826" lon="4.77858">
        <ele>352.46</ele>
        <time>2017-04-03T10:33:55Z</time>
      </trkpt>
      <trkpt lat="44.44826" lon="4.77858">
        <ele>352.46</ele>
        <time>2017-04-03T10:34:24Z</time>
      </trkpt>
      <trkpt lat="44.44826" lon="4.77859">
        <ele>352.94</ele>
        <time>2017-04-03T10:34:55Z</time>
      </trkpt>
      <trkpt lat="44.44825" lon="4.7786">
        <ele>351.98</ele>
        <time>2017-04-03T10:35:30Z</time>
      </trkpt>
      <trkpt lat="44.44825" lon="4.77859">
        <ele>352.46</ele>
        <time>2017-04-03T10:36:08Z</time>
      </trkpt>
      <trkpt lat="44.44825" lon="4.7786">
        <ele>352.46</ele>
        <time>2017-04-03T10:36:44Z</time>
      </trkpt>
      <trkpt lat="44.44826" lon="4.77859">
        <ele>351.5</ele>
        <time>2017-04-03T10:37:16Z</time>
      </trkpt>
      <trkpt lat="44.44827" lon="4.77859">
        <ele>352.46</ele>
        <time>2017-04-03T10:37:51Z</time>
      </trkpt>
      <trkpt lat="44.44826" lon="4.77859">
        <ele>353.42</ele>
        <time>2017-04-03T10:38:28Z</time>
      </trkpt>
      <trkpt lat="44.44824" lon="4.77859">
        <ele>351.5</ele>
        <time>2017-04-03T10:38:57Z</time>
      </trkpt>
      <trkpt lat="44.44825" lon="4.77859">
        <ele>352.94</ele>
        <time>2017-04-03T10:39:25Z</time>
      </trkpt>
      <trkpt lat="44.44826" lon="4.77859">
        <ele>351.5</ele>
        <time>2017-04-03T10:39:36Z</time>
      </trkpt>
      <trkpt lat="44.44827" lon="4.77858">
        <ele>351.98</ele>
        <time>2017-04-03T10:40:04Z</time>
      </trkpt>
      <trkpt lat="44.44827" lon="4.77857">
        <ele>351.98</ele>
        <time>2017-04-03T10:40:39Z</time>
      </trkpt>
      <trkpt lat="44.44827" lon="4.77858">
        <ele>352.46</ele>
        <time>2017-04-03T10:41:22Z</time>
      </trkpt>
      <trkpt lat="44.44826" lon="4.77859">
        <ele>352.46</ele>
        <time>2017-04-03T10:42:04Z</time>
      </trkpt>
      <trkpt lat="44.44825" lon="4.77858">
        <ele>353.9</ele>
        <time>2017-04-03T10:42:45Z</time>
      </trkpt>
      <trkpt lat="44.44825" lon="4.77859">
        <ele>353.9</ele>
        <time>2017-04-03T10:43:12Z</time>
      </trkpt>
      <trkpt lat="44.44825" lon="4.77859">
        <ele>354.38</ele>
        <time>2017-04-03T10:43:27Z</time>
      </trkpt>
      <trkpt lat="44.44825" lon="4.77859">
        <ele>352.94</ele>
        <time>2017-04-03T10:43:34Z</time>
      </trkpt>
      <trkpt lat="44.44825" lon="4.77859">
        <ele>354.86</ele>
        <time>2017-04-03T10:43:37Z</time>
      </trkpt>
      <trkpt lat="44.44826" lon="4.7786">
        <ele>353.42</ele>
        <time>2017-04-03T10:43:42Z</time>
      </trkpt>
      <trkpt lat="44.44828" lon="4.77859">
        <ele>353.42</ele>
        <time>2017-04-03T10:44:04Z</time>
      </trkpt>
      <trkpt lat="44.44827" lon="4.77858">
        <ele>353.42</ele>
        <time>2017-04-03T10:44:26Z</time>
      </trkpt>
      <trkpt lat="44.44826" lon="4.77857">
        <ele>353.9</ele>
        <time>2017-04-03T10:44:56Z</time>
      </trkpt>
      <trkpt lat="44.44825" lon="4.77858">
        <ele>354.38</ele>
        <time>2017-04-03T10:45:25Z</time>
      </trkpt>
      <trkpt lat="44.44824" lon="4.77857">
        <ele>352.94</ele>
        <time>2017-04-03T10:45:45Z</time>
      </trkpt>
      <trkpt lat="44.44824" lon="4.77856">
        <ele>352.94</ele>
        <time>2017-04-03T10:46:15Z</time>
      </trkpt>
      <trkpt lat="44.44824" lon="4.77856">
        <ele>354.38</ele>
        <time>2017-04-03T10:46:46Z</time>
      </trkpt>
      <trkpt lat="44.44825" lon="4.77856">
        <ele>354.38</ele>
        <time>2017-04-03T10:47:15Z</time>
      </trkpt>
      <trkpt lat="44.44825" lon="4.77858">
        <ele>354.38</ele>
        <time>2017-04-03T10:47:48Z</time>
      </trkpt>
      <trkpt lat="44.44825" lon="4.77858">
        <ele>353.42</ele>
        <time>2017-04-03T10:47:53Z</time>
      </trkpt>
      <trkpt lat="44.44826" lon="4.77859">
        <ele>354.38</ele>
        <time>2017-04-03T10:47:59Z</time>
      </trkpt>
      <trkpt lat="44.44826" lon="4.77859">
        <ele>355.83</ele>
        <time>2017-04-03T10:48:15Z</time>
      </trkpt>
      <trkpt lat="44.44826" lon="4.77859">
        <ele>355.83</ele>
        <time>2017-04-03T10:48:16Z</time>
      </trkpt>
      <trkpt lat="44.44827" lon="4.77858">
        <ele>353.9</ele>
        <time>2017-04-03T10:48:19Z</time>
      </trkpt>
      <trkpt lat="44.44832" lon="4.77855">
        <ele>355.83</ele>
        <time>2017-04-03T10:48:36Z</time>
      </trkpt>
      <trkpt lat="44.44831" lon="4.77837">
        <ele>355.83</ele>
        <time>2017-04-03T10:48:56Z</time>
      </trkpt>
      <trkpt lat="44.4483" lon="4.77832">
        <ele>354.86</ele>
        <time>2017-04-03T10:49:01Z</time>
      </trkpt>
      <trkpt lat="44.44825" lon="4.77818">
        <ele>353.42</ele>
        <time>2017-04-03T10:49:17Z</time>
      </trkpt>
      <trkpt lat="44.4482" lon="4.77803">
        <ele>352.46</ele>
        <time>2017-04-03T10:49:35Z</time>
      </trkpt>
      <trkpt lat="44.44811" lon="4.77793">
        <ele>351.02</ele>
        <time>2017-04-03T10:49:51Z</time>
      </trkpt>
      <trkpt lat="44.44804" lon="4.77786">
        <ele>350.54</ele>
        <time>2017-04-03T10:50:05Z</time>
      </trkpt>
      <trkpt lat="44.44797" lon="4.77773">
        <ele>349.1</ele>
        <time>2017-04-03T10:50:21Z</time>
      </trkpt>
      <trkpt lat="44.44796" lon="4.7776">
        <ele>348.13</ele>
        <time>2017-04-03T10:50:34Z</time>
      </trkpt>
      <trkpt lat="44.44795" lon="4.77748">
        <ele>347.17</ele>
        <time>2017-04-03T10:50:49Z</time>
      </trkpt>
      <trkpt lat="44.44796" lon="4.77747">
        <ele>346.69</ele>
        <time>2017-04-03T10:51:00Z</time>
      </trkpt>
      <trkpt lat="44.44792" lon="4.77741">
        <ele>347.65</ele>
        <time>2017-04-03T10:51:13Z</time>
      </trkpt>
      <trkpt lat="44.4479" lon="4.7773">
        <ele>344.77</ele>
        <time>2017-04-03T10:51:28Z</time>
      </trkpt>
      <trkpt lat="44.44786" lon="4.7772">
        <ele>346.21</ele>
        <time>2017-04-03T10:51:38Z</time>
      </trkpt>
      <trkpt lat="44.44786" lon="4.77719">
        <ele>345.25</ele>
        <time>2017-04-03T10:51:40Z</time>
      </trkpt>
      <trkpt lat="44.44784" lon="4.77704">
        <ele>344.29</ele>
        <time>2017-04-03T10:51:58Z</time>
      </trkpt>
      <trkpt lat="44.44785" lon="4.77701">
        <ele>342.85</ele>
        <time>2017-04-03T10:52:01Z</time>
      </trkpt>
      <trkpt lat="44.44785" lon="4.77701">
        <ele>344.29</ele>
        <time>2017-04-03T10:52:03Z</time>
      </trkpt>
      <trkpt lat="44.44787" lon="4.7769">
        <ele>343.81</ele>
        <time>2017-04-03T10:52:13Z</time>
      </trkpt>
      <trkpt lat="44.44787" lon="4.77688">
        <ele>343.81</ele>
        <time>2017-04-03T10:52:15Z</time>
      </trkpt>
      <trkpt lat="44.44787" lon="4.77669">
        <ele>342.37</ele>
        <time>2017-04-03T10:52:32Z</time>
      </trkpt>
      <trkpt lat="44.44788" lon="4.77653">
        <ele>341.41</ele>
        <time>2017-04-03T10:52:48Z</time>
      </trkpt>
      <trkpt lat="44.44787" lon="4.77636">
        <ele>339.96</ele>
        <time>2017-04-03T10:53:04Z</time>
      </trkpt>
      <trkpt lat="44.44786" lon="4.77635">
        <ele>338.52</ele>
        <time>2017-04-03T10:53:18Z</time>
      </trkpt>
      <trkpt lat="44.44786" lon="4.77625">
        <ele>337.56</ele>
        <time>2017-04-03T10:53:31Z</time>
      </trkpt>
      <trkpt lat="44.44786" lon="4.77617">
        <ele>339</ele>
        <time>2017-04-03T10:53:39Z</time>
      </trkpt>
      <trkpt lat="44.44782" lon="4.77604">
        <ele>337.08</ele>
        <time>2017-04-03T10:53:55Z</time>
      </trkpt>
      <trkpt lat="44.44775" lon="4.77598">
        <ele>336.6</ele>
        <time>2017-04-03T10:54:10Z</time>
      </trkpt>
      <trkpt lat="44.44768" lon="4.77593">
        <ele>336.12</ele>
        <time>2017-04-03T10:54:20Z</time>
      </trkpt>
      <trkpt lat="44.4476" lon="4.77597">
        <ele>335.64</ele>
        <time>2017-04-03T10:54:33Z</time>
      </trkpt>
      <trkpt lat="44.44756" lon="4.77606">
        <ele>335.64</ele>
        <time>2017-04-03T10:54:47Z</time>
      </trkpt>
      <trkpt lat="44.44755" lon="4.7761">
        <ele>337.08</ele>
        <time>2017-04-03T10:54:57Z</time>
      </trkpt>
      <trkpt lat="44.44754" lon="4.77611">
        <ele>335.16</ele>
        <time>2017-04-03T10:54:59Z</time>
      </trkpt>
      <trkpt lat="44.44745" lon="4.77612">
        <ele>336.12</ele>
        <time>2017-04-03T10:55:13Z</time>
      </trkpt>
      <trkpt lat="44.44737" lon="4.77607">
        <ele>334.2</ele>
        <time>2017-04-03T10:55:27Z</time>
      </trkpt>
      <trkpt lat="44.44729" lon="4.77607">
        <ele>333.23</ele>
        <time>2017-04-03T10:55:40Z</time>
      </trkpt>
      <trkpt lat="44.44723" lon="4.77605">
        <ele>333.23</ele>
        <time>2017-04-03T10:55:50Z</time>
      </trkpt>
      <trkpt lat="44.4472" lon="4.77607">
        <ele>333.71</ele>
        <time>2017-04-03T10:55:55Z</time>
      </trkpt>
      <trkpt lat="44.44719" lon="4.77607">
        <ele>331.79</ele>
        <time>2017-04-03T10:55:57Z</time>
      </trkpt>
      <trkpt lat="44.44713" lon="4.77608">
        <ele>331.79</ele>
        <time>2017-04-03T10:56:09Z</time>
      </trkpt>
      <trkpt lat="44.4471" lon="4.77609">
        <ele>330.83</ele>
        <time>2017-04-03T10:56:21Z</time>
      </trkpt>
      <trkpt lat="44.44706" lon="4.7761">
        <ele>330.83</ele>
        <time>2017-04-03T10:56:34Z</time>
      </trkpt>
      <trkpt lat="44.44706" lon="4.77611">
        <ele>329.39</ele>
        <time>2017-04-03T10:56:55Z</time>
      </trkpt>
      <trkpt lat="44.447" lon="4.77611">
        <ele>328.91</ele>
        <time>2017-04-03T10:57:09Z</time>
      </trkpt>
      <trkpt lat="44.44695" lon="4.77614">
        <ele>327.95</ele>
        <time>2017-04-03T10:57:22Z</time>
      </trkpt>
      <trkpt lat="44.44693" lon="4.77617">
        <ele>326.5</ele>
        <time>2017-04-03T10:57:36Z</time>
      </trkpt>
      <trkpt lat="44.44692" lon="4.77618">
        <ele>326.5</ele>
        <time>2017-04-03T10:57:54Z</time>
      </trkpt>
      <trkpt lat="44.44689" lon="4.77624">
        <ele>325.06</ele>
        <time>2017-04-03T10:58:11Z</time>
      </trkpt>
      <trkpt lat="44.44687" lon="4.77634">
        <ele>324.1</ele>
        <time>2017-04-03T10:58:25Z</time>
      </trkpt>
      <trkpt lat="44.44681" lon="4.77632">
        <ele>323.14</ele>
        <time>2017-04-03T10:58:40Z</time>
      </trkpt>
      <trkpt lat="44.44678" lon="4.7763">
        <ele>322.18</ele>
        <time>2017-04-03T10:58:55Z</time>
      </trkpt>
      <trkpt lat="44.44678" lon="4.7763">
        <ele>321.7</ele>
        <time>2017-04-03T10:59:25Z</time>
      </trkpt>
      <trkpt lat="44.44681" lon="4.77635">
        <ele>323.14</ele>
        <time>2017-04-03T10:59:37Z</time>
      </trkpt>
      <trkpt lat="44.44681" lon="4.77644">
        <ele>323.14</ele>
        <time>2017-04-03T10:59:51Z</time>
      </trkpt>
      <trkpt lat="44.44679" lon="4.77652">
        <ele>323.14</ele>
        <time>2017-04-03T11:00:03Z</time>
      </trkpt>
      <trkpt lat="44.44685" lon="4.77658">
        <ele>326.02</ele>
        <time>2017-04-03T11:00:16Z</time>
      </trkpt>
      <trkpt lat="44.44681" lon="4.77666">
        <ele>325.06</ele>
        <time>2017-04-03T11:00:30Z</time>
      </trkpt>
      <trkpt lat="44.44681" lon="4.77666">
        <ele>325.06</ele>
        <time>2017-04-03T11:00:31Z</time>
      </trkpt>
      <trkpt lat="44.44679" lon="4.77668">
        <ele>324.58</ele>
        <time>2017-04-03T11:00:45Z</time>
      </trkpt>
      <trkpt lat="44.44675" lon="4.77671">
        <ele>325.54</ele>
        <time>2017-04-03T11:00:59Z</time>
      </trkpt>
      <trkpt lat="44.44675" lon="4.77674">
        <ele>324.1</ele>
        <time>2017-04-03T11:01:04Z</time>
      </trkpt>
      <trkpt lat="44.44675" lon="4.7768">
        <ele>323.62</ele>
        <time>2017-04-03T11:01:14Z</time>
      </trkpt>
      <trkpt lat="44.44678" lon="4.77684">
        <ele>325.06</ele>
        <time>2017-04-03T11:01:22Z</time>
      </trkpt>
      <trkpt lat="44.4468" lon="4.77684">
        <ele>326.02</ele>
        <time>2017-04-03T11:01:35Z</time>
      </trkpt>
      <trkpt lat="44.4468" lon="4.77685">
        <ele>324.58</ele>
        <time>2017-04-03T11:01:48Z</time>
      </trkpt>
      <trkpt lat="44.4468" lon="4.77684">
        <ele>326.02</ele>
        <time>2017-04-03T11:02:09Z</time>
      </trkpt>
      <trkpt lat="44.44681" lon="4.77685">
        <ele>324.58</ele>
        <time>2017-04-03T11:02:17Z</time>
      </trkpt>
      <trkpt lat="44.44681" lon="4.77685">
        <ele>326.02</ele>
        <time>2017-04-03T11:02:32Z</time>
      </trkpt>
      <trkpt lat="44.44682" lon="4.77683">
        <ele>326.99</ele>
        <time>2017-04-03T11:02:41Z</time>
      </trkpt>
      <trkpt lat="44.44682" lon="4.77683">
        <ele>326.99</ele>
        <time>2017-04-03T11:02:43Z</time>
      </trkpt>
      <trkpt lat="44.44685" lon="4.7768">
        <ele>327.47</ele>
        <time>2017-04-03T11:02:48Z</time>
      </trkpt>
      <trkpt lat="44.44696" lon="4.77677">
        <ele>329.87</ele>
        <time>2017-04-03T11:03:01Z</time>
      </trkpt>
      <trkpt lat="44.44703" lon="4.77682">
        <ele>331.31</ele>
        <time>2017-04-03T11:03:15Z</time>
      </trkpt>
      <trkpt lat="44.44708" lon="4.77684">
        <ele>331.79</ele>
        <time>2017-04-03T11:03:24Z</time>
      </trkpt>
      <trkpt lat="44.44717" lon="4.77683">
        <ele>333.71</ele>
        <time>2017-04-03T11:03:37Z</time>
      </trkpt>
      <trkpt lat="44.44727" lon="4.77687">
        <ele>336.12</ele>
        <time>2017-04-03T11:03:51Z</time>
      </trkpt>
      <trkpt lat="44.4473" lon="4.77687">
        <ele>336.6</ele>
        <time>2017-04-03T11:03:54Z</time>
      </trkpt>
      <trkpt lat="44.44734" lon="4.77682">
        <ele>337.08</ele>
        <time>2017-04-03T11:04:00Z</time>
      </trkpt>
      <trkpt lat="44.44739" lon="4.77679">
        <ele>338.52</ele>
        <time>2017-04-03T11:04:06Z</time>
      </trkpt>
      <trkpt lat="44.44741" lon="4.77677">
        <ele>338.52</ele>
        <time>2017-04-03T11:04:09Z</time>
      </trkpt>
      <trkpt lat="44.44752" lon="4.77674">
        <ele>339.48</ele>
        <time>2017-04-03T11:04:23Z</time>
      </trkpt>
      <trkpt lat="44.44763" lon="4.7767">
        <ele>339.96</ele>
        <time>2017-04-03T11:04:36Z</time>
      </trkpt>
      <trkpt lat="44.44765" lon="4.7767">
        <ele>340.44</ele>
        <time>2017-04-03T11:04:38Z</time>
      </trkpt>
      <trkpt lat="44.44775" lon="4.77667">
        <ele>341.41</ele>
        <time>2017-04-03T11:04:51Z</time>
      </trkpt>
      <trkpt lat="44.4478" lon="4.77663">
        <ele>340.92</ele>
        <time>2017-04-03T11:05:04Z</time>
      </trkpt>
      <trkpt lat="44.4478" lon="4.7766">
        <ele>340.92</ele>
        <time>2017-04-03T11:05:07Z</time>
      </trkpt>
      <trkpt lat="44.44782" lon="4.77645">
        <ele>340.92</ele>
        <time>2017-04-03T11:05:23Z</time>
      </trkpt>
      <trkpt lat="44.44785" lon="4.77637">
        <ele>340.44</ele>
        <time>2017-04-03T11:05:38Z</time>
      </trkpt>
      <trkpt lat="44.44787" lon="4.77634">
        <ele>339.96</ele>
        <time>2017-04-03T11:05:58Z</time>
      </trkpt>
      <trkpt lat="44.44788" lon="4.77632">
        <ele>339.96</ele>
        <time>2017-04-03T11:06:07Z</time>
      </trkpt>
      <trkpt lat="44.44785" lon="4.77625">
        <ele>339.96</ele>
        <time>2017-04-03T11:06:13Z</time>
      </trkpt>
      <trkpt lat="44.44784" lon="4.77618">
        <ele>339.48</ele>
        <time>2017-04-03T11:06:20Z</time>
      </trkpt>
      <trkpt lat="44.44784" lon="4.77614">
        <ele>338.52</ele>
        <time>2017-04-03T11:06:23Z</time>
      </trkpt>
      <trkpt lat="44.44791" lon="4.77601">
        <ele>337.56</ele>
        <time>2017-04-03T11:06:38Z</time>
      </trkpt>
      <trkpt lat="44.44791" lon="4.77593">
        <ele>336.6</ele>
        <time>2017-04-03T11:06:52Z</time>
      </trkpt>
      <trkpt lat="44.44786" lon="4.77583">
        <ele>336.12</ele>
        <time>2017-04-03T11:07:09Z</time>
      </trkpt>
      <trkpt lat="44.44789" lon="4.7758">
        <ele>335.64</ele>
        <time>2017-04-03T11:07:29Z</time>
      </trkpt>
      <trkpt lat="44.448" lon="4.77575">
        <ele>335.64</ele>
        <time>2017-04-03T11:07:40Z</time>
      </trkpt>
      <trkpt lat="44.44804" lon="4.77574">
        <ele>336.6</ele>
        <time>2017-04-03T11:07:44Z</time>
      </trkpt>
      <trkpt lat="44.44807" lon="4.77575">
        <ele>334.68</ele>
        <time>2017-04-03T11:07:47Z</time>
      </trkpt>
      <trkpt lat="44.44808" lon="4.77575">
        <ele>334.68</ele>
        <time>2017-04-03T11:07:48Z</time>
      </trkpt>
      <trkpt lat="44.44815" lon="4.77579">
        <ele>334.68</ele>
        <time>2017-04-03T11:07:58Z</time>
      </trkpt>
      <trkpt lat="44.4482" lon="4.77578">
        <ele>333.71</ele>
        <time>2017-04-03T11:08:11Z</time>
      </trkpt>
      <trkpt lat="44.44828" lon="4.77581">
        <ele>333.23</ele>
        <time>2017-04-03T11:08:21Z</time>
      </trkpt>
      <trkpt lat="44.44829" lon="4.7758">
        <ele>333.23</ele>
        <time>2017-04-03T11:08:25Z</time>
      </trkpt>
      <trkpt lat="44.44825" lon="4.77581">
        <ele>333.23</ele>
        <time>2017-04-03T11:08:29Z</time>
      </trkpt>
      <trkpt lat="44.44822" lon="4.77579">
        <ele>333.23</ele>
        <time>2017-04-03T11:08:33Z</time>
      </trkpt>
      <trkpt lat="44.4481" lon="4.77577">
        <ele>335.16</ele>
        <time>2017-04-03T11:08:42Z</time>
      </trkpt>
      <trkpt lat="44.44807" lon="4.77575">
        <ele>335.16</ele>
        <time>2017-04-03T11:08:45Z</time>
      </trkpt>
      <trkpt lat="44.44803" lon="4.77575">
        <ele>335.16</ele>
        <time>2017-04-03T11:08:47Z</time>
      </trkpt>
      <trkpt lat="44.44801" lon="4.77575">
        <ele>335.64</ele>
        <time>2017-04-03T11:08:50Z</time>
      </trkpt>
      <trkpt lat="44.44799" lon="4.77576">
        <ele>336.6</ele>
        <time>2017-04-03T11:08:51Z</time>
      </trkpt>
      <trkpt lat="44.44797" lon="4.77576">
        <ele>336.6</ele>
        <time>2017-04-03T11:08:52Z</time>
      </trkpt>
      <trkpt lat="44.44795" lon="4.77577">
        <ele>336.6</ele>
        <time>2017-04-03T11:08:55Z</time>
      </trkpt>
      <trkpt lat="44.44794" lon="4.77582">
        <ele>336.6</ele>
        <time>2017-04-03T11:09:08Z</time>
      </trkpt>
      <trkpt lat="44.44795" lon="4.77582">
        <ele>335.64</ele>
        <time>2017-04-03T11:09:30Z</time>
      </trkpt>
      <trkpt lat="44.44795" lon="4.77583">
        <ele>335.64</ele>
        <time>2017-04-03T11:09:46Z</time>
      </trkpt>
      <trkpt lat="44.44795" lon="4.77582">
        <ele>336.6</ele>
        <time>2017-04-03T11:09:57Z</time>
      </trkpt>
      <trkpt lat="44.44796" lon="4.77582">
        <ele>336.6</ele>
        <time>2017-04-03T11:10:12Z</time>
      </trkpt>
      <trkpt lat="44.44796" lon="4.77584">
        <ele>336.12</ele>
        <time>2017-04-03T11:10:36Z</time>
      </trkpt>
      <trkpt lat="44.44795" lon="4.77585">
        <ele>336.12</ele>
        <time>2017-04-03T11:10:49Z</time>
      </trkpt>
      <trkpt lat="44.44797" lon="4.77585">
        <ele>336.12</ele>
        <time>2017-04-03T11:10:51Z</time>
      </trkpt>
      <trkpt lat="44.44802" lon="4.77581">
        <ele>336.12</ele>
        <time>2017-04-03T11:10:57Z</time>
      </trkpt>
      <trkpt lat="44.44804" lon="4.77579">
        <ele>336.12</ele>
        <time>2017-04-03T11:10:59Z</time>
      </trkpt>
      <trkpt lat="44.44808" lon="4.77577">
        <ele>335.64</ele>
        <time>2017-04-03T11:11:03Z</time>
      </trkpt>
      <trkpt lat="44.44811" lon="4.77578">
        <ele>335.16</ele>
        <time>2017-04-03T11:11:06Z</time>
      </trkpt>
      <trkpt lat="44.44818" lon="4.77579">
        <ele>334.68</ele>
        <time>2017-04-03T11:11:12Z</time>
      </trkpt>
      <trkpt lat="44.4482" lon="4.77579">
        <ele>334.68</ele>
        <time>2017-04-03T11:11:13Z</time>
      </trkpt>
      <trkpt lat="44.44831" lon="4.77579">
        <ele>334.2</ele>
        <time>2017-04-03T11:11:25Z</time>
      </trkpt>
      <trkpt lat="44.44834" lon="4.77576">
        <ele>333.71</ele>
        <time>2017-04-03T11:11:30Z</time>
      </trkpt>
      <trkpt lat="44.4484" lon="4.7757">
        <ele>331.79</ele>
        <time>2017-04-03T11:11:42Z</time>
      </trkpt>
      <trkpt lat="44.44841" lon="4.77565">
        <ele>331.31</ele>
        <time>2017-04-03T11:11:51Z</time>
      </trkpt>
      <trkpt lat="44.44847" lon="4.77559">
        <ele>328.91</ele>
        <time>2017-04-03T11:12:04Z</time>
      </trkpt>
      <trkpt lat="44.44852" lon="4.77552">
        <ele>326.99</ele>
        <time>2017-04-03T11:12:18Z</time>
      </trkpt>
      <trkpt lat="44.44859" lon="4.77546">
        <ele>324.58</ele>
        <time>2017-04-03T11:12:33Z</time>
      </trkpt>
      <trkpt lat="44.44864" lon="4.77542">
        <ele>324.1</ele>
        <time>2017-04-03T11:12:46Z</time>
      </trkpt>
      <trkpt lat="44.44874" lon="4.77534">
        <ele>322.66</ele>
        <time>2017-04-03T11:13:00Z</time>
      </trkpt>
      <trkpt lat="44.44882" lon="4.77524">
        <ele>322.18</ele>
        <time>2017-04-03T11:13:15Z</time>
      </trkpt>
      <trkpt lat="44.44885" lon="4.77521">
        <ele>324.1</ele>
        <time>2017-04-03T11:13:20Z</time>
      </trkpt>
      <trkpt lat="44.44888" lon="4.7752">
        <ele>323.14</ele>
        <time>2017-04-03T11:13:23Z</time>
      </trkpt>
      <trkpt lat="44.44897" lon="4.77518">
        <ele>323.14</ele>
        <time>2017-04-03T11:13:36Z</time>
      </trkpt>
      <trkpt lat="44.44904" lon="4.77511">
        <ele>320.74</ele>
        <time>2017-04-03T11:13:51Z</time>
      </trkpt>
      <trkpt lat="44.44906" lon="4.77503">
        <ele>322.18</ele>
        <time>2017-04-03T11:14:01Z</time>
      </trkpt>
      <trkpt lat="44.44908" lon="4.77496">
        <ele>322.66</ele>
        <time>2017-04-03T11:14:11Z</time>
      </trkpt>
      <trkpt lat="44.44912" lon="4.77488">
        <ele>324.58</ele>
        <time>2017-04-03T11:14:25Z</time>
      </trkpt>
      <trkpt lat="44.44914" lon="4.77479">
        <ele>325.54</ele>
        <time>2017-04-03T11:14:38Z</time>
      </trkpt>
      <trkpt lat="44.44914" lon="4.77471">
        <ele>326.5</ele>
        <time>2017-04-03T11:14:50Z</time>
      </trkpt>
      <trkpt lat="44.4491" lon="4.77467">
        <ele>329.39</ele>
        <time>2017-04-03T11:15:04Z</time>
      </trkpt>
      <trkpt lat="44.44906" lon="4.77465">
        <ele>331.31</ele>
        <time>2017-04-03T11:15:20Z</time>
      </trkpt>
      <trkpt lat="44.44902" lon="4.7746">
        <ele>332.75</ele>
        <time>2017-04-03T11:15:33Z</time>
      </trkpt>
      <trkpt lat="44.44901" lon="4.77454">
        <ele>333.23</ele>
        <time>2017-04-03T11:15:40Z</time>
      </trkpt>
      <trkpt lat="44.44897" lon="4.77452">
        <ele>333.71</ele>
        <time>2017-04-03T11:15:52Z</time>
      </trkpt>
      <trkpt lat="44.44893" lon="4.77447">
        <ele>334.68</ele>
        <time>2017-04-03T11:16:03Z</time>
      </trkpt>
      <trkpt lat="44.44887" lon="4.77438">
        <ele>335.16</ele>
        <time>2017-04-03T11:16:18Z</time>
      </trkpt>
      <trkpt lat="44.44887" lon="4.77438">
        <ele>335.16</ele>
        <time>2017-04-03T11:16:19Z</time>
      </trkpt>
      <trkpt lat="44.44883" lon="4.77432">
        <ele>334.68</ele>
        <time>2017-04-03T11:16:29Z</time>
      </trkpt>
      <trkpt lat="44.44876" lon="4.77432">
        <ele>336.12</ele>
        <time>2017-04-03T11:16:40Z</time>
      </trkpt>
      <trkpt lat="44.44868" lon="4.77427">
        <ele>336.12</ele>
        <time>2017-04-03T11:16:54Z</time>
      </trkpt>
      <trkpt lat="44.44863" lon="4.77423">
        <ele>335.64</ele>
        <time>2017-04-03T11:17:06Z</time>
      </trkpt>
      <trkpt lat="44.44862" lon="4.77422">
        <ele>335.64</ele>
        <time>2017-04-03T11:17:07Z</time>
      </trkpt>
      <trkpt lat="44.44858" lon="4.77414">
        <ele>334.68</ele>
        <time>2017-04-03T11:17:20Z</time>
      </trkpt>
      <trkpt lat="44.44851" lon="4.77408">
        <ele>333.71</ele>
        <time>2017-04-03T11:17:34Z</time>
      </trkpt>
      <trkpt lat="44.44852" lon="4.77406">
        <ele>332.75</ele>
        <time>2017-04-03T11:17:45Z</time>
      </trkpt>
      <trkpt lat="44.44851" lon="4.77403">
        <ele>332.75</ele>
        <time>2017-04-03T11:18:01Z</time>
      </trkpt>
      <trkpt lat="44.44851" lon="4.77399">
        <ele>332.75</ele>
        <time>2017-04-03T11:18:17Z</time>
      </trkpt>
      <trkpt lat="44.4485" lon="4.77392">
        <ele>331.31</ele>
        <time>2017-04-03T11:18:34Z</time>
      </trkpt>
      <trkpt lat="44.44848" lon="4.77386">
        <ele>329.87</ele>
        <time>2017-04-03T11:18:45Z</time>
      </trkpt>
      <trkpt lat="44.44842" lon="4.77387">
        <ele>329.39</ele>
        <time>2017-04-03T11:18:59Z</time>
      </trkpt>
      <trkpt lat="44.44835" lon="4.7739">
        <ele>328.91</ele>
        <time>2017-04-03T11:19:11Z</time>
      </trkpt>
      <trkpt lat="44.44828" lon="4.77385">
        <ele>327.47</ele>
        <time>2017-04-03T11:19:24Z</time>
      </trkpt>
      <trkpt lat="44.44826" lon="4.7738">
        <ele>326.5</ele>
        <time>2017-04-03T11:19:39Z</time>
      </trkpt>
      <trkpt lat="44.44819" lon="4.77379">
        <ele>325.06</ele>
        <time>2017-04-03T11:19:52Z</time>
      </trkpt>
      <trkpt lat="44.44812" lon="4.77375">
        <ele>324.1</ele>
        <time>2017-04-03T11:20:06Z</time>
      </trkpt>
      <trkpt lat="44.44806" lon="4.77373">
        <ele>323.62</ele>
        <time>2017-04-03T11:20:22Z</time>
      </trkpt>
      <trkpt lat="44.44805" lon="4.7737">
        <ele>322.66</ele>
        <time>2017-04-03T11:20:36Z</time>
      </trkpt>
      <trkpt lat="44.44806" lon="4.77372">
        <ele>323.62</ele>
        <time>2017-04-03T11:21:06Z</time>
      </trkpt>
      <trkpt lat="44.44806" lon="4.77372">
        <ele>324.1</ele>
        <time>2017-04-03T11:21:07Z</time>
      </trkpt>
      <trkpt lat="44.44807" lon="4.7737">
        <ele>322.18</ele>
        <time>2017-04-03T11:21:10Z</time>
      </trkpt>
      <trkpt lat="44.44806" lon="4.77365">
        <ele>320.74</ele>
        <time>2017-04-03T11:21:23Z</time>
      </trkpt>
      <trkpt lat="44.44803" lon="4.77366">
        <ele>320.74</ele>
        <time>2017-04-03T11:21:34Z</time>
      </trkpt>
      <trkpt lat="44.44801" lon="4.77367">
        <ele>320.74</ele>
        <time>2017-04-03T11:21:37Z</time>
      </trkpt>
      <trkpt lat="44.44798" lon="4.77367">
        <ele>323.14</ele>
        <time>2017-04-03T11:21:45Z</time>
      </trkpt>
      <trkpt lat="44.44796" lon="4.77364">
        <ele>319.78</ele>
        <time>2017-04-03T11:21:50Z</time>
      </trkpt>
      <trkpt lat="44.44792" lon="4.77354">
        <ele>318.33</ele>
        <time>2017-04-03T11:22:05Z</time>
      </trkpt>
      <trkpt lat="44.44786" lon="4.77343">
        <ele>315.45</ele>
        <time>2017-04-03T11:22:21Z</time>
      </trkpt>
      <trkpt lat="44.44777" lon="4.77339">
        <ele>314.01</ele>
        <time>2017-04-03T11:22:35Z</time>
      </trkpt>
      <trkpt lat="44.44774" lon="4.77336">
        <ele>313.05</ele>
        <time>2017-04-03T11:22:46Z</time>
      </trkpt>
      <trkpt lat="44.44767" lon="4.77328">
        <ele>311.6</ele>
        <time>2017-04-03T11:22:59Z</time>
      </trkpt>
      <trkpt lat="44.44765" lon="4.77326">
        <ele>310.64</ele>
        <time>2017-04-03T11:23:11Z</time>
      </trkpt>
      <trkpt lat="44.44758" lon="4.77322">
        <ele>309.68</ele>
        <time>2017-04-03T11:23:24Z</time>
      </trkpt>
      <trkpt lat="44.44752" lon="4.77317">
        <ele>308.24</ele>
        <time>2017-04-03T11:23:39Z</time>
      </trkpt>
      <trkpt lat="44.44742" lon="4.77308">
        <ele>306.8</ele>
        <time>2017-04-03T11:23:53Z</time>
      </trkpt>
      <trkpt lat="44.44739" lon="4.77305">
        <ele>306.32</ele>
        <time>2017-04-03T11:24:05Z</time>
      </trkpt>
      <trkpt lat="44.44735" lon="4.773">
        <ele>304.88</ele>
        <time>2017-04-03T11:24:17Z</time>
      </trkpt>
      <trkpt lat="44.4473" lon="4.77295">
        <ele>303.43</ele>
        <time>2017-04-03T11:24:33Z</time>
      </trkpt>
      <trkpt lat="44.44727" lon="4.77294">
        <ele>303.91</ele>
        <time>2017-04-03T11:24:38Z</time>
      </trkpt>
      <trkpt lat="44.44728" lon="4.77294">
        <ele>302.47</ele>
        <time>2017-04-03T11:24:50Z</time>
      </trkpt>
      <trkpt lat="44.44722" lon="4.77289">
        <ele>301.51</ele>
        <time>2017-04-03T11:25:05Z</time>
      </trkpt>
      <trkpt lat="44.44717" lon="4.77285">
        <ele>300.55</ele>
        <time>2017-04-03T11:25:17Z</time>
      </trkpt>
      <trkpt lat="44.44712" lon="4.77281">
        <ele>300.55</ele>
        <time>2017-04-03T11:25:33Z</time>
      </trkpt>
      <trkpt lat="44.44708" lon="4.77276">
        <ele>299.59</ele>
        <time>2017-04-03T11:25:44Z</time>
      </trkpt>
      <trkpt lat="44.44705" lon="4.77273">
        <ele>298.63</ele>
        <time>2017-04-03T11:25:55Z</time>
      </trkpt>
      <trkpt lat="44.44698" lon="4.7727">
        <ele>298.15</ele>
        <time>2017-04-03T11:26:08Z</time>
      </trkpt>
      <trkpt lat="44.44694" lon="4.7727">
        <ele>298.15</ele>
        <time>2017-04-03T11:26:20Z</time>
      </trkpt>
      <trkpt lat="44.44691" lon="4.77267">
        <ele>298.15</ele>
        <time>2017-04-03T11:26:34Z</time>
      </trkpt>
      <trkpt lat="44.44685" lon="4.77263">
        <ele>297.18</ele>
        <time>2017-04-03T11:26:47Z</time>
      </trkpt>
      <trkpt lat="44.44678" lon="4.77262">
        <ele>295.26</ele>
        <time>2017-04-03T11:27:02Z</time>
      </trkpt>
      <trkpt lat="44.44676" lon="4.77262">
        <ele>296.7</ele>
        <time>2017-04-03T11:27:07Z</time>
      </trkpt>
      <trkpt lat="44.44669" lon="4.77263">
        <ele>297.18</ele>
        <time>2017-04-03T11:27:19Z</time>
      </trkpt>
      <trkpt lat="44.44667" lon="4.7726">
        <ele>296.22</ele>
        <time>2017-04-03T11:27:32Z</time>
      </trkpt>
      <trkpt lat="44.44667" lon="4.77259">
        <ele>295.74</ele>
        <time>2017-04-03T11:27:54Z</time>
      </trkpt>
      <trkpt lat="44.44666" lon="4.7726">
        <ele>296.7</ele>
        <time>2017-04-03T11:28:00Z</time>
      </trkpt>
      <trkpt lat="44.44663" lon="4.77259">
        <ele>297.18</ele>
        <time>2017-04-03T11:28:14Z</time>
      </trkpt>
      <trkpt lat="44.44664" lon="4.7726">
        <ele>295.74</ele>
        <time>2017-04-03T11:28:18Z</time>
      </trkpt>
      <trkpt lat="44.44663" lon="4.7726">
        <ele>297.18</ele>
        <time>2017-04-03T11:28:29Z</time>
      </trkpt>
      <trkpt lat="44.44663" lon="4.77259">
        <ele>295.74</ele>
        <time>2017-04-03T11:28:35Z</time>
      </trkpt>
      <trkpt lat="44.44662" lon="4.77259">
        <ele>295.26</ele>
        <time>2017-04-03T11:28:53Z</time>
      </trkpt>
      <trkpt lat="44.44663" lon="4.77257">
        <ele>295.26</ele>
        <time>2017-04-03T11:29:17Z</time>
      </trkpt>
      <trkpt lat="44.44661" lon="4.77256">
        <ele>295.26</ele>
        <time>2017-04-03T11:29:31Z</time>
      </trkpt>
      <trkpt lat="44.4466" lon="4.77257">
        <ele>294.78</ele>
        <time>2017-04-03T11:29:47Z</time>
      </trkpt>
      <trkpt lat="44.44661" lon="4.77257">
        <ele>294.78</ele>
        <time>2017-04-03T11:30:04Z</time>
      </trkpt>
      <trkpt lat="44.44661" lon="4.77257">
        <ele>294.78</ele>
        <time>2017-04-03T11:30:15Z</time>
      </trkpt>
      <trkpt lat="44.44661" lon="4.77256">
        <ele>294.3</ele>
        <time>2017-04-03T11:30:34Z</time>
      </trkpt>
      <trkpt lat="44.44662" lon="4.77253">
        <ele>293.82</ele>
        <time>2017-04-03T11:31:10Z</time>
      </trkpt>
      <trkpt lat="44.44661" lon="4.77257">
        <ele>295.26</ele>
        <time>2017-04-03T11:31:26Z</time>
      </trkpt>
      <trkpt lat="44.4466" lon="4.77259">
        <ele>296.22</ele>
        <time>2017-04-03T11:31:46Z</time>
      </trkpt>
      <trkpt lat="44.44659" lon="4.77257">
        <ele>294.78</ele>
        <time>2017-04-03T11:31:49Z</time>
      </trkpt>
      <trkpt lat="44.44656" lon="4.77255">
        <ele>293.34</ele>
        <time>2017-04-03T11:32:04Z</time>
      </trkpt>
      <trkpt lat="44.44653" lon="4.77254">
        <ele>292.38</ele>
        <time>2017-04-03T11:32:18Z</time>
      </trkpt>
      <trkpt lat="44.44649" lon="4.77255">
        <ele>291.42</ele>
        <time>2017-04-03T11:32:36Z</time>
      </trkpt>
      <trkpt lat="44.44647" lon="4.77258">
        <ele>288.53</ele>
        <time>2017-04-03T11:32:49Z</time>
      </trkpt>
      <trkpt lat="44.44647" lon="4.77261">
        <ele>289.01</ele>
        <time>2017-04-03T11:32:57Z</time>
      </trkpt>
      <trkpt lat="44.44647" lon="4.77265">
        <ele>288.05</ele>
        <time>2017-04-03T11:33:09Z</time>
      </trkpt>
      <trkpt lat="44.44643" lon="4.77274">
        <ele>285.17</ele>
        <time>2017-04-03T11:33:26Z</time>
      </trkpt>
      <trkpt lat="44.44641" lon="4.77277">
        <ele>283.25</ele>
        <time>2017-04-03T11:33:39Z</time>
      </trkpt>
      <trkpt lat="44.4464" lon="4.77282">
        <ele>282.77</ele>
        <time>2017-04-03T11:33:53Z</time>
      </trkpt>
      <trkpt lat="44.44638" lon="4.77288">
        <ele>281.8</ele>
        <time>2017-04-03T11:34:07Z</time>
      </trkpt>
      <trkpt lat="44.44636" lon="4.77291">
        <ele>280.36</ele>
        <time>2017-04-03T11:34:18Z</time>
      </trkpt>
      <trkpt lat="44.44631" lon="4.77291">
        <ele>279.4</ele>
        <time>2017-04-03T11:34:33Z</time>
      </trkpt>
      <trkpt lat="44.44628" lon="4.77283">
        <ele>277.96</ele>
        <time>2017-04-03T11:34:47Z</time>
      </trkpt>
      <trkpt lat="44.44625" lon="4.77285">
        <ele>279.88</ele>
        <time>2017-04-03T11:35:33Z</time>
      </trkpt>
      <trkpt lat="44.44623" lon="4.7729">
        <ele>279.4</ele>
        <time>2017-04-03T11:35:50Z</time>
      </trkpt>
      <trkpt lat="44.4462" lon="4.77288">
        <ele>278.44</ele>
        <time>2017-04-03T11:36:03Z</time>
      </trkpt>
      <trkpt lat="44.44615" lon="4.77288">
        <ele>277.96</ele>
        <time>2017-04-03T11:36:15Z</time>
      </trkpt>
      <trkpt lat="44.44613" lon="4.77289">
        <ele>279.4</ele>
        <time>2017-04-03T11:36:26Z</time>
      </trkpt>
      <trkpt lat="44.44609" lon="4.77289">
        <ele>278.92</ele>
        <time>2017-04-03T11:36:36Z</time>
      </trkpt>
      <trkpt lat="44.44607" lon="4.77291">
        <ele>280.36</ele>
        <time>2017-04-03T11:36:40Z</time>
      </trkpt>
      <trkpt lat="44.44606" lon="4.77295">
        <ele>282.28</ele>
        <time>2017-04-03T11:36:53Z</time>
      </trkpt>
      <trkpt lat="44.44603" lon="4.77296">
        <ele>282.77</ele>
        <time>2017-04-03T11:37:07Z</time>
      </trkpt>
      <trkpt lat="44.446" lon="4.77297">
        <ele>280.84</ele>
        <time>2017-04-03T11:37:19Z</time>
      </trkpt>
      <trkpt lat="44.44598" lon="4.77296">
        <ele>279.4</ele>
        <time>2017-04-03T11:37:31Z</time>
      </trkpt>
      <trkpt lat="44.44599" lon="4.77294">
        <ele>279.4</ele>
        <time>2017-04-03T11:37:43Z</time>
      </trkpt>
      <trkpt lat="44.44596" lon="4.77296">
        <ele>279.4</ele>
        <time>2017-04-03T11:37:55Z</time>
      </trkpt>
      <trkpt lat="44.44593" lon="4.77298">
        <ele>279.4</ele>
        <time>2017-04-03T11:38:08Z</time>
      </trkpt>
      <trkpt lat="44.4459" lon="4.773">
        <ele>277.96</ele>
        <time>2017-04-03T11:38:22Z</time>
      </trkpt>
      <trkpt lat="44.44587" lon="4.77301">
        <ele>276.52</ele>
        <time>2017-04-03T11:38:36Z</time>
      </trkpt>
      <trkpt lat="44.44586" lon="4.77302">
        <ele>276.52</ele>
        <time>2017-04-03T11:38:49Z</time>
      </trkpt>
      <trkpt lat="44.44585" lon="4.77297">
        <ele>276.04</ele>
        <time>2017-04-03T11:39:03Z</time>
      </trkpt>
      <trkpt lat="44.44581" lon="4.77302">
        <ele>274.59</ele>
        <time>2017-04-03T11:39:19Z</time>
      </trkpt>
      <trkpt lat="44.44579" lon="4.77301">
        <ele>274.11</ele>
        <time>2017-04-03T11:39:32Z</time>
      </trkpt>
      <trkpt lat="44.44576" lon="4.773">
        <ele>272.67</ele>
        <time>2017-04-03T11:39:45Z</time>
      </trkpt>
      <trkpt lat="44.44576" lon="4.77295">
        <ele>271.71</ele>
        <time>2017-04-03T11:39:58Z</time>
      </trkpt>
      <trkpt lat="44.44574" lon="4.77291">
        <ele>270.27</ele>
        <time>2017-04-03T11:40:12Z</time>
      </trkpt>
      <trkpt lat="44.44569" lon="4.77289">
        <ele>270.27</ele>
        <time>2017-04-03T11:40:26Z</time>
      </trkpt>
      <trkpt lat="44.44569" lon="4.7729">
        <ele>271.23</ele>
        <time>2017-04-03T11:40:28Z</time>
      </trkpt>
      <trkpt lat="44.44568" lon="4.77291">
        <ele>273.15</ele>
        <time>2017-04-03T11:40:40Z</time>
      </trkpt>
      <trkpt lat="44.44565" lon="4.77294">
        <ele>274.11</ele>
        <time>2017-04-03T11:40:54Z</time>
      </trkpt>
      <trkpt lat="44.44559" lon="4.77293">
        <ele>277</ele>
        <time>2017-04-03T11:41:09Z</time>
      </trkpt>
      <trkpt lat="44.44552" lon="4.77285">
        <ele>278.44</ele>
        <time>2017-04-03T11:41:24Z</time>
      </trkpt>
      <trkpt lat="44.44552" lon="4.7728">
        <ele>279.88</ele>
        <time>2017-04-03T11:41:43Z</time>
      </trkpt>
      <trkpt lat="44.44552" lon="4.7728">
        <ele>277.96</ele>
        <time>2017-04-03T11:41:46Z</time>
      </trkpt>
      <trkpt lat="44.44551" lon="4.77283">
        <ele>279.4</ele>
        <time>2017-04-03T11:42:00Z</time>
      </trkpt>
      <trkpt lat="44.4455" lon="4.77284">
        <ele>279.4</ele>
        <time>2017-04-03T11:42:23Z</time>
      </trkpt>
      <trkpt lat="44.44549" lon="4.77282">
        <ele>279.4</ele>
        <time>2017-04-03T11:42:50Z</time>
      </trkpt>
      <trkpt lat="44.4455" lon="4.77283">
        <ele>277.96</ele>
        <time>2017-04-03T11:43:09Z</time>
      </trkpt>
      <trkpt lat="44.44549" lon="4.77283">
        <ele>279.4</ele>
        <time>2017-04-03T11:43:21Z</time>
      </trkpt>
      <trkpt lat="44.44549" lon="4.77283">
        <ele>278.44</ele>
        <time>2017-04-03T11:43:29Z</time>
      </trkpt>
      <trkpt lat="44.44549" lon="4.77283">
        <ele>277</ele>
        <time>2017-04-03T11:43:33Z</time>
      </trkpt>
      <trkpt lat="44.44549" lon="4.77283">
        <ele>278.44</ele>
        <time>2017-04-03T11:43:39Z</time>
      </trkpt>
      <trkpt lat="44.44549" lon="4.77283">
        <ele>279.88</ele>
        <time>2017-04-03T11:43:42Z</time>
      </trkpt>
      <trkpt lat="44.4455" lon="4.77283">
        <ele>278.44</ele>
        <time>2017-04-03T11:43:44Z</time>
      </trkpt>
      <trkpt lat="44.44552" lon="4.77283">
        <ele>278.44</ele>
        <time>2017-04-03T11:44:07Z</time>
      </trkpt>
      <trkpt lat="44.44554" lon="4.7728">
        <ele>277.96</ele>
        <time>2017-04-03T11:44:27Z</time>
      </trkpt>
      <trkpt lat="44.44555" lon="4.7728">
        <ele>277.48</ele>
        <time>2017-04-03T11:44:40Z</time>
      </trkpt>
      <trkpt lat="44.44552" lon="4.77279">
        <ele>277.48</ele>
        <time>2017-04-03T11:44:51Z</time>
      </trkpt>
      <trkpt lat="44.44547" lon="4.77275">
        <ele>276.52</ele>
        <time>2017-04-03T11:45:03Z</time>
      </trkpt>
      <trkpt lat="44.44542" lon="4.77273">
        <ele>277.48</ele>
        <time>2017-04-03T11:45:13Z</time>
      </trkpt>
      <trkpt lat="44.44539" lon="4.77269">
        <ele>277.96</ele>
        <time>2017-04-03T11:45:26Z</time>
      </trkpt>
      <trkpt lat="44.44539" lon="4.77269">
        <ele>277.96</ele>
        <time>2017-04-03T11:45:27Z</time>
      </trkpt>
      <trkpt lat="44.44532" lon="4.77259">
        <ele>276.52</ele>
        <time>2017-04-03T11:45:41Z</time>
      </trkpt>
      <trkpt lat="44.44529" lon="4.77257">
        <ele>277</ele>
        <time>2017-04-03T11:45:55Z</time>
      </trkpt>
      <trkpt lat="44.44522" lon="4.77252">
        <ele>277.48</ele>
        <time>2017-04-03T11:46:09Z</time>
      </trkpt>
      <trkpt lat="44.44522" lon="4.77247">
        <ele>277.96</ele>
        <time>2017-04-03T11:46:21Z</time>
      </trkpt>
      <trkpt lat="44.44516" lon="4.77243">
        <ele>274.59</ele>
        <time>2017-04-03T11:46:32Z</time>
      </trkpt>
      <trkpt lat="44.44516" lon="4.77243">
        <ele>274.59</ele>
        <time>2017-04-03T11:46:33Z</time>
      </trkpt>
      <trkpt lat="44.44508" lon="4.77236">
        <ele>274.59</ele>
        <time>2017-04-03T11:46:50Z</time>
      </trkpt>
      <trkpt lat="44.44499" lon="4.77236">
        <ele>274.59</ele>
        <time>2017-04-03T11:47:03Z</time>
      </trkpt>
      <trkpt lat="44.44498" lon="4.77236">
        <ele>276.04</ele>
        <time>2017-04-03T11:47:14Z</time>
      </trkpt>
      <trkpt lat="44.44496" lon="4.77236">
        <ele>274.59</ele>
        <time>2017-04-03T11:47:17Z</time>
      </trkpt>
      <trkpt lat="44.44491" lon="4.77234">
        <ele>273.15</ele>
        <time>2017-04-03T11:47:32Z</time>
      </trkpt>
      <trkpt lat="44.44488" lon="4.77234">
        <ele>271.71</ele>
        <time>2017-04-03T11:47:46Z</time>
      </trkpt>
      <trkpt lat="44.44483" lon="4.77237">
        <ele>271.23</ele>
        <time>2017-04-03T11:47:58Z</time>
      </trkpt>
      <trkpt lat="44.44481" lon="4.77242">
        <ele>272.19</ele>
        <time>2017-04-03T11:48:12Z</time>
      </trkpt>
      <trkpt lat="44.44479" lon="4.77241">
        <ele>271.23</ele>
        <time>2017-04-03T11:48:28Z</time>
      </trkpt>
      <trkpt lat="44.4448" lon="4.77241">
        <ele>270.27</ele>
        <time>2017-04-03T11:48:49Z</time>
      </trkpt>
      <trkpt lat="44.4448" lon="4.77241">
        <ele>270.27</ele>
        <time>2017-04-03T11:49:05Z</time>
      </trkpt>
      <trkpt lat="44.44481" lon="4.77241">
        <ele>271.71</ele>
        <time>2017-04-03T11:49:30Z</time>
      </trkpt>
      <trkpt lat="44.44483" lon="4.77247">
        <ele>272.19</ele>
        <time>2017-04-03T11:49:49Z</time>
      </trkpt>
      <trkpt lat="44.44479" lon="4.77252">
        <ele>270.27</ele>
        <time>2017-04-03T11:50:04Z</time>
      </trkpt>
      <trkpt lat="44.44474" lon="4.77256">
        <ele>268.35</ele>
        <time>2017-04-03T11:50:18Z</time>
      </trkpt>
      <trkpt lat="44.44471" lon="4.77262">
        <ele>268.35</ele>
        <time>2017-04-03T11:50:32Z</time>
      </trkpt>
      <trkpt lat="44.44468" lon="4.77265">
        <ele>267.38</ele>
        <time>2017-04-03T11:50:45Z</time>
      </trkpt>
      <trkpt lat="44.44464" lon="4.77268">
        <ele>266.42</ele>
        <time>2017-04-03T11:51:00Z</time>
      </trkpt>
      <trkpt lat="44.44461" lon="4.77268">
        <ele>264.5</ele>
        <time>2017-04-03T11:51:11Z</time>
      </trkpt>
      <trkpt lat="44.44458" lon="4.7727">
        <ele>263.06</ele>
        <time>2017-04-03T11:51:28Z</time>
      </trkpt>
      <trkpt lat="44.44457" lon="4.77267">
        <ele>261.14</ele>
        <time>2017-04-03T11:51:40Z</time>
      </trkpt>
      <trkpt lat="44.44456" lon="4.77264">
        <ele>260.65</ele>
        <time>2017-04-03T11:51:55Z</time>
      </trkpt>
      <trkpt lat="44.44454" lon="4.77258">
        <ele>259.21</ele>
        <time>2017-04-03T11:52:11Z</time>
      </trkpt>
      <trkpt lat="44.44449" lon="4.77254">
        <ele>256.81</ele>
        <time>2017-04-03T11:52:24Z</time>
      </trkpt>
      <trkpt lat="44.44448" lon="4.77255">
        <ele>254.89</ele>
        <time>2017-04-03T11:52:28Z</time>
      </trkpt>
      <trkpt lat="44.44447" lon="4.77253">
        <ele>254.41</ele>
        <time>2017-04-03T11:52:41Z</time>
      </trkpt>
      <trkpt lat="44.44447" lon="4.77253">
        <ele>252.96</ele>
        <time>2017-04-03T11:52:44Z</time>
      </trkpt>
      <trkpt lat="44.44443" lon="4.77249">
        <ele>250.56</ele>
        <time>2017-04-03T11:52:57Z</time>
      </trkpt>
      <trkpt lat="44.44443" lon="4.77248">
        <ele>250.56</ele>
        <time>2017-04-03T11:53:03Z</time>
      </trkpt>
      <trkpt lat="44.44446" lon="4.77243">
        <ele>252.48</ele>
        <time>2017-04-03T11:53:08Z</time>
      </trkpt>
      <trkpt lat="44.44448" lon="4.77237">
        <ele>251.04</ele>
        <time>2017-04-03T11:53:12Z</time>
      </trkpt>
      <trkpt lat="44.44448" lon="4.77232">
        <ele>250.56</ele>
        <time>2017-04-03T11:53:24Z</time>
      </trkpt>
      <trkpt lat="44.44444" lon="4.77248">
        <ele>250.56</ele>
        <time>2017-04-03T11:53:41Z</time>
      </trkpt>
      <trkpt lat="44.44443" lon="4.77249">
        <ele>252</ele>
        <time>2017-04-03T11:53:48Z</time>
      </trkpt>
      <trkpt lat="44.44441" lon="4.77249">
        <ele>252.48</ele>
        <time>2017-04-03T11:54:13Z</time>
      </trkpt>
      <trkpt lat="44.44442" lon="4.77248">
        <ele>252.48</ele>
        <time>2017-04-03T11:54:31Z</time>
      </trkpt>
      <trkpt lat="44.44441" lon="4.77248">
        <ele>252.48</ele>
        <time>2017-04-03T11:54:49Z</time>
      </trkpt>
      <trkpt lat="44.44441" lon="4.77248">
        <ele>252.48</ele>
        <time>2017-04-03T11:55:12Z</time>
      </trkpt>
      <trkpt lat="44.44441" lon="4.77249">
        <ele>250.56</ele>
        <time>2017-04-03T11:55:25Z</time>
      </trkpt>
      <trkpt lat="44.44441" lon="4.77249">
        <ele>252</ele>
        <time>2017-04-03T11:55:32Z</time>
      </trkpt>
      <trkpt lat="44.44441" lon="4.7725">
        <ele>252.96</ele>
        <time>2017-04-03T11:55:54Z</time>
      </trkpt>
      <trkpt lat="44.44442" lon="4.77251">
        <ele>251.52</ele>
        <time>2017-04-03T11:56:20Z</time>
      </trkpt>
      <trkpt lat="44.44446" lon="4.77241">
        <ele>251.52</ele>
        <time>2017-04-03T11:56:43Z</time>
      </trkpt>
      <trkpt lat="44.44449" lon="4.77234">
        <ele>251.04</ele>
        <time>2017-04-03T11:56:55Z</time>
      </trkpt>
      <trkpt lat="44.44452" lon="4.77226">
        <ele>249.12</ele>
        <time>2017-04-03T11:57:11Z</time>
      </trkpt>
      <trkpt lat="44.44454" lon="4.77216">
        <ele>247.68</ele>
        <time>2017-04-03T11:57:25Z</time>
      </trkpt>
      <trkpt lat="44.44458" lon="4.77207">
        <ele>244.31</ele>
        <time>2017-04-03T11:57:37Z</time>
      </trkpt>
      <trkpt lat="44.44465" lon="4.77189">
        <ele>244.79</ele>
        <time>2017-04-03T11:57:49Z</time>
      </trkpt>
      <trkpt lat="44.44468" lon="4.77187">
        <ele>244.79</ele>
        <time>2017-04-03T11:57:54Z</time>
      </trkpt>
      <trkpt lat="44.4447" lon="4.77187">
        <ele>246.23</ele>
        <time>2017-04-03T11:57:56Z</time>
      </trkpt>
      <trkpt lat="44.44471" lon="4.77187">
        <ele>246.23</ele>
        <time>2017-04-03T11:57:57Z</time>
      </trkpt>
      <trkpt lat="44.44482" lon="4.77187">
        <ele>246.72</ele>
        <time>2017-04-03T11:58:11Z</time>
      </trkpt>
      <trkpt lat="44.44487" lon="4.7719">
        <ele>248.64</ele>
        <time>2017-04-03T11:58:20Z</time>
      </trkpt>
      <trkpt lat="44.44492" lon="4.77191">
        <ele>249.12</ele>
        <time>2017-04-03T11:58:26Z</time>
      </trkpt>
      <trkpt lat="44.44507" lon="4.77192">
        <ele>250.56</ele>
        <time>2017-04-03T11:58:40Z</time>
      </trkpt>
      <trkpt lat="44.44515" lon="4.77194">
        <ele>252</ele>
        <time>2017-04-03T11:58:53Z</time>
      </trkpt>
      <trkpt lat="44.44524" lon="4.77203">
        <ele>253.93</ele>
        <time>2017-04-03T11:59:06Z</time>
      </trkpt>
      <trkpt lat="44.44533" lon="4.77212">
        <ele>255.85</ele>
        <time>2017-04-03T11:59:18Z</time>
      </trkpt>
      <trkpt lat="44.44532" lon="4.77212">
        <ele>256.81</ele>
        <time>2017-04-03T11:59:22Z</time>
      </trkpt>
      <trkpt lat="44.44528" lon="4.77208">
        <ele>255.37</ele>
        <time>2017-04-03T11:59:26Z</time>
      </trkpt>
      <trkpt lat="44.44526" lon="4.77205">
        <ele>254.41</ele>
        <time>2017-04-03T11:59:29Z</time>
      </trkpt>
      <trkpt lat="44.4452" lon="4.77197">
        <ele>251.04</ele>
        <time>2017-04-03T11:59:39Z</time>
      </trkpt>
      <trkpt lat="44.44517" lon="4.77196">
        <ele>251.04</ele>
        <time>2017-04-03T11:59:42Z</time>
      </trkpt>
      <trkpt lat="44.44504" lon="4.77194">
        <ele>250.08</ele>
        <time>2017-04-03T11:59:55Z</time>
      </trkpt>
      <trkpt lat="44.44494" lon="4.77193">
        <ele>249.6</ele>
        <time>2017-04-03T12:00:07Z</time>
      </trkpt>
      <trkpt lat="44.4448" lon="4.77189">
        <ele>246.23</ele>
        <time>2017-04-03T12:00:24Z</time>
      </trkpt>
      <trkpt lat="44.44468" lon="4.77187">
        <ele>244.79</ele>
        <time>2017-04-03T12:00:39Z</time>
      </trkpt>
      <trkpt lat="44.44458" lon="4.7719">
        <ele>244.31</ele>
        <time>2017-04-03T12:00:56Z</time>
      </trkpt>
      <trkpt lat="44.44453" lon="4.77194">
        <ele>245.27</ele>
        <time>2017-04-03T12:01:11Z</time>
      </trkpt>
      <trkpt lat="44.44453" lon="4.77193">
        <ele>245.27</ele>
        <time>2017-04-03T12:01:12Z</time>
      </trkpt>
      <trkpt lat="44.44453" lon="4.77192">
        <ele>244.31</ele>
        <time>2017-04-03T12:01:16Z</time>
      </trkpt>
      <trkpt lat="44.44454" lon="4.77188">
        <ele>242.39</ele>
        <time>2017-04-03T12:01:32Z</time>
      </trkpt>
      <trkpt lat="44.44454" lon="4.77197">
        <ele>245.27</ele>
        <time>2017-04-03T12:01:49Z</time>
      </trkpt>
      <trkpt lat="44.4445" lon="4.77208">
        <ele>247.68</ele>
        <time>2017-04-03T12:02:03Z</time>
      </trkpt>
      <trkpt lat="44.44448" lon="4.7722">
        <ele>249.6</ele>
        <time>2017-04-03T12:02:18Z</time>
      </trkpt>
      <trkpt lat="44.44443" lon="4.77219">
        <ele>248.16</ele>
        <time>2017-04-03T12:02:32Z</time>
      </trkpt>
      <trkpt lat="44.4444" lon="4.77216">
        <ele>245.75</ele>
        <time>2017-04-03T12:02:48Z</time>
      </trkpt>
      <trkpt lat="44.4444" lon="4.77217">
        <ele>243.83</ele>
        <time>2017-04-03T12:03:06Z</time>
      </trkpt>
      <trkpt lat="44.44444" lon="4.77219">
        <ele>246.23</ele>
        <time>2017-04-03T12:03:23Z</time>
      </trkpt>
      <trkpt lat="44.44448" lon="4.77222">
        <ele>249.12</ele>
        <time>2017-04-03T12:03:37Z</time>
      </trkpt>
      <trkpt lat="44.44446" lon="4.77234">
        <ele>250.08</ele>
        <time>2017-04-03T12:03:51Z</time>
      </trkpt>
      <trkpt lat="44.4444" lon="4.77243">
        <ele>250.56</ele>
        <time>2017-04-03T12:04:05Z</time>
      </trkpt>
      <trkpt lat="44.44438" lon="4.77244">
        <ele>250.56</ele>
        <time>2017-04-03T12:04:19Z</time>
      </trkpt>
      <trkpt lat="44.44435" lon="4.77244">
        <ele>250.08</ele>
        <time>2017-04-03T12:04:50Z</time>
      </trkpt>
      <trkpt lat="44.44436" lon="4.77244">
        <ele>251.04</ele>
        <time>2017-04-03T12:05:01Z</time>
      </trkpt>
      <trkpt lat="44.44427" lon="4.77239">
        <ele>252.48</ele>
        <time>2017-04-03T12:05:13Z</time>
      </trkpt>
      <trkpt lat="44.4442" lon="4.77234">
        <ele>251.04</ele>
        <time>2017-04-03T12:05:21Z</time>
      </trkpt>
      <trkpt lat="44.44418" lon="4.77231">
        <ele>252.48</ele>
        <time>2017-04-03T12:05:25Z</time>
      </trkpt>
      <trkpt lat="44.44413" lon="4.77225">
        <ele>254.41</ele>
        <time>2017-04-03T12:05:37Z</time>
      </trkpt>
      <trkpt lat="44.44411" lon="4.77228">
        <ele>256.81</ele>
        <time>2017-04-03T12:05:46Z</time>
      </trkpt>
      <trkpt lat="44.44412" lon="4.77232">
        <ele>257.77</ele>
        <time>2017-04-03T12:05:50Z</time>
      </trkpt>
      <trkpt lat="44.44414" lon="4.77237">
        <ele>256.81</ele>
        <time>2017-04-03T12:06:02Z</time>
      </trkpt>
      <trkpt lat="44.44414" lon="4.77238">
        <ele>256.81</ele>
        <time>2017-04-03T12:06:03Z</time>
      </trkpt>
      <trkpt lat="44.44415" lon="4.77238">
        <ele>259.21</ele>
        <time>2017-04-03T12:06:05Z</time>
      </trkpt>
      <trkpt lat="44.44413" lon="4.77237">
        <ele>257.29</ele>
        <time>2017-04-03T12:06:13Z</time>
      </trkpt>
      <trkpt lat="44.44414" lon="4.77246">
        <ele>259.69</ele>
        <time>2017-04-03T12:06:22Z</time>
      </trkpt>
      <trkpt lat="44.44415" lon="4.77249">
        <ele>260.65</ele>
        <time>2017-04-03T12:06:25Z</time>
      </trkpt>
      <trkpt lat="44.44417" lon="4.77256">
        <ele>262.1</ele>
        <time>2017-04-03T12:06:30Z</time>
      </trkpt>
      <trkpt lat="44.4442" lon="4.77266">
        <ele>264.02</ele>
        <time>2017-04-03T12:06:45Z</time>
      </trkpt>
      <trkpt lat="44.44416" lon="4.77261">
        <ele>264.02</ele>
        <time>2017-04-03T12:06:54Z</time>
      </trkpt>
      <trkpt lat="44.44405" lon="4.7725">
        <ele>264.98</ele>
        <time>2017-04-03T12:07:11Z</time>
      </trkpt>
      <trkpt lat="44.444" lon="4.77245">
        <ele>267.38</ele>
        <time>2017-04-03T12:07:24Z</time>
      </trkpt>
      <trkpt lat="44.44401" lon="4.77251">
        <ele>268.35</ele>
        <time>2017-04-03T12:07:31Z</time>
      </trkpt>
      <trkpt lat="44.44401" lon="4.77257">
        <ele>269.79</ele>
        <time>2017-04-03T12:07:44Z</time>
      </trkpt>
      <trkpt lat="44.44393" lon="4.77251">
        <ele>272.67</ele>
        <time>2017-04-03T12:07:56Z</time>
      </trkpt>
      <trkpt lat="44.44393" lon="4.7725">
        <ele>273.15</ele>
        <time>2017-04-03T12:07:57Z</time>
      </trkpt>
      <trkpt lat="44.44389" lon="4.77246">
        <ele>274.11</ele>
        <time>2017-04-03T12:08:03Z</time>
      </trkpt>
      <trkpt lat="44.44378" lon="4.77243">
        <ele>276.04</ele>
        <time>2017-04-03T12:08:19Z</time>
      </trkpt>
      <trkpt lat="44.44368" lon="4.77244">
        <ele>278.92</ele>
        <time>2017-04-03T12:08:35Z</time>
      </trkpt>
      <trkpt lat="44.44358" lon="4.77245">
        <ele>280.36</ele>
        <time>2017-04-03T12:08:48Z</time>
      </trkpt>
      <trkpt lat="44.44358" lon="4.77245">
        <ele>280.36</ele>
        <time>2017-04-03T12:08:49Z</time>
      </trkpt>
      <trkpt lat="44.44348" lon="4.77245">
        <ele>280.84</ele>
        <time>2017-04-03T12:09:05Z</time>
      </trkpt>
      <trkpt lat="44.44336" lon="4.77246">
        <ele>281.32</ele>
        <time>2017-04-03T12:09:20Z</time>
      </trkpt>
      <trkpt lat="44.44324" lon="4.77244">
        <ele>281.8</ele>
        <time>2017-04-03T12:09:35Z</time>
      </trkpt>
      <trkpt lat="44.44315" lon="4.77241">
        <ele>283.25</ele>
        <time>2017-04-03T12:09:51Z</time>
      </trkpt>
      <trkpt lat="44.44305" lon="4.77235">
        <ele>283.25</ele>
        <time>2017-04-03T12:10:07Z</time>
      </trkpt>
      <trkpt lat="44.44299" lon="4.77232">
        <ele>281.32</ele>
        <time>2017-04-03T12:10:13Z</time>
      </trkpt>
      <trkpt lat="44.44295" lon="4.7723">
        <ele>281.32</ele>
        <time>2017-04-03T12:10:18Z</time>
      </trkpt>
      <trkpt lat="44.4429" lon="4.77227">
        <ele>280.84</ele>
        <time>2017-04-03T12:10:24Z</time>
      </trkpt>
      <trkpt lat="44.44288" lon="4.77226">
        <ele>280.84</ele>
        <time>2017-04-03T12:10:26Z</time>
      </trkpt>
      <trkpt lat="44.4428" lon="4.77222">
        <ele>280.84</ele>
        <time>2017-04-03T12:10:37Z</time>
      </trkpt>
      <trkpt lat="44.44267" lon="4.77218">
        <ele>279.88</ele>
        <time>2017-04-03T12:10:50Z</time>
      </trkpt>
      <trkpt lat="44.44253" lon="4.77215">
        <ele>279.4</ele>
        <time>2017-04-03T12:11:06Z</time>
      </trkpt>
      <trkpt lat="44.44253" lon="4.77212">
        <ele>279.4</ele>
        <time>2017-04-03T12:11:19Z</time>
      </trkpt>
      <trkpt lat="44.44251" lon="4.77213">
        <ele>279.4</ele>
        <time>2017-04-03T12:11:22Z</time>
      </trkpt>
      <trkpt lat="44.44246" lon="4.77215">
        <ele>280.36</ele>
        <time>2017-04-03T12:11:31Z</time>
      </trkpt>
      <trkpt lat="44.44234" lon="4.77223">
        <ele>281.32</ele>
        <time>2017-04-03T12:11:47Z</time>
      </trkpt>
      <trkpt lat="44.44227" lon="4.77228">
        <ele>281.32</ele>
        <time>2017-04-03T12:11:59Z</time>
      </trkpt>
      <trkpt lat="44.44225" lon="4.77243">
        <ele>278.92</ele>
        <time>2017-04-03T12:12:14Z</time>
      </trkpt>
      <trkpt lat="44.4423" lon="4.77257">
        <ele>279.4</ele>
        <time>2017-04-03T12:12:28Z</time>
      </trkpt>
      <trkpt lat="44.44234" lon="4.77268">
        <ele>277.96</ele>
        <time>2017-04-03T12:12:41Z</time>
      </trkpt>
      <trkpt lat="44.4424" lon="4.77278">
        <ele>277.96</ele>
        <time>2017-04-03T12:12:54Z</time>
      </trkpt>
      <trkpt lat="44.44241" lon="4.77279">
        <ele>277.96</ele>
        <time>2017-04-03T12:12:57Z</time>
      </trkpt>
      <trkpt lat="44.44245" lon="4.77284">
        <ele>277.96</ele>
        <time>2017-04-03T12:13:12Z</time>
      </trkpt>
      <trkpt lat="44.44244" lon="4.77284">
        <ele>277.96</ele>
        <time>2017-04-03T12:13:35Z</time>
      </trkpt>
      <trkpt lat="44.44242" lon="4.77283">
        <ele>277.96</ele>
        <time>2017-04-03T12:13:48Z</time>
      </trkpt>
      <trkpt lat="44.44237" lon="4.77285">
        <ele>277</ele>
        <time>2017-04-03T12:13:58Z</time>
      </trkpt>
      <trkpt lat="44.4423" lon="4.77281">
        <ele>274.59</ele>
        <time>2017-04-03T12:14:12Z</time>
      </trkpt>
      <trkpt lat="44.44226" lon="4.77284">
        <ele>273.63</ele>
        <time>2017-04-03T12:14:24Z</time>
      </trkpt>
      <trkpt lat="44.44222" lon="4.77285">
        <ele>272.19</ele>
        <time>2017-04-03T12:14:35Z</time>
      </trkpt>
      <trkpt lat="44.4422" lon="4.77277">
        <ele>272.19</ele>
        <time>2017-04-03T12:14:45Z</time>
      </trkpt>
      <trkpt lat="44.44215" lon="4.77274">
        <ele>271.23</ele>
        <time>2017-04-03T12:14:58Z</time>
      </trkpt>
      <trkpt lat="44.44216" lon="4.77273">
        <ele>270.75</ele>
        <time>2017-04-03T12:15:10Z</time>
      </trkpt>
      <trkpt lat="44.44218" lon="4.77275">
        <ele>272.19</ele>
        <time>2017-04-03T12:15:13Z</time>
      </trkpt>
      <trkpt lat="44.44222" lon="4.77276">
        <ele>272.67</ele>
        <time>2017-04-03T12:15:24Z</time>
      </trkpt>
      <trkpt lat="44.44223" lon="4.77276">
        <ele>273.63</ele>
        <time>2017-04-03T12:15:29Z</time>
      </trkpt>
      <trkpt lat="44.44228" lon="4.7728">
        <ele>274.11</ele>
        <time>2017-04-03T12:15:42Z</time>
      </trkpt>
      <trkpt lat="44.44231" lon="4.77282">
        <ele>275.56</ele>
        <time>2017-04-03T12:15:53Z</time>
      </trkpt>
      <trkpt lat="44.4424" lon="4.77283">
        <ele>277.96</ele>
        <time>2017-04-03T12:16:07Z</time>
      </trkpt>
      <trkpt lat="44.44241" lon="4.77284">
        <ele>278.92</ele>
        <time>2017-04-03T12:16:10Z</time>
      </trkpt>
      <trkpt lat="44.44247" lon="4.77287">
        <ele>279.4</ele>
        <time>2017-04-03T12:16:21Z</time>
      </trkpt>
      <trkpt lat="44.44251" lon="4.77294">
        <ele>278.92</ele>
        <time>2017-04-03T12:16:28Z</time>
      </trkpt>
      <trkpt lat="44.44256" lon="4.77302">
        <ele>278.92</ele>
        <time>2017-04-03T12:16:42Z</time>
      </trkpt>
      <trkpt lat="44.44259" lon="4.7731">
        <ele>278.92</ele>
        <time>2017-04-03T12:16:52Z</time>
      </trkpt>
      <trkpt lat="44.44265" lon="4.77322">
        <ele>277.48</ele>
        <time>2017-04-03T12:17:04Z</time>
      </trkpt>
      <trkpt lat="44.44273" lon="4.77335">
        <ele>277</ele>
        <time>2017-04-03T12:17:17Z</time>
      </trkpt>
      <trkpt lat="44.44279" lon="4.77343">
        <ele>278.44</ele>
        <time>2017-04-03T12:17:25Z</time>
      </trkpt>
      <trkpt lat="44.44286" lon="4.77353">
        <ele>278.44</ele>
        <time>2017-04-03T12:17:37Z</time>
      </trkpt>
      <trkpt lat="44.44288" lon="4.77354">
        <ele>278.92</ele>
        <time>2017-04-03T12:17:39Z</time>
      </trkpt>
      <trkpt lat="44.44296" lon="4.77365">
        <ele>278.92</ele>
        <time>2017-04-03T12:17:49Z</time>
      </trkpt>
      <trkpt lat="44.44305" lon="4.77384">
        <ele>278.92</ele>
        <time>2017-04-03T12:18:04Z</time>
      </trkpt>
      <trkpt lat="44.44307" lon="4.77389">
        <ele>277</ele>
        <time>2017-04-03T12:18:09Z</time>
      </trkpt>
      <trkpt lat="44.44311" lon="4.77401">
        <ele>275.07</ele>
        <time>2017-04-03T12:18:21Z</time>
      </trkpt>
      <trkpt lat="44.44306" lon="4.77413">
        <ele>272.67</ele>
        <time>2017-04-03T12:18:35Z</time>
      </trkpt>
      <trkpt lat="44.44298" lon="4.77418">
        <ele>271.71</ele>
        <time>2017-04-03T12:18:48Z</time>
      </trkpt>
      <trkpt lat="44.44299" lon="4.77419">
        <ele>271.23</ele>
        <time>2017-04-03T12:19:06Z</time>
      </trkpt>
      <trkpt lat="44.44296" lon="4.77423">
        <ele>271.71</ele>
        <time>2017-04-03T12:19:24Z</time>
      </trkpt>
      <trkpt lat="44.44289" lon="4.77425">
        <ele>270.27</ele>
        <time>2017-04-03T12:19:34Z</time>
      </trkpt>
      <trkpt lat="44.44277" lon="4.77437">
        <ele>271.23</ele>
        <time>2017-04-03T12:19:49Z</time>
      </trkpt>
      <trkpt lat="44.44276" lon="4.77437">
        <ele>271.23</ele>
        <time>2017-04-03T12:19:50Z</time>
      </trkpt>
      <trkpt lat="44.44272" lon="4.77444">
        <ele>272.19</ele>
        <time>2017-04-03T12:19:56Z</time>
      </trkpt>
      <trkpt lat="44.44267" lon="4.77451">
        <ele>272.19</ele>
        <time>2017-04-03T12:20:08Z</time>
      </trkpt>
      <trkpt lat="44.44258" lon="4.77461">
        <ele>272.19</ele>
        <time>2017-04-03T12:20:22Z</time>
      </trkpt>
      <trkpt lat="44.44251" lon="4.77458">
        <ele>270.75</ele>
        <time>2017-04-03T12:20:37Z</time>
      </trkpt>
      <trkpt lat="44.44249" lon="4.77457">
        <ele>270.75</ele>
        <time>2017-04-03T12:20:42Z</time>
      </trkpt>
      <trkpt lat="44.44243" lon="4.77455">
        <ele>270.75</ele>
        <time>2017-04-03T12:20:48Z</time>
      </trkpt>
      <trkpt lat="44.44226" lon="4.77451">
        <ele>267.38</ele>
        <time>2017-04-03T12:21:04Z</time>
      </trkpt>
      <trkpt lat="44.44209" lon="4.77444">
        <ele>265.46</ele>
        <time>2017-04-03T12:21:20Z</time>
      </trkpt>
      <trkpt lat="44.44203" lon="4.77443">
        <ele>264.5</ele>
        <time>2017-04-03T12:21:25Z</time>
      </trkpt>
      <trkpt lat="44.442" lon="4.77444">
        <ele>264.5</ele>
        <time>2017-04-03T12:21:28Z</time>
      </trkpt>
      <trkpt lat="44.44187" lon="4.77441">
        <ele>263.06</ele>
        <time>2017-04-03T12:21:43Z</time>
      </trkpt>
      <trkpt lat="44.44181" lon="4.77443">
        <ele>262.1</ele>
        <time>2017-04-03T12:21:50Z</time>
      </trkpt>
      <trkpt lat="44.44168" lon="4.77439">
        <ele>259.69</ele>
        <time>2017-04-03T12:22:04Z</time>
      </trkpt>
      <trkpt lat="44.44154" lon="4.77433">
        <ele>257.29</ele>
        <time>2017-04-03T12:22:19Z</time>
      </trkpt>
      <trkpt lat="44.44146" lon="4.77432">
        <ele>255.85</ele>
        <time>2017-04-03T12:22:29Z</time>
      </trkpt>
      <trkpt lat="44.44143" lon="4.77433">
        <ele>254.89</ele>
        <time>2017-04-03T12:22:43Z</time>
      </trkpt>
      <trkpt lat="44.44143" lon="4.77435">
        <ele>254.89</ele>
        <time>2017-04-03T12:23:08Z</time>
      </trkpt>
      <trkpt lat="44.44137" lon="4.77433">
        <ele>254.41</ele>
        <time>2017-04-03T12:23:26Z</time>
      </trkpt>
      <trkpt lat="44.44126" lon="4.77433">
        <ele>252.48</ele>
        <time>2017-04-03T12:23:38Z</time>
      </trkpt>
      <trkpt lat="44.4412" lon="4.77431">
        <ele>251.04</ele>
        <time>2017-04-03T12:23:45Z</time>
      </trkpt>
      <trkpt lat="44.44105" lon="4.77427">
        <ele>248.16</ele>
        <time>2017-04-03T12:24:00Z</time>
      </trkpt>
      <trkpt lat="44.44074" lon="4.77427">
        <ele>237.58</ele>
        <time>2017-04-03T12:25:05Z</time>
      </trkpt>
      <trkpt lat="44.44074" lon="4.77426">
        <ele>237.58</ele>
        <time>2017-04-03T12:25:06Z</time>
      </trkpt>
      <trkpt lat="44.44073" lon="4.77427">
        <ele>237.1</ele>
        <time>2017-04-03T12:25:10Z</time>
      </trkpt>
      <trkpt lat="44.44063" lon="4.77419">
        <ele>234.22</ele>
        <time>2017-04-03T12:25:27Z</time>
      </trkpt>
      <trkpt lat="44.44035" lon="4.77402">
        <ele>231.81</ele>
        <time>2017-04-03T12:25:44Z</time>
      </trkpt>
      <trkpt lat="44.4402" lon="4.77394">
        <ele>229.41</ele>
        <time>2017-04-03T12:25:58Z</time>
      </trkpt>
      <trkpt lat="44.44005" lon="4.77389">
        <ele>227.49</ele>
        <time>2017-04-03T12:26:13Z</time>
      </trkpt>
      <trkpt lat="44.43995" lon="4.77391">
        <ele>224.61</ele>
        <time>2017-04-03T12:26:25Z</time>
      </trkpt>
      <trkpt lat="44.43987" lon="4.77393">
        <ele>223.16</ele>
        <time>2017-04-03T12:26:39Z</time>
      </trkpt>
      <trkpt lat="44.43987" lon="4.77393">
        <ele>223.16</ele>
        <time>2017-04-03T12:27:02Z</time>
      </trkpt>
      <trkpt lat="44.43987" lon="4.77392">
        <ele>224.12</ele>
        <time>2017-04-03T12:27:11Z</time>
      </trkpt>
      <trkpt lat="44.43984" lon="4.77392">
        <ele>223.64</ele>
        <time>2017-04-03T12:27:39Z</time>
      </trkpt>
      <trkpt lat="44.43984" lon="4.77391">
        <ele>224.12</ele>
        <time>2017-04-03T12:28:03Z</time>
      </trkpt>
      <trkpt lat="44.43984" lon="4.77389">
        <ele>224.61</ele>
        <time>2017-04-03T12:28:22Z</time>
      </trkpt>
      <trkpt lat="44.43984" lon="4.77389">
        <ele>224.61</ele>
        <time>2017-04-03T12:28:23Z</time>
      </trkpt>
      <trkpt lat="44.43985" lon="4.77392">
        <ele>223.16</ele>
        <time>2017-04-03T12:28:33Z</time>
      </trkpt>
      <trkpt lat="44.43985" lon="4.77393">
        <ele>224.12</ele>
        <time>2017-04-03T12:28:59Z</time>
      </trkpt>
      <trkpt lat="44.43982" lon="4.77392">
        <ele>223.64</ele>
        <time>2017-04-03T12:29:26Z</time>
      </trkpt>
      <trkpt lat="44.43975" lon="4.7739">
        <ele>222.2</ele>
        <time>2017-04-03T12:29:45Z</time>
      </trkpt>
      <trkpt lat="44.43972" lon="4.77386">
        <ele>219.8</ele>
        <time>2017-04-03T12:29:59Z</time>
      </trkpt>
      <trkpt lat="44.4396" lon="4.7738">
        <ele>216.91</ele>
        <time>2017-04-03T12:30:17Z</time>
      </trkpt>
      <trkpt lat="44.4395" lon="4.77375">
        <ele>213.55</ele>
        <time>2017-04-03T12:30:33Z</time>
      </trkpt>
      <trkpt lat="44.4394" lon="4.77367">
        <ele>210.67</ele>
        <time>2017-04-03T12:30:52Z</time>
      </trkpt>
      <trkpt lat="44.43929" lon="4.77369">
        <ele>207.78</ele>
        <time>2017-04-03T12:31:06Z</time>
      </trkpt>
      <trkpt lat="44.43918" lon="4.7737">
        <ele>206.34</ele>
        <time>2017-04-03T12:31:21Z</time>
      </trkpt>
      <trkpt lat="44.43908" lon="4.77367">
        <ele>203.46</ele>
        <time>2017-04-03T12:31:35Z</time>
      </trkpt>
      <trkpt lat="44.43897" lon="4.77367">
        <ele>200.57</ele>
        <time>2017-04-03T12:31:50Z</time>
      </trkpt>
      <trkpt lat="44.43885" lon="4.77364">
        <ele>197.69</ele>
        <time>2017-04-03T12:32:05Z</time>
      </trkpt>
      <trkpt lat="44.43876" lon="4.77362">
        <ele>196.25</ele>
        <time>2017-04-03T12:32:18Z</time>
      </trkpt>
      <trkpt lat="44.43867" lon="4.77359">
        <ele>193.36</ele>
        <time>2017-04-03T12:32:32Z</time>
      </trkpt>
      <trkpt lat="44.43859" lon="4.77358">
        <ele>191.92</ele>
        <time>2017-04-03T12:32:50Z</time>
      </trkpt>
      <trkpt lat="44.43848" lon="4.77356">
        <ele>190</ele>
        <time>2017-04-03T12:33:07Z</time>
      </trkpt>
      <trkpt lat="44.43841" lon="4.77349">
        <ele>188.56</ele>
        <time>2017-04-03T12:33:24Z</time>
      </trkpt>
      <trkpt lat="44.43831" lon="4.77352">
        <ele>186.63</ele>
        <time>2017-04-03T12:33:39Z</time>
      </trkpt>
      <trkpt lat="44.43827" lon="4.77357">
        <ele>185.19</ele>
        <time>2017-04-03T12:33:54Z</time>
      </trkpt>
      <trkpt lat="44.43823" lon="4.77358">
        <ele>184.71</ele>
        <time>2017-04-03T12:34:11Z</time>
      </trkpt>
      <trkpt lat="44.43822" lon="4.77357">
        <ele>184.23</ele>
        <time>2017-04-03T12:34:35Z</time>
      </trkpt>
      <trkpt lat="44.43822" lon="4.77357">
        <ele>184.23</ele>
        <time>2017-04-03T12:35:01Z</time>
      </trkpt>
      <trkpt lat="44.43822" lon="4.77361">
        <ele>184.23</ele>
        <time>2017-04-03T12:35:23Z</time>
      </trkpt>
      <trkpt lat="44.43814" lon="4.77363">
        <ele>182.31</ele>
        <time>2017-04-03T12:35:42Z</time>
      </trkpt>
      <trkpt lat="44.43806" lon="4.77368">
        <ele>181.35</ele>
        <time>2017-04-03T12:35:57Z</time>
      </trkpt>
      <trkpt lat="44.43806" lon="4.77369">
        <ele>180.87</ele>
        <time>2017-04-03T12:35:58Z</time>
      </trkpt>
      <trkpt lat="44.43794" lon="4.77378">
        <ele>179.9</ele>
        <time>2017-04-03T12:36:13Z</time>
      </trkpt>
      <trkpt lat="44.43786" lon="4.77379">
        <ele>178.94</ele>
        <time>2017-04-03T12:36:28Z</time>
      </trkpt>
      <trkpt lat="44.4378" lon="4.77371">
        <ele>177.5</ele>
        <time>2017-04-03T12:36:41Z</time>
      </trkpt>
      <trkpt lat="44.43772" lon="4.77359">
        <ele>177.02</ele>
        <time>2017-04-03T12:36:55Z</time>
      </trkpt>
      <trkpt lat="44.43763" lon="4.77351">
        <ele>176.06</ele>
        <time>2017-04-03T12:37:09Z</time>
      </trkpt>
      <trkpt lat="44.43762" lon="4.7735">
        <ele>176.06</ele>
        <time>2017-04-03T12:37:11Z</time>
      </trkpt>
      <trkpt lat="44.43749" lon="4.77336">
        <ele>174.14</ele>
        <time>2017-04-03T12:37:27Z</time>
      </trkpt>
      <trkpt lat="44.4374" lon="4.7733">
        <ele>173.17</ele>
        <time>2017-04-03T12:37:37Z</time>
      </trkpt>
      <trkpt lat="44.43726" lon="4.77322">
        <ele>172.69</ele>
        <time>2017-04-03T12:37:54Z</time>
      </trkpt>
      <trkpt lat="44.43725" lon="4.77322">
        <ele>174.14</ele>
        <time>2017-04-03T12:37:56Z</time>
      </trkpt>
      <trkpt lat="44.43723" lon="4.77324">
        <ele>173.66</ele>
        <time>2017-04-03T12:38:00Z</time>
      </trkpt>
      <trkpt lat="44.43721" lon="4.77326">
        <ele>172.69</ele>
        <time>2017-04-03T12:38:02Z</time>
      </trkpt>
      <trkpt lat="44.4372" lon="4.77329">
        <ele>173.66</ele>
        <time>2017-04-03T12:38:05Z</time>
      </trkpt>
      <trkpt lat="44.43713" lon="4.7735">
        <ele>172.21</ele>
        <time>2017-04-03T12:38:20Z</time>
      </trkpt>
      <trkpt lat="44.43705" lon="4.77369">
        <ele>172.21</ele>
        <time>2017-04-03T12:38:35Z</time>
      </trkpt>
      <trkpt lat="44.437" lon="4.77389">
        <ele>171.73</ele>
        <time>2017-04-03T12:38:49Z</time>
      </trkpt>
      <trkpt lat="44.43697" lon="4.77411">
        <ele>173.17</ele>
        <time>2017-04-03T12:39:05Z</time>
      </trkpt>
      <trkpt lat="44.43695" lon="4.77431">
        <ele>173.17</ele>
        <time>2017-04-03T12:39:18Z</time>
      </trkpt>
      <trkpt lat="44.43691" lon="4.77452">
        <ele>173.17</ele>
        <time>2017-04-03T12:39:32Z</time>
      </trkpt>
      <trkpt lat="44.43692" lon="4.77455">
        <ele>173.17</ele>
        <time>2017-04-03T12:39:34Z</time>
      </trkpt>
      <trkpt lat="44.43689" lon="4.77481">
        <ele>173.66</ele>
        <time>2017-04-03T12:39:49Z</time>
      </trkpt>
      <trkpt lat="44.43687" lon="4.77511">
        <ele>173.17</ele>
        <time>2017-04-03T12:40:07Z</time>
      </trkpt>
      <trkpt lat="44.43687" lon="4.77513">
        <ele>173.17</ele>
        <time>2017-04-03T12:40:08Z</time>
      </trkpt>
      <trkpt lat="44.43686" lon="4.77528">
        <ele>173.66</ele>
        <time>2017-04-03T12:40:18Z</time>
      </trkpt>
      <trkpt lat="44.43678" lon="4.77552">
        <ele>172.21</ele>
        <time>2017-04-03T12:40:34Z</time>
      </trkpt>
      <trkpt lat="44.43674" lon="4.7757">
        <ele>171.25</ele>
        <time>2017-04-03T12:40:47Z</time>
      </trkpt>
      <trkpt lat="44.43672" lon="4.77573">
        <ele>171.25</ele>
        <time>2017-04-03T12:41:05Z</time>
      </trkpt>
      <trkpt lat="44.43671" lon="4.77572">
        <ele>171.25</ele>
        <time>2017-04-03T12:41:14Z</time>
      </trkpt>
      <trkpt lat="44.43672" lon="4.77561">
        <ele>170.77</ele>
        <time>2017-04-03T12:41:28Z</time>
      </trkpt>
      <trkpt lat="44.43672" lon="4.7756">
        <ele>170.77</ele>
        <time>2017-04-03T12:41:41Z</time>
      </trkpt>
      <trkpt lat="44.43672" lon="4.77558">
        <ele>170.77</ele>
        <time>2017-04-03T12:41:50Z</time>
      </trkpt>
      <trkpt lat="44.43678" lon="4.77554">
        <ele>172.69</ele>
        <time>2017-04-03T12:41:58Z</time>
      </trkpt>
      <trkpt lat="44.43681" lon="4.77549">
        <ele>173.17</ele>
        <time>2017-04-03T12:42:07Z</time>
      </trkpt>
      <trkpt lat="44.43673" lon="4.77567">
        <ele>171.25</ele>
        <time>2017-04-03T12:42:23Z</time>
      </trkpt>
      <trkpt lat="44.43672" lon="4.77564">
        <ele>170.77</ele>
        <time>2017-04-03T12:42:34Z</time>
      </trkpt>
      <trkpt lat="44.43674" lon="4.77567">
        <ele>172.21</ele>
        <time>2017-04-03T12:42:42Z</time>
      </trkpt>
      <trkpt lat="44.43672" lon="4.77577">
        <ele>171.25</ele>
        <time>2017-04-03T12:42:52Z</time>
      </trkpt>
      <trkpt lat="44.43672" lon="4.77577">
        <ele>170.77</ele>
        <time>2017-04-03T12:43:10Z</time>
      </trkpt>
      <trkpt lat="44.43671" lon="4.77577">
        <ele>171.25</ele>
        <time>2017-04-03T12:43:19Z</time>
      </trkpt>
      <trkpt lat="44.43672" lon="4.7758">
        <ele>169.81</ele>
        <time>2017-04-03T12:43:27Z</time>
      </trkpt>
      <trkpt lat="44.43674" lon="4.77581">
        <ele>171.25</ele>
        <time>2017-04-03T12:43:42Z</time>
      </trkpt>
      <trkpt lat="44.43672" lon="4.77583">
        <ele>171.25</ele>
        <time>2017-04-03T12:43:59Z</time>
      </trkpt>
      <trkpt lat="44.4367" lon="4.77584">
        <ele>171.25</ele>
        <time>2017-04-03T12:44:14Z</time>
      </trkpt>
      <trkpt lat="44.43663" lon="4.77598">
        <ele>169.81</ele>
        <time>2017-04-03T12:44:27Z</time>
      </trkpt>
      <trkpt lat="44.43654" lon="4.77619">
        <ele>169.81</ele>
        <time>2017-04-03T12:44:42Z</time>
      </trkpt>
      <trkpt lat="44.43645" lon="4.77641">
        <ele>167.89</ele>
        <time>2017-04-03T12:45:00Z</time>
      </trkpt>
      <trkpt lat="44.43639" lon="4.77665">
        <ele>169.33</ele>
        <time>2017-04-03T12:45:17Z</time>
      </trkpt>
      <trkpt lat="44.43637" lon="4.77672">
        <ele>167.89</ele>
        <time>2017-04-03T12:45:22Z</time>
      </trkpt>
      <trkpt lat="44.43629" lon="4.77701">
        <ele>167.89</ele>
        <time>2017-04-03T12:45:41Z</time>
      </trkpt>
      <trkpt lat="44.43628" lon="4.77706">
        <ele>167.89</ele>
        <time>2017-04-03T12:45:44Z</time>
      </trkpt>
      <trkpt lat="44.43621" lon="4.77729">
        <ele>167.41</ele>
        <time>2017-04-03T12:46:01Z</time>
      </trkpt>
      <trkpt lat="44.4362" lon="4.77735">
        <ele>167.41</ele>
        <time>2017-04-03T12:46:05Z</time>
      </trkpt>
      <trkpt lat="44.43619" lon="4.7774">
        <ele>166.93</ele>
        <time>2017-04-03T12:46:08Z</time>
      </trkpt>
      <trkpt lat="44.43618" lon="4.77746">
        <ele>166.93</ele>
        <time>2017-04-03T12:46:11Z</time>
      </trkpt>
      <trkpt lat="44.43611" lon="4.77775">
        <ele>168.37</ele>
        <time>2017-04-03T12:46:29Z</time>
      </trkpt>
      <trkpt lat="44.43605" lon="4.77789">
        <ele>167.89</ele>
        <time>2017-04-03T12:46:41Z</time>
      </trkpt>
      <trkpt lat="44.43602" lon="4.77795">
        <ele>166.93</ele>
        <time>2017-04-03T12:46:46Z</time>
      </trkpt>
      <trkpt lat="44.43587" lon="4.77815">
        <ele>167.89</ele>
        <time>2017-04-03T12:47:04Z</time>
      </trkpt>
      <trkpt lat="44.43586" lon="4.77816">
        <ele>167.89</ele>
        <time>2017-04-03T12:47:05Z</time>
      </trkpt>
      <trkpt lat="44.43582" lon="4.77821">
        <ele>168.85</ele>
        <time>2017-04-03T12:47:10Z</time>
      </trkpt>
      <trkpt lat="44.43577" lon="4.77831">
        <ele>170.29</ele>
        <time>2017-04-03T12:47:18Z</time>
      </trkpt>
      <trkpt lat="44.43573" lon="4.77853">
        <ele>170.29</ele>
        <time>2017-04-03T12:47:35Z</time>
      </trkpt>
      <trkpt lat="44.43574" lon="4.77873">
        <ele>170.77</ele>
        <time>2017-04-03T12:47:49Z</time>
      </trkpt>
      <trkpt lat="44.43575" lon="4.77876">
        <ele>169.81</ele>
        <time>2017-04-03T12:47:52Z</time>
      </trkpt>
      <trkpt lat="44.43578" lon="4.77886">
        <ele>169.33</ele>
        <time>2017-04-03T12:47:59Z</time>
      </trkpt>
      <trkpt lat="44.43581" lon="4.77906">
        <ele>168.85</ele>
        <time>2017-04-03T12:48:11Z</time>
      </trkpt>
      <trkpt lat="44.43582" lon="4.77935">
        <ele>167.89</ele>
        <time>2017-04-03T12:48:29Z</time>
      </trkpt>
      <trkpt lat="44.43583" lon="4.7796">
        <ele>167.89</ele>
        <time>2017-04-03T12:48:45Z</time>
      </trkpt>
      <trkpt lat="44.43585" lon="4.77981">
        <ele>168.85</ele>
        <time>2017-04-03T12:48:59Z</time>
      </trkpt>
      <trkpt lat="44.43585" lon="4.77986">
        <ele>168.85</ele>
        <time>2017-04-03T12:49:02Z</time>
      </trkpt>
      <trkpt lat="44.43584" lon="4.78011">
        <ele>168.85</ele>
        <time>2017-04-03T12:49:18Z</time>
      </trkpt>
      <trkpt lat="44.4358" lon="4.78035">
        <ele>169.81</ele>
        <time>2017-04-03T12:49:34Z</time>
      </trkpt>
      <trkpt lat="44.43574" lon="4.78063">
        <ele>168.37</ele>
        <time>2017-04-03T12:49:51Z</time>
      </trkpt>
      <trkpt lat="44.4357" lon="4.78088">
        <ele>168.37</ele>
        <time>2017-04-03T12:50:07Z</time>
      </trkpt>
      <trkpt lat="44.43566" lon="4.78111">
        <ele>167.41</ele>
        <time>2017-04-03T12:50:21Z</time>
      </trkpt>
      <trkpt lat="44.43563" lon="4.78137">
        <ele>166.93</ele>
        <time>2017-04-03T12:50:37Z</time>
      </trkpt>
      <trkpt lat="44.43558" lon="4.78157">
        <ele>166.45</ele>
        <time>2017-04-03T12:50:50Z</time>
      </trkpt>
      <trkpt lat="44.43548" lon="4.78179">
        <ele>166.45</ele>
        <time>2017-04-03T12:51:07Z</time>
      </trkpt>
      <trkpt lat="44.43535" lon="4.78197">
        <ele>166.45</ele>
        <time>2017-04-03T12:51:24Z</time>
      </trkpt>
      <trkpt lat="44.43527" lon="4.78208">
        <ele>167.41</ele>
        <time>2017-04-03T12:51:35Z</time>
      </trkpt>
      <trkpt lat="44.43517" lon="4.78221">
        <ele>167.41</ele>
        <time>2017-04-03T12:51:49Z</time>
      </trkpt>
      <trkpt lat="44.4351" lon="4.7823">
        <ele>168.37</ele>
        <time>2017-04-03T12:51:57Z</time>
      </trkpt>
      <trkpt lat="44.43501" lon="4.78246">
        <ele>169.33</ele>
        <time>2017-04-03T12:52:11Z</time>
      </trkpt>
      <trkpt lat="44.43487" lon="4.78266">
        <ele>171.25</ele>
        <time>2017-04-03T12:52:28Z</time>
      </trkpt>
      <trkpt lat="44.43481" lon="4.78278">
        <ele>170.77</ele>
        <time>2017-04-03T12:52:38Z</time>
      </trkpt>
      <trkpt lat="44.43477" lon="4.78289">
        <ele>171.25</ele>
        <time>2017-04-03T12:52:45Z</time>
      </trkpt>
      <trkpt lat="44.43471" lon="4.78308">
        <ele>171.25</ele>
        <time>2017-04-03T12:52:56Z</time>
      </trkpt>
      <trkpt lat="44.43469" lon="4.78318">
        <ele>171.25</ele>
        <time>2017-04-03T12:53:02Z</time>
      </trkpt>
      <trkpt lat="44.43469" lon="4.78331">
        <ele>172.21</ele>
        <time>2017-04-03T12:53:15Z</time>
      </trkpt>
      <trkpt lat="44.43471" lon="4.78333">
        <ele>172.21</ele>
        <time>2017-04-03T12:53:28Z</time>
      </trkpt>
      <trkpt lat="44.43472" lon="4.78333">
        <ele>170.77</ele>
        <time>2017-04-03T12:53:43Z</time>
      </trkpt>
      <trkpt lat="44.43472" lon="4.78333">
        <ele>170.77</ele>
        <time>2017-04-03T12:53:44Z</time>
      </trkpt>
      <trkpt lat="44.43477" lon="4.78339">
        <ele>170.77</ele>
        <time>2017-04-03T12:53:57Z</time>
      </trkpt>
      <trkpt lat="44.43479" lon="4.78343">
        <ele>171.73</ele>
        <time>2017-04-03T12:54:13Z</time>
      </trkpt>
      <trkpt lat="44.43485" lon="4.78345">
        <ele>172.21</ele>
        <time>2017-04-03T12:54:28Z</time>
      </trkpt>
      <trkpt lat="44.43485" lon="4.78347">
        <ele>173.17</ele>
        <time>2017-04-03T12:54:44Z</time>
      </trkpt>
      <trkpt lat="44.43484" lon="4.78348">
        <ele>171.73</ele>
        <time>2017-04-03T12:54:57Z</time>
      </trkpt>
      <trkpt lat="44.43483" lon="4.78348">
        <ele>173.17</ele>
        <time>2017-04-03T12:55:05Z</time>
      </trkpt>
      <trkpt lat="44.43483" lon="4.78349">
        <ele>171.73</ele>
        <time>2017-04-03T12:55:13Z</time>
      </trkpt>
      <trkpt lat="44.43485" lon="4.7835">
        <ele>171.73</ele>
        <time>2017-04-03T12:55:33Z</time>
      </trkpt>
      <trkpt lat="44.43485" lon="4.78351">
        <ele>171.73</ele>
        <time>2017-04-03T12:55:37Z</time>
      </trkpt>
      <trkpt lat="44.43502" lon="4.78349">
        <ele>173.66</ele>
        <time>2017-04-03T12:55:51Z</time>
      </trkpt>
      <trkpt lat="44.43513" lon="4.78348">
        <ele>174.62</ele>
        <time>2017-04-03T12:56:02Z</time>
      </trkpt>
      <trkpt lat="44.43532" lon="4.78344">
        <ele>176.54</ele>
        <time>2017-04-03T12:56:19Z</time>
      </trkpt>
      <trkpt lat="44.43538" lon="4.78343">
        <ele>177.5</ele>
        <time>2017-04-03T12:56:25Z</time>
      </trkpt>
      <trkpt lat="44.43544" lon="4.78343">
        <ele>179.9</ele>
        <time>2017-04-03T12:56:31Z</time>
      </trkpt>
      <trkpt lat="44.43546" lon="4.78343">
        <ele>178.46</ele>
        <time>2017-04-03T12:56:33Z</time>
      </trkpt>
      <trkpt lat="44.43547" lon="4.78343">
        <ele>178.46</ele>
        <time>2017-04-03T12:56:34Z</time>
      </trkpt>
      <trkpt lat="44.43554" lon="4.78341">
        <ele>179.42</ele>
        <time>2017-04-03T12:56:40Z</time>
      </trkpt>
      <trkpt lat="44.43571" lon="4.78342">
        <ele>181.35</ele>
        <time>2017-04-03T12:56:55Z</time>
      </trkpt>
      <trkpt lat="44.43588" lon="4.78345">
        <ele>182.31</ele>
        <time>2017-04-03T12:57:11Z</time>
      </trkpt>
      <trkpt lat="44.43602" lon="4.78347">
        <ele>182.79</ele>
        <time>2017-04-03T12:57:24Z</time>
      </trkpt>
      <trkpt lat="44.43615" lon="4.78348">
        <ele>183.27</ele>
        <time>2017-04-03T12:57:37Z</time>
      </trkpt>
      <trkpt lat="44.43626" lon="4.78345">
        <ele>185.19</ele>
        <time>2017-04-03T12:57:48Z</time>
      </trkpt>
      <trkpt lat="44.43638" lon="4.78342">
        <ele>186.63</ele>
        <time>2017-04-03T12:57:59Z</time>
      </trkpt>
      <trkpt lat="44.43642" lon="4.78347">
        <ele>186.63</ele>
        <time>2017-04-03T12:58:04Z</time>
      </trkpt>
      <trkpt lat="44.43642" lon="4.78372">
        <ele>183.75</ele>
        <time>2017-04-03T12:58:21Z</time>
      </trkpt>
      <trkpt lat="44.43637" lon="4.7839">
        <ele>183.27</ele>
        <time>2017-04-03T12:58:33Z</time>
      </trkpt>
      <trkpt lat="44.43633" lon="4.78412">
        <ele>181.83</ele>
        <time>2017-04-03T12:58:47Z</time>
      </trkpt>
      <trkpt lat="44.43628" lon="4.78435">
        <ele>180.38</ele>
        <time>2017-04-03T12:59:01Z</time>
      </trkpt>
      <trkpt lat="44.43627" lon="4.78455">
        <ele>179.42</ele>
        <time>2017-04-03T12:59:15Z</time>
      </trkpt>
      <trkpt lat="44.43632" lon="4.78478">
        <ele>177.5</ele>
        <time>2017-04-03T12:59:30Z</time>
      </trkpt>
      <trkpt lat="44.43642" lon="4.78499">
        <ele>176.54</ele>
        <time>2017-04-03T12:59:45Z</time>
      </trkpt>
      <trkpt lat="44.43658" lon="4.78506">
        <ele>176.06</ele>
        <time>2017-04-03T13:00:02Z</time>
      </trkpt>
      <trkpt lat="44.43673" lon="4.78505">
        <ele>173.17</ele>
        <time>2017-04-03T13:00:19Z</time>
      </trkpt>
      <trkpt lat="44.4369" lon="4.78506">
        <ele>172.21</ele>
        <time>2017-04-03T13:00:33Z</time>
      </trkpt>
      <trkpt lat="44.43707" lon="4.78505">
        <ele>171.25</ele>
        <time>2017-04-03T13:00:48Z</time>
      </trkpt>
      <trkpt lat="44.43719" lon="4.78512">
        <ele>170.29</ele>
        <time>2017-04-03T13:00:58Z</time>
      </trkpt>
      <trkpt lat="44.43725" lon="4.78517">
        <ele>170.29</ele>
        <time>2017-04-03T13:01:04Z</time>
      </trkpt>
      <trkpt lat="44.43741" lon="4.78533">
        <ele>167.89</ele>
        <time>2017-04-03T13:01:20Z</time>
      </trkpt>
      <trkpt lat="44.43752" lon="4.78545">
        <ele>167.41</ele>
        <time>2017-04-03T13:01:33Z</time>
      </trkpt>
      <trkpt lat="44.43754" lon="4.78547">
        <ele>168.85</ele>
        <time>2017-04-03T13:01:36Z</time>
      </trkpt>
      <trkpt lat="44.43766" lon="4.78559">
        <ele>168.37</ele>
        <time>2017-04-03T13:01:50Z</time>
      </trkpt>
      <trkpt lat="44.43777" lon="4.78574">
        <ele>166.45</ele>
        <time>2017-04-03T13:02:03Z</time>
      </trkpt>
      <trkpt lat="44.4379" lon="4.78591">
        <ele>166.45</ele>
        <time>2017-04-03T13:02:18Z</time>
      </trkpt>
      <trkpt lat="44.43797" lon="4.78601">
        <ele>167.89</ele>
        <time>2017-04-03T13:02:26Z</time>
      </trkpt>
      <trkpt lat="44.43809" lon="4.78617">
        <ele>166.45</ele>
        <time>2017-04-03T13:02:42Z</time>
      </trkpt>
      <trkpt lat="44.43813" lon="4.78629">
        <ele>165</ele>
        <time>2017-04-03T13:02:55Z</time>
      </trkpt>
      <trkpt lat="44.43812" lon="4.78632">
        <ele>165</ele>
        <time>2017-04-03T13:02:58Z</time>
      </trkpt>
      <trkpt lat="44.43804" lon="4.78655">
        <ele>162.6</ele>
        <time>2017-04-03T13:03:15Z</time>
      </trkpt>
      <trkpt lat="44.43799" lon="4.78666">
        <ele>161.64</ele>
        <time>2017-04-03T13:03:26Z</time>
      </trkpt>
      <trkpt lat="44.43798" lon="4.78673">
        <ele>161.16</ele>
        <time>2017-04-03T13:03:31Z</time>
      </trkpt>
      <trkpt lat="44.43812" lon="4.78685">
        <ele>161.16</ele>
        <time>2017-04-03T13:03:47Z</time>
      </trkpt>
      <trkpt lat="44.43811" lon="4.78687">
        <ele>161.16</ele>
        <time>2017-04-03T13:03:51Z</time>
      </trkpt>
      <trkpt lat="44.4381" lon="4.78693">
        <ele>161.16</ele>
        <time>2017-04-03T13:03:55Z</time>
      </trkpt>
      <trkpt lat="44.4381" lon="4.78704">
        <ele>161.16</ele>
        <time>2017-04-03T13:04:01Z</time>
      </trkpt>
      <trkpt lat="44.43809" lon="4.78708">
        <ele>161.16</ele>
        <time>2017-04-03T13:04:03Z</time>
      </trkpt>
      <trkpt lat="44.43803" lon="4.78726">
        <ele>161.16</ele>
        <time>2017-04-03T13:04:17Z</time>
      </trkpt>
      <trkpt lat="44.43801" lon="4.78728">
        <ele>161.16</ele>
        <time>2017-04-03T13:04:19Z</time>
      </trkpt>
      <trkpt lat="44.43794" lon="4.78741">
        <ele>160.68</ele>
        <time>2017-04-03T13:04:33Z</time>
      </trkpt>
      <trkpt lat="44.43791" lon="4.78746">
        <ele>160.68</ele>
        <time>2017-04-03T13:04:44Z</time>
      </trkpt>
      <trkpt lat="44.43785" lon="4.78751">
        <ele>159.24</ele>
        <time>2017-04-03T13:04:56Z</time>
      </trkpt>
      <trkpt lat="44.43785" lon="4.78752">
        <ele>159.24</ele>
        <time>2017-04-03T13:04:59Z</time>
      </trkpt>
      <trkpt lat="44.43783" lon="4.78756">
        <ele>159.24</ele>
        <time>2017-04-03T13:05:02Z</time>
      </trkpt>
      <trkpt lat="44.43783" lon="4.78765">
        <ele>158.27</ele>
        <time>2017-04-03T13:05:13Z</time>
      </trkpt>
      <trkpt lat="44.43782" lon="4.7876">
        <ele>157.79</ele>
        <time>2017-04-03T13:05:29Z</time>
      </trkpt>
      <trkpt lat="44.43783" lon="4.7877">
        <ele>157.31</ele>
        <time>2017-04-03T13:05:45Z</time>
      </trkpt>
      <trkpt lat="44.43787" lon="4.78785">
        <ele>157.31</ele>
        <time>2017-04-03T13:05:54Z</time>
      </trkpt>
      <trkpt lat="44.43793" lon="4.78802">
        <ele>156.83</ele>
        <time>2017-04-03T13:06:06Z</time>
      </trkpt>
      <trkpt lat="44.43795" lon="4.7881">
        <ele>156.35</ele>
        <time>2017-04-03T13:06:11Z</time>
      </trkpt>
      <trkpt lat="44.43801" lon="4.78825">
        <ele>156.35</ele>
        <time>2017-04-03T13:06:22Z</time>
      </trkpt>
      <trkpt lat="44.43806" lon="4.78849">
        <ele>155.39</ele>
        <time>2017-04-03T13:06:37Z</time>
      </trkpt>
      <trkpt lat="44.43805" lon="4.78879">
        <ele>154.43</ele>
        <time>2017-04-03T13:06:53Z</time>
      </trkpt>
      <trkpt lat="44.43811" lon="4.78908">
        <ele>153.47</ele>
        <time>2017-04-03T13:07:09Z</time>
      </trkpt>
      <trkpt lat="44.43811" lon="4.78924">
        <ele>152.03</ele>
        <time>2017-04-03T13:07:18Z</time>
      </trkpt>
      <trkpt lat="44.43806" lon="4.78932">
        <ele>152.03</ele>
        <time>2017-04-03T13:07:24Z</time>
      </trkpt>
      <trkpt lat="44.43795" lon="4.78936">
        <ele>150.1</ele>
        <time>2017-04-03T13:07:34Z</time>
      </trkpt>
      <trkpt lat="44.43774" lon="4.78939">
        <ele>147.22</ele>
        <time>2017-04-03T13:07:51Z</time>
      </trkpt>
      <trkpt lat="44.43755" lon="4.78943">
        <ele>146.74</ele>
        <time>2017-04-03T13:08:05Z</time>
      </trkpt>
      <trkpt lat="44.43737" lon="4.78953">
        <ele>145.78</ele>
        <time>2017-04-03T13:08:20Z</time>
      </trkpt>
      <trkpt lat="44.43715" lon="4.78959">
        <ele>144.82</ele>
        <time>2017-04-03T13:08:38Z</time>
      </trkpt>
      <trkpt lat="44.43713" lon="4.78959">
        <ele>144.82</ele>
        <time>2017-04-03T13:08:40Z</time>
      </trkpt>
      <trkpt lat="44.43692" lon="4.7896">
        <ele>143.85</ele>
        <time>2017-04-03T13:08:57Z</time>
      </trkpt>
      <trkpt lat="44.43671" lon="4.78962">
        <ele>142.89</ele>
        <time>2017-04-03T13:09:14Z</time>
      </trkpt>
      <trkpt lat="44.43646" lon="4.7896">
        <ele>141.93</ele>
        <time>2017-04-03T13:09:31Z</time>
      </trkpt>
      <trkpt lat="44.43615" lon="4.78965">
        <ele>139.05</ele>
        <time>2017-04-03T13:09:52Z</time>
      </trkpt>
      <trkpt lat="44.43592" lon="4.7897">
        <ele>139.05</ele>
        <time>2017-04-03T13:10:11Z</time>
      </trkpt>
      <trkpt lat="44.43569" lon="4.78964">
        <ele>137.13</ele>
        <time>2017-04-03T13:10:28Z</time>
      </trkpt>
      <trkpt lat="44.43546" lon="4.78964">
        <ele>136.64</ele>
        <time>2017-04-03T13:10:46Z</time>
      </trkpt>
      <trkpt lat="44.43526" lon="4.78957">
        <ele>135.68</ele>
        <time>2017-04-03T13:11:03Z</time>
      </trkpt>
      <trkpt lat="44.43503" lon="4.78957">
        <ele>132.8</ele>
        <time>2017-04-03T13:11:23Z</time>
      </trkpt>
      <trkpt lat="44.43492" lon="4.78982">
        <ele>130.4</ele>
        <time>2017-04-03T13:11:40Z</time>
      </trkpt>
      <trkpt lat="44.43491" lon="4.79006">
        <ele>129.92</ele>
        <time>2017-04-03T13:11:54Z</time>
      </trkpt>
      <trkpt lat="44.43491" lon="4.79011">
        <ele>131.36</ele>
        <time>2017-04-03T13:11:57Z</time>
      </trkpt>
      <trkpt lat="44.43489" lon="4.7902">
        <ele>132.8</ele>
        <time>2017-04-03T13:12:04Z</time>
      </trkpt>
      <trkpt lat="44.43487" lon="4.79027">
        <ele>132.8</ele>
        <time>2017-04-03T13:12:10Z</time>
      </trkpt>
      <trkpt lat="44.43479" lon="4.7905">
        <ele>134.72</ele>
        <time>2017-04-03T13:12:26Z</time>
      </trkpt>
      <trkpt lat="44.43476" lon="4.79055">
        <ele>134.72</ele>
        <time>2017-04-03T13:12:31Z</time>
      </trkpt>
      <trkpt lat="44.43475" lon="4.79062">
        <ele>134.72</ele>
        <time>2017-04-03T13:12:36Z</time>
      </trkpt>
      <trkpt lat="44.43475" lon="4.79087">
        <ele>135.2</ele>
        <time>2017-04-03T13:12:52Z</time>
      </trkpt>
      <trkpt lat="44.43473" lon="4.79114">
        <ele>136.16</ele>
        <time>2017-04-03T13:13:09Z</time>
      </trkpt>
      <trkpt lat="44.43472" lon="4.79136">
        <ele>139.53</ele>
        <time>2017-04-03T13:13:21Z</time>
      </trkpt>
      <trkpt lat="44.43472" lon="4.7915">
        <ele>141.45</ele>
        <time>2017-04-03T13:13:31Z</time>
      </trkpt>
      <trkpt lat="44.43473" lon="4.79153">
        <ele>141.93</ele>
        <time>2017-04-03T13:13:33Z</time>
      </trkpt>
      <trkpt lat="44.43475" lon="4.79168">
        <ele>143.85</ele>
        <time>2017-04-03T13:13:44Z</time>
      </trkpt>
      <trkpt lat="44.43476" lon="4.79178">
        <ele>144.82</ele>
        <time>2017-04-03T13:13:56Z</time>
      </trkpt>
      <trkpt lat="44.43475" lon="4.79181">
        <ele>145.78</ele>
        <time>2017-04-03T13:14:03Z</time>
      </trkpt>
      <trkpt lat="44.43467" lon="4.79196">
        <ele>147.22</ele>
        <time>2017-04-03T13:14:17Z</time>
      </trkpt>
      <trkpt lat="44.43458" lon="4.7921">
        <ele>149.14</ele>
        <time>2017-04-03T13:14:30Z</time>
      </trkpt>
      <trkpt lat="44.43444" lon="4.79222">
        <ele>151.54</ele>
        <time>2017-04-03T13:14:46Z</time>
      </trkpt>
      <trkpt lat="44.43433" lon="4.79236">
        <ele>152.51</ele>
        <time>2017-04-03T13:15:00Z</time>
      </trkpt>
      <trkpt lat="44.43432" lon="4.79237">
        <ele>152.99</ele>
        <time>2017-04-03T13:15:02Z</time>
      </trkpt>
      <trkpt lat="44.43432" lon="4.79238">
        <ele>152.99</ele>
        <time>2017-04-03T13:15:03Z</time>
      </trkpt>
      <trkpt lat="44.43423" lon="4.79251">
        <ele>153.95</ele>
        <time>2017-04-03T13:15:17Z</time>
      </trkpt>
      <trkpt lat="44.43422" lon="4.79255">
        <ele>153.95</ele>
        <time>2017-04-03T13:15:20Z</time>
      </trkpt>
      <trkpt lat="44.4342" lon="4.79258">
        <ele>153.95</ele>
        <time>2017-04-03T13:15:23Z</time>
      </trkpt>
      <trkpt lat="44.43412" lon="4.79278">
        <ele>156.83</ele>
        <time>2017-04-03T13:15:40Z</time>
      </trkpt>
      <trkpt lat="44.43413" lon="4.79285">
        <ele>157.79</ele>
        <time>2017-04-03T13:15:51Z</time>
      </trkpt>
      <trkpt lat="44.43412" lon="4.79287">
        <ele>156.83</ele>
        <time>2017-04-03T13:16:02Z</time>
      </trkpt>
      <trkpt lat="44.43411" lon="4.79286">
        <ele>156.35</ele>
        <time>2017-04-03T13:16:19Z</time>
      </trkpt>
      <trkpt lat="44.4341" lon="4.79286">
        <ele>156.35</ele>
        <time>2017-04-03T13:16:40Z</time>
      </trkpt>
      <trkpt lat="44.43409" lon="4.79285">
        <ele>156.83</ele>
        <time>2017-04-03T13:17:19Z</time>
      </trkpt>
      <trkpt lat="44.4341" lon="4.79286">
        <ele>155.87</ele>
        <time>2017-04-03T13:17:28Z</time>
      </trkpt>
      <trkpt lat="44.4341" lon="4.79286">
        <ele>156.83</ele>
        <time>2017-04-03T13:17:32Z</time>
      </trkpt>
      <trkpt lat="44.43409" lon="4.79288">
        <ele>156.83</ele>
        <time>2017-04-03T13:17:56Z</time>
      </trkpt>
      <trkpt lat="44.43406" lon="4.7929">
        <ele>157.31</ele>
        <time>2017-04-03T13:17:59Z</time>
      </trkpt>
      <trkpt lat="44.43405" lon="4.79297">
        <ele>157.79</ele>
        <time>2017-04-03T13:18:04Z</time>
      </trkpt>
      <trkpt lat="44.43396" lon="4.79319">
        <ele>158.75</ele>
        <time>2017-04-03T13:18:20Z</time>
      </trkpt>
      <trkpt lat="44.43395" lon="4.79324">
        <ele>157.79</ele>
        <time>2017-04-03T13:18:23Z</time>
      </trkpt>
      <trkpt lat="44.43395" lon="4.79325">
        <ele>157.79</ele>
        <time>2017-04-03T13:18:24Z</time>
      </trkpt>
      <trkpt lat="44.43388" lon="4.79344">
        <ele>157.31</ele>
        <time>2017-04-03T13:18:38Z</time>
      </trkpt>
      <trkpt lat="44.4338" lon="4.79371">
        <ele>157.31</ele>
        <time>2017-04-03T13:18:56Z</time>
      </trkpt>
      <trkpt lat="44.43372" lon="4.79392">
        <ele>156.83</ele>
        <time>2017-04-03T13:19:12Z</time>
      </trkpt>
      <trkpt lat="44.43365" lon="4.79414">
        <ele>154.91</ele>
        <time>2017-04-03T13:19:29Z</time>
      </trkpt>
      <trkpt lat="44.43365" lon="4.79419">
        <ele>154.91</ele>
        <time>2017-04-03T13:19:34Z</time>
      </trkpt>
      <trkpt lat="44.43365" lon="4.79422">
        <ele>156.35</ele>
        <time>2017-04-03T13:19:36Z</time>
      </trkpt>
      <trkpt lat="44.43365" lon="4.79427">
        <ele>155.87</ele>
        <time>2017-04-03T13:19:44Z</time>
      </trkpt>
      <trkpt lat="44.43363" lon="4.79428">
        <ele>155.87</ele>
        <time>2017-04-03T13:19:53Z</time>
      </trkpt>
      <trkpt lat="44.4336" lon="4.79428">
        <ele>156.83</ele>
        <time>2017-04-03T13:19:56Z</time>
      </trkpt>
      <trkpt lat="44.43352" lon="4.79439">
        <ele>156.83</ele>
        <time>2017-04-03T13:20:10Z</time>
      </trkpt>
      <trkpt lat="44.43351" lon="4.7944">
        <ele>156.83</ele>
        <time>2017-04-03T13:20:11Z</time>
      </trkpt>
      <trkpt lat="44.4334" lon="4.79459">
        <ele>157.31</ele>
        <time>2017-04-03T13:20:27Z</time>
      </trkpt>
      <trkpt lat="44.43329" lon="4.79486">
        <ele>158.27</ele>
        <time>2017-04-03T13:20:46Z</time>
      </trkpt>
      <trkpt lat="44.43319" lon="4.79507">
        <ele>159.72</ele>
        <time>2017-04-03T13:21:01Z</time>
      </trkpt>
      <trkpt lat="44.43312" lon="4.79515">
        <ele>159.72</ele>
        <time>2017-04-03T13:21:08Z</time>
      </trkpt>
      <trkpt lat="44.43298" lon="4.79509">
        <ele>160.2</ele>
        <time>2017-04-03T13:21:23Z</time>
      </trkpt>
      <trkpt lat="44.43285" lon="4.79494">
        <ele>161.64</ele>
        <time>2017-04-03T13:21:37Z</time>
      </trkpt>
      <trkpt lat="44.43283" lon="4.79494">
        <ele>161.64</ele>
        <time>2017-04-03T13:21:40Z</time>
      </trkpt>
      <trkpt lat="44.4328" lon="4.79499">
        <ele>162.12</ele>
        <time>2017-04-03T13:21:46Z</time>
      </trkpt>
      <trkpt lat="44.43278" lon="4.79521">
        <ele>163.56</ele>
        <time>2017-04-03T13:22:00Z</time>
      </trkpt>
      <trkpt lat="44.43277" lon="4.7955">
        <ele>165.48</ele>
        <time>2017-04-03T13:22:17Z</time>
      </trkpt>
      <trkpt lat="44.43275" lon="4.79577">
        <ele>166.93</ele>
        <time>2017-04-03T13:22:33Z</time>
      </trkpt>
      <trkpt lat="44.43275" lon="4.79602">
        <ele>168.85</ele>
        <time>2017-04-03T13:22:49Z</time>
      </trkpt>
      <trkpt lat="44.43275" lon="4.79604">
        <ele>168.85</ele>
        <time>2017-04-03T13:22:50Z</time>
      </trkpt>
      <trkpt lat="44.43276" lon="4.79615">
        <ele>169.33</ele>
        <time>2017-04-03T13:22:57Z</time>
      </trkpt>
      <trkpt lat="44.43269" lon="4.7964">
        <ele>171.25</ele>
        <time>2017-04-03T13:23:14Z</time>
      </trkpt>
      <trkpt lat="44.43261" lon="4.79661">
        <ele>173.66</ele>
        <time>2017-04-03T13:23:30Z</time>
      </trkpt>
      <trkpt lat="44.43254" lon="4.79682">
        <ele>174.62</ele>
        <time>2017-04-03T13:23:46Z</time>
      </trkpt>
      <trkpt lat="44.43246" lon="4.79706">
        <ele>175.58</ele>
        <time>2017-04-03T13:24:02Z</time>
      </trkpt>
      <trkpt lat="44.4324" lon="4.79734">
        <ele>176.54</ele>
        <time>2017-04-03T13:24:19Z</time>
      </trkpt>
      <trkpt lat="44.43224" lon="4.79756">
        <ele>176.54</ele>
        <time>2017-04-03T13:24:38Z</time>
      </trkpt>
      <trkpt lat="44.43201" lon="4.7977">
        <ele>175.1</ele>
        <time>2017-04-03T13:24:57Z</time>
      </trkpt>
      <trkpt lat="44.43182" lon="4.79786">
        <ele>175.1</ele>
        <time>2017-04-03T13:25:15Z</time>
      </trkpt>
      <trkpt lat="44.43165" lon="4.79802">
        <ele>175.1</ele>
        <time>2017-04-03T13:25:33Z</time>
      </trkpt>
      <trkpt lat="44.4315" lon="4.79817">
        <ele>174.14</ele>
        <time>2017-04-03T13:25:49Z</time>
      </trkpt>
      <trkpt lat="44.43131" lon="4.79838">
        <ele>171.73</ele>
        <time>2017-04-03T13:26:09Z</time>
      </trkpt>
      <trkpt lat="44.43123" lon="4.79854">
        <ele>170.29</ele>
        <time>2017-04-03T13:26:23Z</time>
      </trkpt>
      <trkpt lat="44.43121" lon="4.79863">
        <ele>167.89</ele>
        <time>2017-04-03T13:26:29Z</time>
      </trkpt>
      <trkpt lat="44.43116" lon="4.79884">
        <ele>169.81</ele>
        <time>2017-04-03T13:26:43Z</time>
      </trkpt>
      <trkpt lat="44.43103" lon="4.79904">
        <ele>169.81</ele>
        <time>2017-04-03T13:26:59Z</time>
      </trkpt>
      <trkpt lat="44.43094" lon="4.79917">
        <ele>168.37</ele>
        <time>2017-04-03T13:27:10Z</time>
      </trkpt>
      <trkpt lat="44.43082" lon="4.79943">
        <ele>166.45</ele>
        <time>2017-04-03T13:27:28Z</time>
      </trkpt>
      <trkpt lat="44.43075" lon="4.79966">
        <ele>164.04</ele>
        <time>2017-04-03T13:27:43Z</time>
      </trkpt>
      <trkpt lat="44.43066" lon="4.79989">
        <ele>162.12</ele>
        <time>2017-04-03T13:27:59Z</time>
      </trkpt>
      <trkpt lat="44.43066" lon="4.79991">
        <ele>162.12</ele>
        <time>2017-04-03T13:28:00Z</time>
      </trkpt>
      <trkpt lat="44.43059" lon="4.80019">
        <ele>158.75</ele>
        <time>2017-04-03T13:28:18Z</time>
      </trkpt>
      <trkpt lat="44.43061" lon="4.80044">
        <ele>157.79</ele>
        <time>2017-04-03T13:28:35Z</time>
      </trkpt>
      <trkpt lat="44.43062" lon="4.8005">
        <ele>157.79</ele>
        <time>2017-04-03T13:28:47Z</time>
      </trkpt>
      <trkpt lat="44.43062" lon="4.8005">
        <ele>157.79</ele>
        <time>2017-04-03T13:28:48Z</time>
      </trkpt>
      <trkpt lat="44.43064" lon="4.80055">
        <ele>157.79</ele>
        <time>2017-04-03T13:28:55Z</time>
      </trkpt>
      <trkpt lat="44.43067" lon="4.80068">
        <ele>156.83</ele>
        <time>2017-04-03T13:29:07Z</time>
      </trkpt>
      <trkpt lat="44.4307" lon="4.80086">
        <ele>155.87</ele>
        <time>2017-04-03T13:29:19Z</time>
      </trkpt>
      <trkpt lat="44.4307" lon="4.80089">
        <ele>155.87</ele>
        <time>2017-04-03T13:29:21Z</time>
      </trkpt>
      <trkpt lat="44.43073" lon="4.80112">
        <ele>154.43</ele>
        <time>2017-04-03T13:29:38Z</time>
      </trkpt>
      <trkpt lat="44.43075" lon="4.80117">
        <ele>153.95</ele>
        <time>2017-04-03T13:29:52Z</time>
      </trkpt>
      <trkpt lat="44.43076" lon="4.80121">
        <ele>154.91</ele>
        <time>2017-04-03T13:29:57Z</time>
      </trkpt>
      <trkpt lat="44.43079" lon="4.80128">
        <ele>154.91</ele>
        <time>2017-04-03T13:30:03Z</time>
      </trkpt>
      <trkpt lat="44.43083" lon="4.80136">
        <ele>153.47</ele>
        <time>2017-04-03T13:30:11Z</time>
      </trkpt>
      <trkpt lat="44.43092" lon="4.80153">
        <ele>152.51</ele>
        <time>2017-04-03T13:30:28Z</time>
      </trkpt>
      <trkpt lat="44.43088" lon="4.80157">
        <ele>149.62</ele>
        <time>2017-04-03T13:30:36Z</time>
      </trkpt>
      <trkpt lat="44.43084" lon="4.80168">
        <ele>148.66</ele>
        <time>2017-04-03T13:30:48Z</time>
      </trkpt>
      <trkpt lat="44.43083" lon="4.80171">
        <ele>150.1</ele>
        <time>2017-04-03T13:30:53Z</time>
      </trkpt>
      <trkpt lat="44.43082" lon="4.80172">
        <ele>148.66</ele>
        <time>2017-04-03T13:30:55Z</time>
      </trkpt>
      <trkpt lat="44.43079" lon="4.80177">
        <ele>146.74</ele>
        <time>2017-04-03T13:31:08Z</time>
      </trkpt>
      <trkpt lat="44.4307" lon="4.8017">
        <ele>145.3</ele>
        <time>2017-04-03T13:31:25Z</time>
      </trkpt>
      <trkpt lat="44.43072" lon="4.80171">
        <ele>145.3</ele>
        <time>2017-04-03T13:31:28Z</time>
      </trkpt>
      <trkpt lat="44.43077" lon="4.80175">
        <ele>145.3</ele>
        <time>2017-04-03T13:31:33Z</time>
      </trkpt>
      <trkpt lat="44.43092" lon="4.80182">
        <ele>144.82</ele>
        <time>2017-04-03T13:31:48Z</time>
      </trkpt>
      <trkpt lat="44.43106" lon="4.80195">
        <ele>141.45</ele>
        <time>2017-04-03T13:31:59Z</time>
      </trkpt>
      <trkpt lat="44.43107" lon="4.80197">
        <ele>141.45</ele>
        <time>2017-04-03T13:32:00Z</time>
      </trkpt>
      <trkpt lat="44.43114" lon="4.80208">
        <ele>139.53</ele>
        <time>2017-04-03T13:32:13Z</time>
      </trkpt>
      <trkpt lat="44.43123" lon="4.80214">
        <ele>136.16</ele>
        <time>2017-04-03T13:32:26Z</time>
      </trkpt>
      <trkpt lat="44.4313" lon="4.80224">
        <ele>133.28</ele>
        <time>2017-04-03T13:32:37Z</time>
      </trkpt>
      <trkpt lat="44.43138" lon="4.80232">
        <ele>130.88</ele>
        <time>2017-04-03T13:32:51Z</time>
      </trkpt>
      <trkpt lat="44.43139" lon="4.80232">
        <ele>129.92</ele>
        <time>2017-04-03T13:32:52Z</time>
      </trkpt>
      <trkpt lat="44.43148" lon="4.80231">
        <ele>127.99</ele>
        <time>2017-04-03T13:33:00Z</time>
      </trkpt>
      <trkpt lat="44.43151" lon="4.80234">
        <ele>129.43</ele>
        <time>2017-04-03T13:33:05Z</time>
      </trkpt>
      <trkpt lat="44.43152" lon="4.80248">
        <ele>126.55</ele>
        <time>2017-04-03T13:33:15Z</time>
      </trkpt>
      <trkpt lat="44.43157" lon="4.80262">
        <ele>124.63</ele>
        <time>2017-04-03T13:33:28Z</time>
      </trkpt>
      <trkpt lat="44.43163" lon="4.80268">
        <ele>123.19</ele>
        <time>2017-04-03T13:33:35Z</time>
      </trkpt>
      <trkpt lat="44.43166" lon="4.80269">
        <ele>124.63</ele>
        <time>2017-04-03T13:33:38Z</time>
      </trkpt>
      <trkpt lat="44.43176" lon="4.80266">
        <ele>123.19</ele>
        <time>2017-04-03T13:33:53Z</time>
      </trkpt>
      <trkpt lat="44.43175" lon="4.80266">
        <ele>124.63</ele>
        <time>2017-04-03T13:33:57Z</time>
      </trkpt>
      <trkpt lat="44.43176" lon="4.80265">
        <ele>122.71</ele>
        <time>2017-04-03T13:34:02Z</time>
      </trkpt>
      <trkpt lat="44.43176" lon="4.80265">
        <ele>124.15</ele>
        <time>2017-04-03T13:34:07Z</time>
      </trkpt>
      <trkpt lat="44.43178" lon="4.80264">
        <ele>124.63</ele>
        <time>2017-04-03T13:34:28Z</time>
      </trkpt>
      <trkpt lat="44.43178" lon="4.80264">
        <ele>123.19</ele>
        <time>2017-04-03T13:34:34Z</time>
      </trkpt>
    </trkseg>
  </trk>
</gpx>